[[{"header":{"parameterUnit":"m.s-1","parameterCategory":1,"la1":31.0,"la2":29.5877,"lo1":-88.7671,"lo2":-86.6584,"dy":0.0162,"dx":0.0185,"nx":115,"ny":88,"refTime":"2023-09-21T00:00:00:Z","depth":0,"parameterNumber":2,"parameterNumberName":"U-component_of_WINDS"},"data":[0.0,0.0,0.0,0.0,0.0,0.0,0.0,0.0,0.0,0.0,0.0,0.0,0.0,0.0,0.0,0.0,0.0,0.0,0.0,0.0,0.0,0.0,0.0,0.0,0.0,0.0,0.0,0.0,0.0,0.0,0.0,0.0,0.0,0.0,0.0,0.0,0.0,0.0,0.0,0.0,0.0,0.0,0.0,0.0,0.0,0.0,0.0,0.0,0.0,0.0,0.0,0.0,0.0,0.0,0.0,0.0,0.0,0.0,0.0,0.0,0.0,0.0,0.0,0.0,0.0,0.0,0.0,0.0,0.0,0.0,0.0,0.0,0.0,0.0,0.0,0.0,0.0,0.0,0.0,0.0,0.0,0.0,0.0,0.0,0.0,0.0,0.0,0.0,0.0,0.0,0.0,0.0,0.0,0.0,0.0,0.0,0.0,0.0,0.0,0.0,0.0,0.0,0.0,0.0,0.0,0.0,0.0,0.0,0.0,0.0,0.0,0.0,0.0,0.0,0.0,0.0,0.0,0.0,0.0,0.0,0.0,0.0,0.0,0.0,0.0,0.0,0.0,0.0,0.0,0.0,0.0,0.0,0.0,0.0,0.0,0.0,0.0,0.0,0.0,0.0,0.0,0.0,0.0,0.0,0.0,0.0,0.0,0.0,0.0,0.0,0.0,0.0,0.0,0.0,0.0,0.0,0.0,0.0,0.0,0.0,0.0,0.0,0.0,0.0,0.0,0.0,0.0,0.0,0.0,0.0,0.0,0.0,0.0,0.0,0.0,0.0,0.0,0.0,0.0,0.0,0.0,0.0,0.0,0.0,0.0,0.0,0.0,0.0,0.0,0.0,0.0,0.0,0.0,0.0,0.0,0.0,0.0,0.0,0.0,0.0,0.0,0.0,0.0,0.0,0.0,0.0,0.0,0.0,0.0,0.0,0.0,0.0,0.0,0.0,0.0,0.0,0.0,0.0,0.0,0.0,0.0,0.0,0.0,0.0,0.0,0.0,0.0,0.0,0.0,0.0,0.0,0.0,0.0,0.0,0.0,0.0,0.0,0.0,0.0,0.0,0.0,0.0,0.0,0.0,0.0,0.0,0.0,0.0,0.0,0.0,0.0,0.0,0.0,0.0,0.0,0.0,0.0,0.0,0.0,0.0,0.0,0.0,0.0,0.0,0.0,0.0,0.0,0.0,0.0,0.0,0.0,0.0,0.0,0.0,0.0,0.0,0.0,0.0,0.0,0.0,0.0,0.0,0.0,0.0,0.0,0.0,0.0,0.0,0.0,0.0,0.0,0.0,0.0,0.0,0.0,0.0,0.0,0.0,0.0,0.0,0.0,0.0,0.0,0.0,0.0,0.0,0.0,0.0,0.0,0.0,0.0,0.0,0.0,0.0,0.0,0.0,0.0,0.0,0.0,0.0,0.0,0.0,0.0,0.0,0.0,0.0,0.0,0.0,0.0,0.0,0.0,0.0,0.0,0.0,0.0,0.0,0.0,0.0,0.0,0.0,0.0,0.0,0.0,0.0,0.0,0.0,0.0,0.0,0.0,0.0,0.0,0.0,0.0,0.0,0.0,0.0,0.0,0.0,0.0,0.0,0.0,0.0,0.0,0.0,0.0,0.0,0.0,0.0,0.0,0.0,0.0,0.0,0.0,0.0,0.0,0.0,0.0,0.0,0.0,0.0,0.0,0.0,0.0,0.0,0.0,0.0,0.0,0.0,0.0,0.0,0.0,0.0,0.0,0.0,0.0,0.0,0.0,0.0,0.0,0.0,0.0,0.0,0.0,0.0,0.0,0.0,0.0,0.0,0.0,0.0,0.0,0.0,0.0,0.0,0.0,0.0,0.0,0.0,0.0,0.0,0.0,0.0,0.0,0.0,0.0,0.0,0.0,0.0,0.0,0.0,0.0,0.0,0.0,0.0,0.0,0.0,0.0,0.0,0.0,0.0,0.0,0.0,0.0,0.0,0.0,0.0,0.0,0.0,0.0,0.0,0.0,0.0,0.0,0.0,0.0,0.0,0.0,0.0,0.0,0.0,0.0,0.0,0.0,0.0,0.0,0.0,0.0,0.0,0.0,0.0,0.0,0.0,0.0,0.0,0.0,0.0,0.0,0.0,0.0,0.0,0.0,0.0,0.0,0.0,0.0,0.0,0.0,0.0,0.0,0.0,0.0,0.0,0.0,0.0,0.0,0.0,0.0,0.0,0.0,0.0,0.0,0.0,0.0,0.0,0.0,0.0,0.0,0.0,0.0,0.0,0.0,0.0,0.0,0.0,0.0,0.0,0.0,0.0,0.0,0.0,0.0,0.0,0.0,0.0,0.0,0.0,0.0,0.0,0.0,0.0,0.0,0.0,0.0,0.0,0.0,0.0,0.0,0.0,0.0,0.0,0.0,0.0,0.0,0.0,0.0,0.0,0.0,0.0,0.0,0.0,0.0,0.0,0.0,0.0,0.0,0.0,0.0,0.0,0.0,0.0,0.0,0.0,0.0,0.0,0.0,0.0,0.0,0.0,0.0,0.0,0.0,0.0,0.0,0.0,0.0,0.0,0.0,0.0,0.0,0.0,0.0,0.0,0.0,0.0,0.0,0.0,0.0,0.0,0.0,0.0,0.0,0.0,0.0,0.0,0.0,0.0,0.0,0.0,0.0,0.0,0.0,0.0,0.0,0.0,0.0,0.0,0.0,0.0,0.0,0.0,0.0,0.0,0.0,0.0,0.0,0.0,0.0,0.0,0.0,0.0,0.0,0.0,0.0,0.0,0.0,0.0,0.0,0.0,0.0,0.0,0.0,0.0,0.0,0.0,0.0,0.0,0.0,0.0,0.0,0.0,0.0,0.0,0.0,0.0,0.0,0.0,0.0,0.0,0.0,0.0,0.0,0.0,0.0,0.0,0.0,0.0,0.0,0.0,0.0,0.0,0.0,0.0,0.0,0.0,0.0,0.0,0.0,0.0,0.0,0.0,0.0,0.0,0.0,0.0,0.0,0.0,0.0,0.0,0.0,0.0,0.0,0.0,0.0,0.0,0.0,0.0,0.0,0.0,0.0,0.0,0.0,0.0,0.0,0.0,0.0,0.0,0.0,0.0,0.0,0.0,0.0,0.0,0.0,0.0,0.0,0.0,0.0,0.0,0.0,0.0,0.0,0.0,0.0,0.0,0.0,0.0,0.0,0.0,0.0,0.0,0.0,0.0,0.0,0.0,0.0,0.0,0.0,0.0,0.0,0.0,0.0,0.0,0.0,0.0,0.0,0.0,0.0,0.0,0.0,0.0,0.0,0.0,0.0,0.0,0.0,0.0,0.0,0.0,0.0,0.0,0.0,0.0,0.0,0.0,0.0,0.0,0.0,0.0,0.0,0.0,0.0,0.0,0.0,0.0,0.0,0.0,0.0,0.0,0.0,0.0,0.0,0.0,0.0,0.0,0.0,0.0,0.0,0.0,0.0,0.0,0.0,0.0,0.0,0.0,0.0,0.0,0.0,0.0,0.0,0.0,0.0,0.0,0.0,0.0,0.0,0.0,0.0,0.0,0.0,0.0,0.0,0.0,0.0,0.0,0.0,0.0,0.0,0.0,0.0,0.0,0.0,0.0,0.0,0.0,0.0,0.0,0.0,0.0,0.0,0.0,0.0,0.0,0.0,0.0,0.0,0.0,0.0,0.0,0.0,0.0,0.0,0.0,0.0,0.0,0.0,0.0,0.0,0.0,0.0,0.0,0.0,0.0,0.0,0.0,0.0,0.0,0.0,0.0,0.0,0.0,0.0,0.0,0.0,0.0,0.0,0.0,0.0,0.0,0.0,0.0,0.0,0.0,0.0,0.0,0.0,0.0,0.0,0.0,0.0,0.0,0.0,0.0,0.0,0.0,0.0,0.0,0.0,0.0,0.0,0.0,0.0,0.0,0.0,0.0,0.0,0.0,0.0,0.0,0.0,0.0,0.0,0.0,0.0,0.0,0.0,0.0,0.0,0.0,0.0,0.0,0.0,0.0,0.0,0.0,0.0,0.0,0.0,0.0,0.0,0.0,0.0,0.0,0.0,0.0,0.0,0.0,0.0,0.0,0.0,0.0,0.0,0.0,0.0,0.0,0.0,0.0,0.0,0.0,0.0,0.0,0.0,0.0,0.0,0.0,0.0,0.0,0.0,0.0,0.0,0.0,0.0,0.0,0.0,0.0,0.0,0.0,0.0,0.0,0.0,0.0,0.0,0.0,0.0,0.0,0.0,0.0,0.0,0.0,0.0,0.0,0.0,0.0,0.0,0.0,0.0,0.0,1.6433,0.0,0.0,0.0,0.0,0.0,0.0,0.0,0.0,0.0,0.0,0.0,0.0,0.0,0.0,0.0,0.0,0.0,0.0,0.0,0.0,0.0,0.0,0.0,0.0,0.0,0.0,0.0,0.0,0.0,0.0,0.0,0.0,0.0,0.0,0.0,0.0,0.0,0.0,0.0,0.0,0.0,0.0,0.0,0.0,0.0,0.0,0.0,0.0,0.0,0.0,0.0,0.0,0.0,0.0,0.0,0.0,0.0,0.0,0.0,0.0,0.0,0.0,0.0,0.0,0.0,0.0,0.0,0.0,0.0,0.0,0.0,0.0,0.0,0.0,0.0,0.0,0.0,0.0,0.0,0.0,0.0,0.0,0.0,0.0,0.0,0.0,0.0,0.0,0.0,0.0,0.0,0.0,0.0,0.0,0.0,0.0,0.0,0.0,0.0,0.0,0.0,0.0,0.0,0.0,0.0,0.0,0.0,0.0,0.0,0.0,1.5789,1.4833,1.6627,1.7142,1.6093,0.0,0.0,0.0,0.0,0.0,0.0,0.0,0.0,0.0,0.0,0.0,0.0,0.0,0.0,0.0,0.0,0.0,0.0,0.0,0.0,0.0,0.0,0.0,0.0,0.0,0.0,0.0,0.0,0.0,0.0,0.0,0.0,0.0,0.0,0.0,0.0,0.0,0.0,0.0,0.0,0.0,0.0,0.0,0.0,0.0,0.0,0.0,0.0,0.0,0.0,0.0,0.0,0.0,0.0,0.0,0.0,0.0,0.0,0.0,0.0,0.0,0.0,0.0,0.0,0.0,0.0,0.0,0.0,0.0,0.0,0.0,0.0,0.0,0.0,0.0,0.0,0.0,0.0,0.0,0.0,0.0,0.0,0.0,0.0,0.0,0.0,0.0,0.0,0.0,0.0,0.0,0.0,0.0,0.0,0.0,0.0,0.0,0.0,0.0,0.0,0.0,0.0,0.0,0.0,0.0,0.0,0.0,0.0,0.0,0.0,0.0,0.0,1.641,1.702,1.6244,0.0,0.0,0.0,0.0,0.0,0.0,0.0,0.0,0.0,0.0,0.0,0.0,0.0,0.0,0.0,0.0,0.0,0.0,0.0,0.0,0.0,0.0,0.0,0.0,0.0,0.0,0.0,0.0,0.0,0.0,0.0,0.0,0.0,0.0,0.0,0.0,0.0,0.0,0.0,0.0,0.0,0.0,0.0,0.0,0.0,0.0,0.0,0.0,0.0,0.0,0.0,0.0,0.0,0.0,0.0,0.0,0.0,0.0,0.0,0.0,0.0,0.0,0.0,0.0,0.0,0.0,0.0,0.0,0.0,0.0,0.0,0.0,0.0,0.0,0.0,0.0,0.0,0.0,0.0,0.0,0.0,0.0,0.0,0.0,0.0,0.0,0.0,0.0,0.0,0.0,0.0,0.0,0.0,0.0,0.0,0.0,0.0,0.0,0.0,0.0,0.0,0.0,0.0,0.0,0.0,0.0,0.0,0.0,0.0,0.0,1.4522,1.565,1.6378,0.0,1.7321,0.0,0.0,0.0,0.0,0.0,0.0,0.0,0.0,0.0,0.0,0.0,0.0,0.0,0.0,0.0,0.0,0.0,0.0,0.0,0.0,0.0,0.0,0.0,0.0,0.0,0.0,0.0,0.0,0.0,0.0,0.0,0.0,0.0,0.0,0.0,0.0,0.0,0.0,0.0,0.0,0.0,0.0,0.0,0.0,0.0,0.0,0.0,0.0,0.0,0.0,0.0,0.0,0.0,0.0,0.0,0.0,0.0,0.0,0.0,0.0,0.0,0.0,0.0,0.0,0.0,0.0,0.0,0.0,0.0,0.0,0.0,0.0,0.0,0.0,0.0,0.0,0.0,0.0,0.0,0.0,0.0,0.0,0.0,0.0,0.0,0.0,0.0,0.0,0.0,0.0,0.0,0.0,0.0,0.0,0.0,0.0,0.0,0.0,0.0,0.0,0.0,0.0,0.0,0.0,0.0,0.0,0.0,0.0,0.0,0.0,1.3942,1.4492,1.5052,1.5463,0.0,0.0,0.0,0.0,0.0,0.0,0.0,0.0,0.0,0.0,0.0,0.0,0.0,0.0,0.0,0.0,0.0,0.0,0.0,0.0,0.0,0.0,0.0,0.0,0.0,0.0,0.0,0.0,0.0,0.0,0.0,0.0,0.0,0.0,0.0,0.0,0.0,0.0,0.0,0.0,0.0,0.0,0.0,0.0,0.0,0.0,0.0,0.0,0.0,0.0,0.0,0.0,0.0,0.0,0.0,0.0,0.0,0.0,0.0,0.0,0.0,0.0,0.0,0.0,0.0,0.0,0.0,0.0,0.0,0.0,0.0,0.0,0.0,0.0,0.0,0.0,0.0,0.0,0.0,0.0,0.0,0.0,0.0,0.0,0.0,0.0,0.0,0.0,0.0,0.0,0.0,0.0,0.0,0.0,0.0,0.0,0.0,0.0,0.0,0.0,0.0,0.0,0.0,0.0,0.0,0.0,0.0,0.0,0.0,0.0,1.3333,1.3596,1.4051,1.4571,1.4817,1.4735,0.0,0.0,0.0,0.0,0.0,0.0,0.0,0.0,0.0,0.0,0.0,0.0,0.0,0.0,0.0,0.0,0.0,0.0,0.0,0.0,0.0,0.0,0.0,0.0,0.0,0.0,0.0,0.0,0.0,0.0,0.0,0.0,0.0,0.0,0.0,0.0,0.0,0.0,0.0,0.0,0.0,0.0,0.0,0.0,0.0,0.0,0.0,0.0,0.0,0.0,0.0,0.0,0.0,0.0,0.0,0.0,0.0,0.0,0.0,0.0,0.0,0.0,0.0,0.0,0.0,0.0,0.0,0.0,0.0,0.0,0.0,0.0,0.0,0.0,0.0,0.0,0.0,0.0,0.0,0.0,0.0,0.0,0.0,0.0,0.0,0.0,0.0,0.0,0.0,0.0,0.0,0.0,0.0,0.0,0.0,0.0,0.0,0.0,0.0,0.0,0.0,0.0,0.0,0.0,0.0,0.0,0.0,0.0,1.4396,1.3428,1.3595,1.5086,1.5716,1.5701,0.0,0.0,0.0,0.0,0.0,0.0,0.0,0.0,0.0,0.0,0.0,0.0,0.0,0.0,0.0,0.0,0.0,0.0,0.0,0.0,0.0,0.0,0.0,0.0,0.0,0.0,0.0,0.0,0.0,0.0,0.0,0.0,0.0,0.0,0.0,0.0,0.0,0.0,0.0,0.0,0.0,0.0,0.0,0.0,0.0,0.0,0.0,0.0,0.0,0.0,0.0,0.0,0.0,0.0,0.0,0.0,0.0,0.0,0.0,0.0,0.0,0.0,0.0,0.0,0.0,0.0,0.0,0.0,0.0,0.0,0.0,0.0,0.0,0.0,0.0,0.0,0.0,0.0,0.0,0.0,0.0,0.0,0.0,0.0,0.0,0.0,0.0,0.0,0.0,0.0,0.0,0.0,0.0,0.0,0.0,0.0,0.0,0.0,0.0,0.0,0.0,0.0,0.0,0.0,0.0,0.0,0.0,0.0,0.0,1.163,1.1832,1.2347,1.3227,1.3501,1.354,0.0,0.0,0.0,0.0,0.0,0.0,0.0,0.0,0.0,0.0,0.0,0.0,0.0,0.0,0.0,0.0,0.0,0.0,0.0,0.0,0.0,0.0,0.0,0.0,0.0,0.0,0.0,0.0,0.0,0.0,0.0,0.0,0.0,0.0,0.0,0.0,0.0,0.0,0.0,0.0,0.0,0.0,0.0,0.0,0.0,0.0,0.0,0.0,0.0,0.0,0.0,0.0,0.0,0.0,0.0,0.0,0.0,0.0,0.0,0.0,0.0,0.0,0.0,0.0,0.0,0.0,0.0,0.0,0.0,0.0,0.0,0.0,0.0,0.0,0.0,0.0,0.0,0.0,0.0,0.0,0.0,0.0,0.0,0.0,0.0,0.0,0.0,0.0,0.0,0.0,0.0,0.0,0.0,0.0,0.0,0.0,0.0,0.0,0.0,0.0,0.0,0.0,0.0,0.0,0.0,0.0,0.0,0.0,0.0,1.0157,0.0,1.1559,1.1599,1.2143,1.2151,0.0,0.0,0.0,0.0,0.0,0.0,0.0,0.0,0.0,0.0,0.0,0.0,0.0,0.0,0.0,0.0,0.0,0.0,0.0,0.0,0.0,0.0,0.0,0.0,0.0,0.0,0.0,0.0,0.0,0.0,0.0,0.0,0.0,0.0,0.0,0.0,0.0,0.0,0.0,0.0,0.0,0.0,0.0,0.0,0.0,0.0,0.0,0.0,0.0,0.0,0.0,0.0,0.0,0.0,0.0,0.0,0.0,0.0,0.0,0.0,0.0,0.0,0.0,0.0,0.0,0.0,0.0,0.0,0.0,0.0,0.0,0.0,0.0,0.0,0.0,0.0,0.0,0.0,0.0,0.0,0.0,0.0,0.0,0.0,0.0,0.0,0.0,0.0,0.0,0.0,0.0,0.0,0.0,0.0,0.0,0.0,0.0,0.0,0.0,0.0,0.0,0.0,0.0,0.0,0.0,0.0,0.0,0.0,0.8663,1.0365,1.1262,1.123,1.0533,1.1826,1.1714,0.0,0.0,0.0,0.0,0.0,0.0,0.0,0.0,0.0,0.0,0.0,0.0,0.0,0.0,0.0,0.0,0.0,0.0,0.0,0.0,0.0,0.0,0.0,0.0,0.0,0.0,0.0,0.0,0.0,0.0,0.0,0.0,0.0,0.0,0.0,0.0,0.0,0.0,0.0,0.0,0.0,0.0,0.0,0.0,0.0,0.0,0.0,0.0,0.0,0.0,0.0,0.0,0.0,0.0,0.0,0.0,0.0,0.0,0.0,0.0,0.0,0.0,0.0,0.0,0.0,0.0,0.0,0.0,0.0,0.0,0.0,0.0,0.0,0.0,0.0,0.0,0.0,0.0,0.0,0.0,0.0,0.0,0.0,0.0,0.0,0.0,0.0,0.0,0.0,0.0,0.0,0.0,0.0,0.0,0.0,0.0,0.0,0.0,0.0,0.0,0.0,0.0,0.0,0.0,0.0,0.0,0.0,0.0,0.0,0.7443,0.811,0.8322,0.8136,0.8903,0.9084,0.0,0.0,0.0,0.0,0.0,0.0,0.0,0.0,0.0,0.0,0.0,0.0,0.0,0.0,0.0,0.0,0.0,0.0,0.0,0.0,0.0,0.0,0.0,0.0,0.0,0.0,0.0,0.0,0.0,0.0,0.0,0.0,0.0,0.0,0.0,0.0,0.0,0.0,0.0,0.0,0.0,0.0,0.0,0.0,0.0,0.0,0.0,0.0,0.0,0.0,0.0,0.0,0.0,0.0,0.0,0.0,0.0,0.0,0.0,0.0,0.0,0.0,0.0,0.0,0.0,0.0,0.0,0.0,0.0,0.0,0.0,0.0,0.0,0.0,0.0,0.0,0.0,0.0,0.0,0.0,0.0,0.0,0.0,0.0,0.0,0.0,0.0,0.0,0.0,0.0,0.0,0.0,0.0,0.0,0.0,0.0,0.0,0.0,0.0,0.0,0.0,0.0,0.0,0.0,0.0,0.0,0.0,0.0,0.0,0.4384,0.5489,0.6058,0.6082,0.6726,0.7131,0.7214,0.0,0.0,0.0,0.0,0.0,0.0,0.0,0.0,0.0,0.0,0.0,0.0,0.0,0.0,0.0,0.0,0.0,0.0,0.0,0.0,0.0,0.0,0.0,0.0,0.0,0.0,0.0,0.0,0.0,0.0,0.0,0.0,0.0,0.0,0.0,0.0,0.0,0.0,0.0,0.0,0.0,0.0,0.0,0.0,0.0,0.0,0.0,0.0,0.0,0.0,0.0,0.0,0.0,0.0,0.0,0.0,0.0,0.0,0.0,0.0,0.0,0.0,0.0,0.0,0.0,0.0,0.0,0.0,0.0,0.0,0.0,0.0,0.0,0.0,0.0,0.0,0.0,0.0,0.0,0.0,0.0,0.0,0.0,0.0,0.0,0.0,0.0,0.0,0.0,0.0,0.0,0.0,0.0,0.0,0.0,0.0,0.0,0.0,0.0,0.0,0.0,0.0,0.0,0.0,0.0,0.0,0.0,0.0,0.1316,0.3203,0.4225,0.4364,0.5246,0.5701,0.0,0.0,0.0,0.0,0.0,0.0,0.0,0.0,0.0,0.0,0.0,0.0,0.0,0.0,0.0,0.0,0.0,0.0,0.0,0.0,0.0,0.0,0.0,0.0,0.0,0.0,0.0,0.0,0.0,0.0,0.0,0.0,0.0,0.0,0.0,0.0,0.0,0.0,0.0,0.0,0.0,0.0,0.0,0.0,0.0,0.0,0.0,0.0,0.0,0.0,0.0,0.0,0.0,0.0,0.0,0.0,0.0,0.0,0.0,0.0,0.0,0.0,0.0,0.0,0.0,0.0,0.0,0.0,0.0,0.0,0.0,0.0,0.0,0.0,0.0,0.0,0.0,0.0,0.0,0.0,0.0,0.0,0.0,0.0,0.0,0.0,0.0,0.0,0.0,0.0,0.0,0.0,0.0,0.0,0.0,0.0,0.0,0.0,0.0,0.0,0.0,0.0,0.0,0.0,0.0,0.0,0.0,0.0,0.0,-0.102,-0.1413,-0.0322,0.2382,0.3283,0.3918,0.0,0.0,0.0,0.0,0.0,0.0,0.0,0.0,0.0,0.0,0.0,0.0,0.0,0.0,0.0,0.0,0.0,0.0,0.0,0.0,0.0,0.0,0.0,0.0,0.0,0.0,0.0,0.0,0.0,0.0,0.0,0.0,0.0,0.0,0.0,0.0,0.0,0.0,0.0,0.0,0.0,0.0,0.0,0.0,0.0,0.0,0.0,0.0,0.0,0.0,0.0,0.0,0.0,0.0,0.0,0.0,0.0,0.0,0.0,0.0,0.0,0.0,0.0,0.0,0.0,0.0,0.0,0.0,0.0,0.0,0.0,0.0,0.0,0.0,0.0,0.0,0.0,0.0,0.0,0.0,0.0,0.0,0.0,0.0,0.0,0.0,0.0,0.0,0.0,0.0,0.0,0.0,0.0,0.0,0.0,0.0,0.0,0.0,0.0,0.0,0.0,0.0,0.0,0.0,0.0,0.0,0.0,0.0,-0.2999,-0.3186,-0.3956,-0.3233,-0.0833,0.051,0.1748,0.0,0.0,0.0,0.0,0.0,0.0,0.0,0.0,0.0,0.0,0.0,0.0,0.0,0.0,0.0,0.0,0.0,0.0,0.0,0.0,0.0,0.0,0.0,0.0,0.0,0.0,0.0,0.0,0.0,0.0,0.0,0.0,0.0,0.0,0.0,0.0,0.0,0.0,0.0,0.0,0.0,0.0,0.0,0.0,0.0,0.0,0.0,0.0,0.0,0.0,0.0,0.0,0.0,0.0,0.0,0.0,0.0,0.0,0.0,0.0,0.0,0.0,0.0,0.0,0.0,0.0,0.0,0.0,0.0,0.0,0.0,0.0,0.0,0.0,0.0,0.0,0.0,0.0,0.0,0.0,0.0,0.0,0.0,0.0,0.0,0.0,0.0,0.0,0.0,0.0,0.0,0.0,0.0,0.0,0.0,0.0,0.0,0.0,0.0,0.0,0.0,0.0,0.0,0.0,0.0,0.0,0.0,0.0,-0.4868,-0.534,-0.5427,-0.5282,-0.4738,-0.2481,-0.0463,0.0,0.0,0.0,0.0,0.0,0.0,0.0,0.0,0.0,0.0,0.0,0.0,0.0,0.0,0.0,0.0,0.0,0.0,0.0,0.0,0.0,0.0,0.0,0.0,0.0,0.0,0.0,0.0,0.0,0.0,0.0,0.0,0.0,0.0,0.0,0.0,0.0,0.0,0.0,0.0,0.0,0.0,0.0,0.0,0.0,0.0,0.0,0.0,0.0,0.0,0.0,0.0,0.0,0.0,0.0,0.0,0.0,0.0,0.0,0.0,0.0,0.0,0.0,0.0,0.0,0.0,0.0,0.0,0.0,0.0,0.0,0.0,0.0,0.0,0.0,0.0,0.0,0.0,0.0,0.0,0.0,0.0,0.0,0.0,0.0,0.0,0.0,0.0,0.0,0.0,0.0,0.0,0.0,0.0,0.0,0.0,0.0,0.0,0.0,0.0,0.0,0.0,0.0,0.0,0.0,0.0,0.0,0.0,-0.7017,-0.759,-0.8392,-0.8581,-0.8079,-0.4088,-0.1234,0.0,0.0,0.0,0.0,0.0,0.0,0.0,0.0,0.0,0.0,0.0,0.0,0.0,0.0,0.0,0.0,0.0,0.0,0.0,0.0,0.0,0.0,0.0,0.0,0.0,0.0,0.0,0.0,0.0,0.0,0.0,0.0,0.0,0.0,0.0,0.0,0.0,0.0,0.0,0.0,0.0,0.0,0.0,0.0,0.0,0.0,0.0,0.0,2.2111,0.0,0.0,0.0,0.0,0.0,0.0,0.0,0.0,0.0,0.0,0.0,0.0,0.0,0.0,0.0,0.0,0.0,0.0,0.0,0.0,0.0,0.0,0.0,0.0,0.0,0.0,0.0,0.0,0.0,0.0,0.0,0.0,0.0,0.0,0.0,0.0,0.0,0.0,0.0,0.0,0.0,0.0,0.0,0.0,0.0,0.0,0.0,0.0,0.0,0.0,0.0,0.0,0.0,0.0,0.0,0.0,0.0,0.0,0.0,-0.8349,-0.9032,-0.9815,-0.9997,-0.9492,-0.6478,-0.3861,0.0,0.0,0.0,0.0,0.0,0.0,0.0,0.0,0.0,0.0,0.0,0.0,0.0,0.0,0.0,0.0,0.0,0.0,0.0,0.0,0.0,0.0,0.0,0.0,0.0,0.0,0.0,0.0,0.0,0.0,0.0,0.0,0.0,0.0,0.0,0.0,0.0,0.0,0.0,0.0,0.0,0.0,0.0,0.0,0.0,0.0,0.0,0.0,0.0,0.0,0.0,0.0,0.0,0.0,0.0,0.0,0.0,0.0,0.0,0.0,0.0,0.0,0.0,0.0,0.0,0.0,0.0,0.0,0.0,0.0,0.0,0.0,0.0,0.0,0.0,0.0,0.0,0.0,0.0,0.0,0.0,0.0,0.0,0.0,0.0,0.0,0.0,0.0,0.0,0.0,0.0,0.0,0.0,0.0,0.0,0.0,0.0,0.0,0.0,0.0,0.0,0.0,0.0,0.0,0.0,0.0,0.0,-0.8898,-0.9421,-1.0293,-1.0779,-1.0873,-1.0458,-0.8976,-0.7019,-0.4637,0.0,0.0,0.0,0.0,0.0,0.0,0.0,0.0,0.0,0.0,0.0,0.0,0.0,0.0,0.0,0.0,0.0,0.0,0.0,0.0,0.0,0.0,0.0,0.0,0.0,0.0,0.0,0.0,0.0,0.0,0.0,0.0,0.0,0.0,0.0,0.0,0.0,0.0,1.8533,1.9143,0.0,0.0,0.0,0.0,0.0,0.0,0.0,0.0,2.1979,0.0,0.0,0.0,0.0,0.0,0.0,0.0,0.0,0.0,0.0,0.0,0.0,0.0,0.0,0.0,0.0,0.0,0.0,0.0,0.0,0.0,0.0,0.0,0.0,0.0,0.0,0.0,0.0,0.0,0.0,0.0,0.0,0.0,0.0,0.0,0.0,0.0,0.0,0.0,0.0,0.0,0.0,0.0,0.0,0.0,0.0,0.0,0.0,0.0,0.0,0.0,0.0,0.0,0.0,0.0,0.0,-0.9506,-1.0083,-1.0979,-1.2215,-1.2431,-1.2437,-1.2238,-1.0622,-0.9144,-0.7863,0.0,0.0,0.0,0.0,0.0,0.0,0.0,0.0,0.0,0.0,0.0,0.0,0.0,0.0,0.0,0.0,0.0,0.0,0.0,0.0,0.0,0.0,0.0,0.0,0.0,0.0,0.0,0.0,0.0,0.0,0.0,0.0,0.0,0.0,0.0,0.0,0.0,0.0,0.0,2.0421,2.1102,0.0,0.0,0.0,0.0,0.0,0.0,0.0,0.0,2.1645,0.0,0.0,0.0,0.0,0.0,0.0,0.0,0.0,0.0,0.0,0.0,0.0,0.0,0.0,0.0,0.0,0.0,0.0,0.0,0.0,0.0,0.0,0.0,0.0,0.0,0.0,0.0,0.0,0.0,0.0,0.0,0.0,0.0,0.0,0.0,0.0,0.0,0.0,0.0,0.0,0.0,0.0,0.0,0.0,0.0,0.0,0.0,0.0,0.0,0.0,0.0,0.0,0.0,0.0,0.0,-1.0087,-1.0703,-1.1433,-1.2323,-1.3114,-1.325,-1.2696,-1.1332,-1.0008,0.0,0.0,0.0,0.0,0.0,0.0,0.0,0.0,0.0,0.0,0.0,0.0,0.0,0.0,0.0,0.0,0.0,0.0,0.0,0.0,0.0,0.0,0.0,0.0,0.0,0.0,0.0,0.0,0.0,0.0,0.0,0.0,0.0,0.0,0.0,0.0,0.0,0.0,0.0,0.0,1.9621,2.0188,2.0421,0.0,0.0,0.0,0.0,0.0,0.0,2.1852,2.1825,0.0,0.0,0.0,0.0,0.0,0.0,0.0,0.0,0.0,0.0,0.0,0.0,0.0,0.0,0.0,0.0,0.0,0.0,0.0,0.0,0.0,0.0,0.0,0.0,0.0,0.0,0.0,0.0,0.0,0.0,0.0,0.0,0.0,0.0,0.0,0.0,0.0,0.0,0.0,0.0,0.0,0.0,0.0,0.0,0.0,0.0,0.0,0.0,0.0,0.0,0.0,0.0,0.0,0.0,0.0,-1.072,-1.1191,-1.1683,-1.2308,-1.3433,-1.3654,-1.284,-1.1755,-1.0579,0.0,0.0,0.0,0.0,0.0,0.0,0.0,0.0,0.0,0.0,0.0,0.0,0.0,0.0,0.0,0.0,0.0,0.0,0.0,0.0,0.0,0.0,0.0,0.0,0.0,0.0,0.0,0.0,0.0,0.0,0.0,0.0,0.0,0.0,0.0,0.0,0.0,0.0,0.0,0.0,0.0,1.9294,1.9998,2.0073,0.0,0.0,0.0,0.0,2.1783,2.2504,0.0,0.0,0.0,0.0,0.0,0.0,0.0,0.0,0.0,0.0,0.0,0.0,0.0,0.0,0.0,0.0,0.0,0.0,0.0,0.0,0.0,0.0,0.0,0.0,0.0,0.0,0.0,0.0,0.0,0.0,0.0,0.0,0.0,0.0,0.0,0.0,0.0,0.0,0.0,0.0,0.0,0.0,0.0,0.0,0.0,0.0,0.0,0.0,0.0,0.0,0.0,0.0,0.0,0.0,0.0,0.0,-1.1506,-1.1683,-1.2256,-1.3273,-1.3637,-1.3633,-1.3227,-1.2248,-1.1316,0.0,0.0,0.0,0.0,0.0,0.0,0.0,0.0,0.0,0.0,0.0,0.0,0.0,0.0,0.0,0.0,0.0,0.0,0.0,0.0,0.0,0.0,0.0,0.0,0.0,0.0,0.0,0.0,0.0,0.0,0.0,0.0,0.0,0.0,0.0,0.0,0.0,0.0,0.0,0.0,0.0,2.0231,1.9591,2.0533,2.1371,0.0,0.0,0.0,2.2667,2.4196,0.0,0.0,0.0,0.0,0.0,0.0,0.0,0.0,0.0,0.0,0.0,0.0,0.0,0.0,0.0,0.0,0.0,0.0,0.0,0.0,0.0,0.0,0.0,0.0,0.0,0.0,0.0,0.0,0.0,0.0,0.0,0.0,0.0,0.0,0.0,0.0,0.0,0.0,0.0,0.0,0.0,0.0,0.0,0.0,0.0,0.0,0.0,0.0,0.0,0.0,0.0,0.0,0.0,0.0,0.0,-1.0594,-1.1628,-1.1895,-1.2268,-1.2792,-1.3165,-1.3138,-1.2745,-1.1851,-1.0893,0.0,0.0,0.0,0.0,0.0,0.0,0.0,0.0,0.0,0.0,0.0,0.0,0.0,0.0,0.0,0.0,0.0,0.0,0.0,0.0,0.0,0.0,0.0,0.0,0.0,0.0,0.0,0.0,0.0,0.0,0.0,0.0,0.0,0.0,0.0,0.0,0.0,0.0,0.0,0.0,0.0,0.0,1.9299,2.0123,0.0,0.0,0.0,2.2628,2.2733,0.0,0.0,0.0,0.0,0.0,0.0,0.0,0.0,0.0,0.0,0.0,0.0,0.0,0.0,0.0,0.0,0.0,0.0,0.0,0.0,0.0,0.0,0.0,0.0,0.0,0.0,0.0,0.0,0.0,0.0,0.0,0.0,0.0,0.0,0.0,0.0,0.0,0.0,0.0,0.0,0.0,0.0,0.0,0.0,0.0,0.0,0.0,0.0,0.0,0.0,0.0,0.0,0.0,0.0,0.0,0.0,0.0,-1.156,-1.1778,-1.2002,-1.2173,-1.2586,-1.2628,-1.2181,-1.1464,0.0,0.0,0.0,0.0,0.0,0.0,0.0,0.0,0.0,0.0,0.0,0.0,0.0,0.0,0.0,0.0,0.0,0.0,0.0,0.0,0.0,0.0,0.0,0.0,0.0,0.0,0.0,0.8953,0.0,0.0,0.0,0.0,0.0,0.0,0.0,0.0,0.0,0.0,0.0,0.0,0.0,0.0,1.7583,1.8644,1.9489,2.0122,0.0,0.0,2.2376,2.2353,2.3194,2.3448,0.0,0.0,0.0,0.0,0.0,0.0,0.0,0.0,0.0,0.0,0.0,0.0,0.0,0.0,0.0,0.0,0.0,0.0,0.0,0.0,0.0,0.0,0.0,0.0,0.0,0.0,0.0,0.0,0.0,0.0,0.0,0.0,0.0,0.0,0.0,0.0,0.0,0.0,0.0,0.0,0.0,0.0,0.0,0.0,0.0,0.0,0.0,0.0,0.0,0.0,0.0,0.0,0.0,0.0,0.0,-1.1442,-1.124,-1.131,-1.1744,-1.2127,-1.2174,-1.1851,-1.1479,-1.0725,0.0,0.0,0.0,0.0,0.0,0.0,0.0,0.0,0.0,0.0,0.0,0.0,0.0,0.0,0.0,0.0,0.0,0.0,0.0,0.0,0.0,0.0,0.0,0.0,0.0,0.0,0.0,0.0,0.0,0.0,0.0,0.0,0.0,0.0,0.0,0.0,0.0,0.0,0.0,0.0,0.0,1.6598,1.7234,1.8711,1.986,0.0,0.0,2.2754,2.1652,2.3974,2.483,2.1613,0.0,0.0,0.0,0.0,0.0,0.0,0.0,0.0,0.0,0.0,0.0,0.0,0.0,0.0,0.0,0.0,0.0,0.0,0.0,0.0,0.0,0.0,0.0,0.0,0.0,0.0,0.0,0.0,0.0,0.0,0.0,0.0,0.0,0.0,0.0,0.0,0.0,0.0,0.0,0.0,0.0,0.0,0.0,0.0,0.0,0.0,0.0,0.0,0.0,0.0,0.0,0.0,0.0,-1.1157,-1.1507,-1.1485,-1.1531,-1.1655,-1.1954,-1.216,-1.223,-1.1918,-1.1185,0.0,0.0,0.0,0.0,0.0,0.0,0.0,0.0,0.0,0.0,0.0,0.0,0.0,0.0,0.0,0.0,0.0,0.0,0.0,0.0,0.0,0.0,0.0,0.0,0.0,0.0,0.0,0.0,0.7358,0.7482,0.7666,0.0,0.0,0.0,0.0,0.0,0.0,0.0,0.0,0.0,0.0,1.6105,1.6896,1.7952,0.0,0.0,2.078,2.1604,2.1282,2.2659,2.3167,2.1253,2.1763,0.0,0.0,0.0,0.0,0.0,0.0,0.0,0.0,0.0,0.0,0.0,0.0,0.0,0.0,0.0,0.0,0.0,0.0,0.0,0.0,0.0,0.0,0.0,0.0,0.0,0.0,0.0,0.0,0.0,0.0,0.0,0.0,0.0,0.0,0.0,0.0,0.0,0.0,0.0,0.0,0.0,0.0,0.0,0.0,0.0,0.0,0.0,0.0,0.0,0.0,0.0,0.0,-1.1495,-1.1612,-1.1826,-1.1908,-1.1799,-1.2091,-1.2352,-1.2563,-1.2305,-1.1683,0.0,0.0,0.0,0.0,0.0,0.0,0.0,0.0,0.0,0.0,0.0,0.0,0.0,0.0,0.0,0.0,0.0,0.0,0.0,0.0,0.0,0.0,0.0,0.0,0.0,0.0,0.0,0.0,0.6129,0.6264,0.6433,0.0,0.0,0.0,0.0,0.0,0.0,0.0,0.0,0.0,0.0,1.5118,1.6171,1.6966,1.7719,1.8452,1.9346,2.0058,2.0401,2.107,2.1252,2.0417,0.0,0.0,0.0,0.0,0.0,0.0,0.0,0.0,0.0,0.0,0.0,0.0,0.0,0.0,0.0,0.0,0.0,0.0,0.0,0.0,0.0,0.0,0.0,0.0,0.0,0.0,0.0,0.0,0.0,0.0,-1.5087,0.0,0.0,0.0,0.0,0.0,0.0,0.0,0.0,0.0,0.0,0.0,0.0,0.0,0.0,0.0,0.0,0.0,0.0,0.0,0.0,0.0,0.0,0.0,-1.1808,-1.2152,-1.2303,-1.2274,-1.2616,-1.2788,-1.2804,-1.2619,-1.2222,-1.1662,0.0,0.0,0.0,0.0,0.0,0.0,0.0,0.0,0.0,0.0,0.0,0.0,0.0,0.0,0.0,0.0,0.0,0.0,0.0,0.0,0.0,0.0,0.0,0.0,0.0,0.0,0.4586,0.4882,0.519,0.0,0.0,0.0,0.0,0.0,0.0,0.0,0.0,0.0,0.0,1.2416,1.3528,1.477,1.561,1.6476,1.7368,1.7825,1.8289,1.8883,1.9349,1.9467,0.0,0.0,0.0,0.0,0.0,0.0,0.0,0.0,0.0,0.0,0.0,0.0,0.0,0.0,0.0,0.0,0.0,0.0,0.0,0.0,0.0,0.0,0.0,0.0,0.0,0.0,0.0,-1.6922,-1.6645,0.0,0.0,0.0,0.0,0.0,0.0,0.0,0.0,0.0,0.0,0.0,-1.7804,-1.6846,0.0,0.0,0.0,0.0,0.0,0.0,0.0,0.0,0.0,0.0,0.0,0.0,-1.2087,-1.217,-1.2536,-1.267,-1.2522,-1.3027,-1.3347,-1.3339,-1.3336,-1.2779,-1.1516,0.0,0.0,0.0,0.0,0.0,0.0,0.0,0.0,0.0,0.0,0.0,0.0,0.0,0.0,0.0,0.0,0.0,0.0,0.0,0.0,0.0,0.0,0.0,0.0,0.0,0.3078,0.0,0.0,0.0,0.0,0.0,0.0,0.0,0.0,0.0,0.0,0.0,0.9581,1.027,1.1675,1.2928,1.3584,1.4615,1.5533,0.0,0.0,0.0,0.0,0.0,0.0,0.0,0.0,0.0,0.0,0.0,0.0,0.0,0.0,2.3736,2.2938,2.3515,2.4296,2.4975,0.0,0.0,0.0,0.0,0.0,0.0,0.0,0.0,0.0,0.0,0.0,0.0,0.0,0.0,0.0,0.0,-1.7905,0.0,0.0,0.0,0.0,0.0,0.0,0.0,0.0,-1.7626,-1.7718,-1.8162,-1.7262,-1.6722,0.0,-1.5996,-1.5211,0.0,0.0,0.0,0.0,0.0,0.0,0.0,0.0,-1.2383,-1.2431,-1.2868,-1.3114,-1.3127,-1.3485,-1.3732,-1.3856,-1.3953,-1.3257,-1.1776,-1.0418,-0.9475,0.0,0.0,0.0,0.0,0.0,0.0,0.0,0.0,0.0,0.0,0.0,0.0,0.0,0.0,0.0,0.0,0.0,0.0,0.0,0.0,0.0,0.0,0.0,0.1853,0.0,0.0,0.0,0.0,0.0,0.0,0.0,0.0,0.0,0.6823,0.7929,0.881,0.9437,1.0842,1.2049,1.2828,0.0,0.0,0.0,0.0,0.0,0.0,0.0,1.8459,1.8546,1.9019,1.964,2.0332,2.1459,2.2404,2.2831,0.0,0.0,2.3033,2.3896,2.4766,2.5178,2.5895,2.6529,2.6804,2.7064,2.7305,0.0,0.0,0.0,0.0,0.0,0.0,0.0,0.0,-1.9339,-1.9474,0.0,-1.8898,0.0,0.0,0.0,0.0,0.0,-1.7811,0.0,0.0,-1.7967,-1.7988,-1.7979,-1.7627,-1.716,-1.6621,-1.6368,-1.5757,-1.471,-1.3327,0.0,0.0,0.0,0.0,0.0,0.0,-1.2328,-1.2576,-1.3053,-1.3538,-1.3995,-1.3884,-1.3985,-1.4378,-1.4316,-1.3653,-1.2386,-1.1928,-1.0878,-0.8988,-0.8575,0.0,0.0,0.0,0.0,0.0,0.0,0.0,0.0,0.0,0.0,0.0,0.0,0.0,0.0,0.0,0.0,0.0,0.0,0.0,0.0,0.0741,0.0,0.0,0.0,0.0,0.0,0.0,0.0,0.0,0.0,0.0,0.599,0.6816,0.7729,0.8855,0.0,0.0,0.0,0.0,1.3964,1.5237,1.563,1.5982,1.6508,1.7072,1.7505,1.7573,0.0,0.0,1.9668,2.0348,2.1047,2.1854,2.2263,2.2889,2.456,2.485,2.5313,2.6254,2.6434,2.6653,2.7267,2.7391,2.7633,-2.4908,0.0,0.0,0.0,0.0,-2.2141,-2.197,-2.1845,-2.1448,-2.107,-2.0707,-2.0429,0.0,0.0,0.0,0.0,0.0,0.0,-1.7837,-1.7647,-1.7739,-1.7815,-1.7815,-1.727,-1.6875,-1.6669,-1.6325,-1.5869,-1.5258,-1.4227,-1.3586,-1.3212,0.0,0.0,0.0,0.0,-1.2175,-1.2394,-1.2732,-1.2961,-1.3024,-1.3688,-1.4114,-1.4321,-1.4205,-1.3679,-1.2696,-1.2195,-1.1423,-1.0296,-0.9373,0.0,0.0,0.0,0.0,0.0,0.0,0.0,0.0,0.0,0.0,0.0,0.0,0.0,0.0,0.0,0.0,0.0,0.0,0.0,-0.0346,0.0317,0.0679,0.0,0.0,0.0,0.0,0.0,0.0,0.0,0.0,0.0,0.5631,0.6603,0.7575,0.0,0.0,1.0812,1.162,1.2746,1.3674,1.4217,0.0,0.0,0.0,1.6638,1.7132,1.793,1.8571,1.9239,2.0143,2.0824,2.1486,2.2142,2.2572,2.3088,2.3815,2.4455,2.5039,2.5903,2.6368,2.6659,2.6892,2.7464,2.8053,-2.6316,-2.5378,-2.4469,-2.3922,-2.3649,-2.3395,-2.3037,-2.2608,-2.2518,-2.2248,-2.1845,-2.1445,-2.0774,-1.9899,-1.9377,0.0,0.0,0.0,-1.825,-1.8214,-1.7861,-1.7822,-1.7915,-1.7196,-1.6638,-1.642,-1.6129,-1.57,-1.5141,-1.4411,-1.3752,-1.3201,0.0,0.0,-1.198,-1.1869,-1.1931,-1.2198,-1.2259,-1.2524,-1.2997,-1.3783,-1.4205,-1.423,-1.4206,-1.3888,-1.3208,-1.2457,-1.1758,-1.112,-0.9873,-0.898,0.0,0.0,0.0,0.0,0.0,0.0,0.0,0.0,0.0,0.0,0.0,-0.3961,0.0,0.0,0.0,0.0,-0.2141,-0.1659,-0.0852,-0.0253,0.0,0.0,0.0,0.0,0.0,0.0,0.0,0.2461,0.3555,0.4502,0.5071,0.6325,0.745,0.8174,0.9344,1.0395,1.118,0.0,1.3382,1.3754,1.4361,1.5026,1.5754,1.628,1.6994,1.81,1.8522,1.9088,2.0078,2.0529,2.1006,2.1776,2.2161,2.2542,2.3189,2.3675,2.4284,2.5298,2.599,2.6383,2.6499,2.7192,2.7882,-2.7092,-2.6617,-2.5419,-2.4596,-2.4089,-2.4274,-2.3753,-2.2801,-2.3032,-2.3217,-2.3225,-2.2171,-2.1808,-2.1884,-2.0713,0.0,-1.9462,-1.8905,-1.8804,-1.9089,-1.8127,-1.7857,-1.8081,-1.7158,-1.6407,-1.5871,-1.5718,-1.5265,-1.4533,-1.3991,-1.3515,-1.3047,-1.2376,-1.1873,-1.1512,-1.1467,-1.1656,-1.1977,-1.1677,-1.2193,-1.3549,-1.4052,-1.4289,-1.4164,-1.4305,-1.4187,-1.3717,-1.2692,-1.1949,-1.1491,-1.0096,-0.9055,-0.8522,0.0,0.0,0.0,0.0,0.0,0.0,0.0,0.0,0.0,0.0,0.0,0.0,0.0,0.0,0.0,-0.1938,0.0,-0.1236,-0.084,0.0,0.0,0.0,0.0797,0.0607,0.1509,0.2,0.1689,0.0,0.0,0.446,0.0,0.7373,0.8025,0.8965,0.9938,1.0999,1.2114,1.3039,1.3593,1.4194,1.4705,1.5236,1.6105,1.7088,1.8022,1.811,1.8503,1.9544,1.9748,2.0056,2.1162,2.1332,2.1673,2.2707,2.2844,2.3155,2.4648,2.5414,2.5894,2.6079,2.6631,2.7394,-2.7944,-2.7634,-2.6965,-2.6271,-2.5655,-2.5721,-2.5467,-2.5088,-2.5137,-2.4807,-2.4146,-2.3536,-2.2379,-2.0833,-2.0057,-1.9277,-1.8443,-1.8317,-1.8032,-1.7703,-1.755,-1.7296,-1.6902,-1.6234,-1.5558,-1.495,-1.4551,-1.4169,-1.3746,-1.3378,-1.3003,-1.2619,-1.2028,-1.1596,-1.1337,-1.1298,-1.1233,-1.11,-1.1586,-1.2351,-1.3466,-1.3635,-1.3968,-1.4457,-1.451,-1.408,-1.3065,-1.2631,-1.1844,-1.0669,-0.9727,-0.8968,-0.8456,-0.7904,0.0,0.0,0.0,0.0,0.0,0.0,0.0,0.0,0.0,-0.4154,-0.4095,0.0,-0.3187,0.0,-0.217,-0.1593,-0.1166,-0.0816,0.0,0.0,0.0272,0.0467,0.0584,0.1135,0.1649,0.2,0.3175,0.4226,0.4999,0.6051,0.7061,0.7987,0.8813,0.9863,1.1149,1.1818,1.2444,1.3099,1.3761,1.4458,1.5213,1.6508,1.7491,1.7774,1.793,1.8296,1.9224,1.9608,2.0024,2.091,2.1363,2.1825,2.2571,2.2707,2.3003,2.3895,2.4718,2.5296,2.5376,2.636,2.7354,-2.7775,-2.7527,-2.6982,-2.6532,-2.6138,-2.6299,-2.6208,-2.5885,-2.5694,-2.5057,-2.4155,-2.3368,-2.2168,-2.0702,-2.0241,-1.9608,-1.8839,-1.8201,-1.792,-1.7931,-1.7245,-1.6871,-1.6669,-1.5845,-1.5212,-1.4849,-1.4437,-1.4101,-1.3815,-1.3418,-1.3004,-1.2547,-1.1792,-1.1295,-1.1073,-1.1003,-1.0936,-1.0973,-1.1565,-1.2198,-1.2816,-1.32,-1.3686,-1.4201,-1.4019,-1.3555,-1.2731,-1.2094,-1.1263,-1.023,-0.9513,-0.8948,-0.8481,-0.7948,-0.7449,0.0,0.0,0.0,0.0,0.0,0.0,0.0,0.0,0.0,0.0,0.0,-0.3305,0.0,-0.2401,-0.1767,-0.1242,-0.1031,-0.0658,-0.0078,0.0275,0.0471,0.0589,0.1178,0.1688,0.2038,0.3327,0.4421,0.5115,0.6167,0.7142,0.7876,0.8518,0.9415,1.0732,1.1484,1.2128,1.2827,1.3386,1.4136,1.5112,1.6444,1.7432,1.7662,1.7697,1.8021,1.9013,1.9257,1.9611,2.0416,2.0816,2.1173,2.1875,2.204,2.2259,2.2962,2.3713,2.4422,2.5013,2.6061,2.6989,-2.7233,-2.6984,-2.6347,-2.6091,-2.6137,-2.6382,-2.6208,-2.5786,-2.5447,-2.4691,-2.364,-2.2601,-2.1625,-2.0869,-2.0657,-2.0231,-1.952,-1.8318,-1.8033,-1.8509,-1.7056,-1.655,-1.6829,-1.5718,-1.5164,-1.5112,-1.4722,-1.4366,-1.4005,-1.3528,-1.3019,-1.2465,-1.1602,-1.111,-1.0898,-1.0764,-1.0885,-1.1234,-1.1577,-1.1857,-1.2073,-1.278,-1.3276,-1.3548,-1.314,-1.2663,-1.2263,-1.1243,-1.0395,-0.9802,-0.9236,-0.8777,-0.8376,-0.7947,-0.7716,0.0,-0.7388,0.0,0.0,0.0,0.0,0.0,0.0,0.0,0.0,-0.3723,-0.3211,-0.2941,-0.2569,-0.2023,-0.1364,-0.1294,-0.0943,-0.0118,0.0354,0.0629,0.0668,0.1412,0.1959,0.1998,0.356,0.473,0.5118,0.6244,0.7219,0.7723,0.8144,0.8894,1.0143,1.1074,1.1842,1.2705,1.3192,1.4025,1.5103,1.6198,1.7044,1.7406,1.7528,1.7795,1.8847,1.8913,1.9079,1.991,2.0158,2.039,2.1074,2.1236,2.1446,2.2145,2.2807,2.355,2.464,2.5638,2.6533,-2.7535,-2.739,-2.6458,-2.6222,-2.6413,-2.601,-2.5619,-2.528,-2.5645,-2.4822,-2.3194,-2.2444,-2.159,-2.0725,-2.0539,-1.9719,-1.8505,-1.8046,-1.7515,-1.6843,-1.6549,-1.636,-1.6245,-1.5474,-1.4984,-1.4684,-1.4043,-1.35,-1.3037,-1.2543,-1.2129,-1.1867,-1.1395,-1.1308,-1.1525,0.0,0.0,0.0,-1.1445,-1.1765,-1.2389,-1.2317,-1.2342,-1.2557,-1.2019,0.0,-1.0377,-1.0119,-0.9538,-0.8603,-0.8337,0.0,0.0,0.0,0.0,0.0,0.0,0.0,0.0,0.0,0.0,0.0,-0.5266,-0.4903,-0.4624,-0.3672,-0.2921,-0.2571,-0.2493,-0.212,-0.1298,-0.1282,-0.0943,-0.0118,0.0354,0.0668,0.0864,0.1608,0.2273,0.2627,0.3567,0.4543,0.5354,0.6012,0.6745,0.7646,0.7991,0.8599,0.9614,1.047,1.1329,1.2349,1.3389,1.4386,1.5091,1.6131,1.6787,1.6861,1.7442,1.7951,1.8306,1.8779,1.9194,1.9853,1.9921,2.0194,2.1031,2.1201,2.1411,2.2049,2.253,2.3022,2.3832,2.4966,2.5979,-2.7278,0.0,-2.5994,-2.5616,0.0,-2.5109,-2.453,-2.3952,-2.4448,-2.3613,-2.1934,-2.1536,-2.0962,-2.0211,-1.9859,-1.9149,-1.8142,-1.7546,-1.6941,-1.6358,-1.6031,-1.5831,-1.5756,-1.5159,-1.483,-1.4626,-1.4179,-1.3587,-1.2978,-1.2661,-1.2252,-1.1741,-1.1445,-1.1377,-1.1519,-1.1147,-1.1041,-1.1209,-1.087,-1.1007,-1.163,-1.1443,-1.14,-1.1553,0.0,0.0,0.0,0.0,0.0,0.0,0.0,0.0,0.0,0.0,0.0,-0.6988,-0.6989,-0.6859,-0.6385,-0.6325,-0.6176,-0.5922,-0.5317,-0.4803,-0.4491,-0.3526,-0.2889,-0.2766,-0.2581,-0.212,-0.135,-0.1171,-0.0707,0.0196,0.0668,0.1022,0.1296,0.2002,0.2549,0.2863,0.38,0.4849,0.5506,0.6163,0.6822,0.7565,0.8025,0.8447,0.911,1.0103,1.1199,1.2387,1.3494,1.4347,1.4811,1.5566,1.6287,1.6416,1.6698,1.7168,1.7865,1.8231,1.8688,1.9423,1.9802,2.0248,2.086,2.119,2.1506,2.2061,2.2402,2.2708,2.3245,2.4262,2.5364,-2.6514,-2.6418,-2.5167,-2.4686,-2.4735,-2.4183,-2.3462,-2.258,0.0,0.0,0.0,-2.0609,-2.0219,-1.9669,-1.9095,-1.8511,-1.7893,-1.7001,-1.639,-1.6109,-1.5632,-1.5389,-1.5389,-1.4851,-1.4615,-1.4573,-1.431,-1.3797,-1.3028,-1.2921,-1.2439,-1.164,-1.1416,-1.1357,-1.1279,-1.0787,-1.0619,-1.0795,-1.0288,-1.0233,-1.0682,-1.05,-1.0423,-1.0521,-1.0032,-0.9434,-0.8758,-0.841,-0.809,-0.7841,-0.8085,-0.8089,-0.7735,-0.7702,-0.7512,-0.7117,-0.6951,-0.6836,-0.678,-0.6409,-0.6103,-0.5986,-0.5126,-0.439,-0.4002,-0.3324,-0.2967,-0.3013,-0.2658,-0.2111,-0.1372,-0.1061,-0.0511,0.0511,0.1022,0.1375,0.1649,0.2316,0.2785,0.2981,0.4031,0.5079,0.5544,0.6244,0.6976,0.7442,0.7949,0.8505,0.8993,1.0125,1.134,1.2413,1.3409,1.4098,1.4335,1.4916,1.551,1.5915,1.5972,1.6353,1.7268,1.7763,1.8278,1.9248,1.9726,2.0204,2.0764,2.1146,2.1557,2.2092,2.234,2.2543,2.2885,2.3654,2.461,-2.4982,-2.5099,-2.4026,-2.3845,-2.4183,-2.3696,-2.2985,-2.2083,-2.1669,-2.1202,-2.0654,-2.0201,-1.9857,-1.9579,-1.8762,-1.7971,-1.7239,-1.6607,-1.6057,0.0,-1.5445,-1.5389,-1.5374,-1.468,-1.4267,-1.4076,-1.3608,-1.3002,-1.2408,-1.2306,-1.1788,-1.0928,-1.1064,-1.1134,-1.0887,-1.0743,-1.0539,-1.0242,-1.0054,-1.012,-1.0355,-0.9904,-0.9602,-0.9495,-0.8901,-0.8299,-0.7743,-0.8089,-0.8121,-0.7816,-0.7936,-0.7828,-0.7304,-0.7309,-0.7113,-0.6708,-0.6643,-0.658,-0.6409,-0.5951,-0.5401,-0.4735,-0.4382,-0.3869,-0.3085,-0.3037,-0.2922,-0.2627,-0.25,-0.215,-0.1414,-0.1022,-0.0432,0.0511,0.1022,0.1452,0.1803,0.2393,0.2863,0.3061,0.3878,0.481,0.5506,0.6047,0.6668,0.7326,0.7736,0.8309,0.9504,1.0638,1.1531,1.2294,1.3186,1.3761,1.3971,1.4498,1.4923,1.4993,1.585,1.6493,1.7042,1.779,1.8545,1.9408,1.9638,2.0031,2.0711,2.1063,2.1486,2.2061,2.2402,2.2708,2.2878,2.3324,2.3909,-2.4362,-2.4362,-2.3628,-2.3479,-2.3628,-2.2987,-2.2329,-2.1732,-2.1183,-2.0657,-2.0146,-1.9898,-1.9483,-1.8966,-1.8387,-1.7668,-1.694,-1.634,-1.5768,-1.5255,-1.5127,-1.5007,-1.4865,-1.4381,-1.4063,-1.382,-1.3336,-1.2808,-1.225,-1.1752,-1.1212,-1.0737,-1.087,-1.0917,-1.0789,-1.045,-1.0111,-0.9841,-0.9712,-0.9754,-0.9864,-0.9471,-0.9149,-0.897,-0.8554,-0.8128,-0.7679,-0.7899,-0.7971,-0.7804,-0.7856,-0.7715,-0.7381,-0.7284,-0.6954,-0.6498,-0.6451,-0.6296,-0.5951,-0.5404,-0.474,-0.3954,-0.3682,-0.3292,-0.2666,-0.2707,-0.2707,-0.251,-0.2234,-0.1765,-0.1139,-0.0589,0.0079,0.0864,0.1375,0.1728,0.204,0.251,0.2863,0.3139,0.3958,0.4774,0.5356,0.6089,0.6749,0.7288,0.7571,0.828,0.9508,1.0078,1.0867,1.2038,1.2753,1.3205,1.3573,1.3844,1.422,1.4623,1.5428,1.6171,1.6764,1.7616,1.837,1.9056,1.9473,1.9966,2.0571,2.1019,2.1506,2.203,2.2475,2.2708,2.2909,2.321,2.3833,-2.3777,-2.3737,-2.3338,-2.3129,-2.3088,-2.2325,-2.182,-2.1479,-2.0874,-2.0191,-1.9494,-1.9486,-1.9114,-1.8411,-1.7933,-1.7363,-1.6692,-1.6097,-1.5562,-1.5109,-1.4982,-1.4767,-1.4465,-1.4149,-1.3877,-1.3507,-1.3064,-1.2541,-1.201,-1.1336,-1.0877,-1.0663,-1.0499,-1.0418,-1.0432,-1.0003,-0.9647,-0.9406,-0.932,-0.934,-0.9379,-0.9083,-0.8855,-0.8712,-0.8525,-0.8264,-0.7892,-0.796,-0.796,-0.787,-0.7878,-0.7718,-0.7476,-0.718,-0.6795,-0.6222,-0.6103,-0.5831,-0.5285,-0.4857,-0.419,-0.3331,-0.3059,-0.2785,-0.2431,-0.2275,-0.2276,-0.2275,-0.1803,-0.1256,-0.0786,-0.0157,0.055,0.1218,0.1651,0.1964,0.2196,0.2588,0.2973,0.3237,0.408,0.4889,0.5425,0.6204,0.6836,0.7159,0.7488,0.8184,0.9253,0.9477,1.0195,1.1461,1.2143,1.2438,1.3077,1.3243,1.3606,1.4487,1.511,1.5903,1.673,1.7481,1.816,1.8803,1.9341,1.9868,2.0313,2.086,2.1474,2.2061,2.2463,2.2751,2.2939,2.3318,2.3999,-2.2745,-2.2745,-2.2695,-2.2653,-2.2594,-2.1962,-2.1523,-2.1204,-2.0435,-1.9569,-1.8741,-1.8861,-1.8659,-1.8064,-1.7363,-1.6843,-1.6459,-1.589,-1.5462,-1.5186,-1.5195,-1.4892,-1.4358,-1.3923,-1.35,-1.3042,-1.2525,-1.1958,-1.1384,-1.1206,-1.0824,-1.0212,-0.9516,-0.9273,-0.9405,-0.9372,-0.9173,-0.8789,-0.8931,-0.9058,-0.9009,-0.8786,-0.8673,-0.8685,-0.8628,-0.8433,-0.8091,-0.8452,-0.8422,-0.8098,-0.8041,-0.7774,-0.7253,-0.6872,-0.637,-0.5712,-0.5479,-0.5049,-0.435,-0.419,-0.3759,-0.2981,-0.2668,-0.2392,-0.1999,-0.1649,-0.157,-0.1726,-0.1334,-0.0785,-0.0393,0.0079,0.0589,0.1218,0.1651,0.1964,0.2196,0.2707,0.3154,0.3419,0.4185,0.5,0.5526,0.6154,0.6668,0.7112,0.7397,0.7971,0.903,0.9259,0.9722,1.0794,1.1237,1.1628,1.2222,1.2647,1.3316,1.4268,1.5164,1.6011,1.6911,1.7709,1.8432,1.8813,1.9208,1.9638,2.0205,2.0722,2.1265,2.203,2.2463,2.28,2.3078,2.348,2.4144,-2.2603,-2.2603,-2.2603,-2.2392,-2.1937,-2.0872,-2.0466,-2.04,-1.9281,-1.8438,-1.7876,-1.7473,-1.7357,-1.7362,-1.687,-1.6493,-1.6243,-1.5677,-1.5304,-1.5068,-1.4748,-1.4345,-1.3866,-1.3375,-1.2999,-1.2593,-1.1981,-1.145,-1.1039,-1.0523,-0.9949,-0.9378,-0.907,-0.8995,-0.8927,-0.8822,-0.8632,-0.8369,-0.8412,-0.8481,-0.8473,-0.8607,-0.8676,-0.866,-0.8456,-0.8237,-0.8097,-0.7947,-0.7729,-0.7529,-0.7197,-0.6858,-0.6545,-0.6207,-0.5787,-0.5337,-0.4969,-0.4501,-0.396,-0.3684,-0.3294,-0.2824,-0.2392,-0.2038,-0.1882,-0.1295,-0.0943,-0.106,-0.0746,-0.0393,0.0,0.0393,0.0825,0.1258,0.1651,0.1925,0.2003,0.244,0.2878,0.3386,0.3964,0.4603,0.5271,0.6046,0.6629,0.7027,0.7327,0.7912,0.8884,0.9014,0.9587,1.0729,1.1056,1.131,1.1964,1.2417,1.321,1.4353,1.5525,1.6524,1.7159,1.7899,1.8539,1.8875,1.9108,1.9473,2.0118,2.0646,2.1158,2.1968,2.2635,2.3017,2.3318,2.3569,2.3977,-2.2342,-2.2325,-2.208,-2.167,-2.1128,-1.9935,-1.947,-1.9518,-1.8308,-1.7508,-1.7015,-1.637,-1.612,-1.6211,-1.6192,-1.6001,-1.5654,-1.5364,-1.5001,-1.4681,-1.4282,-1.3857,-1.3356,-1.2837,-1.2496,-1.2208,-1.1472,-1.0933,-1.0558,-0.9923,-0.9268,-0.8854,-0.8849,-0.8813,-0.8627,-0.8403,-0.825,-0.8102,-0.8102,-0.8063,-0.8097,-0.8284,-0.847,-0.8499,-0.8154,-0.7933,-0.7933,-0.7397,-0.7098,-0.7035,-0.6534,-0.6238,-0.6029,-0.5774,-0.5357,-0.4858,-0.4416,-0.3956,-0.3567,-0.3059,-0.2707,-0.251,-0.1922,-0.1529,-0.1412,-0.0863,-0.0432,-0.0354,-0.0157,0.0079,0.0354,0.0746,0.1097,0.1364,0.1673,0.1865,0.1925,0.2308,0.2855,0.3374,0.3902,0.4399,0.5139,0.5962,0.654,0.6838,0.7208,0.7801,0.8676,0.9004,0.9525,1.0746,1.0914,1.1296,1.1988,1.2635,1.3439,1.4555,1.5831,1.6806,1.7357,1.8022,1.8482,1.8674,1.8985,1.944,2.0118,2.0635,2.1221,2.208,2.2726,2.3168,2.342,2.3599,2.3789,-2.1725,-2.1608,-2.0845,-2.0325,-1.9957,-1.9357,-1.8965,-1.8705,-1.778,-1.693,-1.6214,-1.589,-1.5354,-1.4697,-1.511,-1.5098,-1.474,-1.4898,-1.4558,-1.3956,-1.3871,-1.3582,-1.3104,-1.2456,-1.2071,-1.191,-1.11,-1.0333,-0.974,-0.9428,-0.9198,-0.8993,-0.8799,-0.8608,-0.843,-0.8205,-0.8111,-0.8107,-0.8038,-0.7987,-0.7834,-0.7829,-0.7953,-0.8038,-0.7744,-0.7536,-0.7464,-0.7119,-0.6811,-0.6623,-0.6514,-0.6321,-0.5925,-0.5702,-0.5118,-0.4258,-0.3798,-0.3331,-0.2859,-0.235,-0.1999,-0.1843,-0.1216,-0.0707,-0.0746,-0.0352,0.0,0.0236,0.0392,0.0549,0.0667,0.1018,0.1322,0.1491,0.171,0.1878,0.1989,0.2653,0.3211,0.357,0.41,0.4706,0.5444,0.5909,0.6298,0.6637,0.7048,0.7695,0.8654,0.9195,0.976,1.0414,1.0979,1.1491,1.2323,1.2916,1.3795,1.4858,1.5907,1.6973,1.7465,1.7915,1.8212,1.8506,1.8774,1.9297,2.0074,2.0784,2.1443,2.2142,2.2726,2.3138,2.342,2.3713,2.3861,-2.0748,-2.0457,-1.9624,-1.9279,-1.9269,-1.8381,-1.7827,-1.7545,-1.6371,-1.5522,-1.4883,-1.4302,-1.3818,-1.3379,-1.3705,-1.411,-1.436,-1.4333,-1.4054,-1.3622,-1.3204,-1.282,-1.2444,-1.1722,-1.1387,-1.1279,-1.0714,-1.0051,-0.9443,-0.91,-0.8872,-0.8783,-0.8568,-0.8391,-0.8289,-0.8071,-0.7949,-0.7988,-0.7692,-0.7537,-0.7521,-0.7411,-0.7375,-0.7454,-0.7351,-0.7253,-0.7138,-0.6556,-0.6247,-0.6135,-0.5789,-0.5517,-0.5357,-0.4971,-0.448,-0.3912,-0.3461,-0.2999,-0.2424,-0.206,-0.1803,-0.1491,-0.0942,-0.0589,-0.0549,-0.0233,0.0116,0.0429,0.0657,0.0888,0.1171,0.1357,0.154,0.1737,0.1848,0.1967,0.2159,0.2654,0.321,0.3668,0.4444,0.5186,0.5513,0.6038,0.6456,0.663,0.7186,0.7942,0.871,0.9346,0.9973,1.0763,1.1551,1.2172,1.259,1.3102,1.3807,1.4868,1.5904,1.6716,1.7329,1.7803,1.8144,1.8405,1.864,1.9297,2.015,2.1158,2.1769,2.2266,2.2848,2.306,2.333,2.3582,2.3802,-1.9569,-1.8959,-1.8401,-1.8067,-1.7904,-1.7089,-1.6574,-1.6257,-1.5351,-1.4611,-1.4078,-1.3554,-1.3179,-1.2893,-1.3031,-1.3332,-1.3742,-1.3501,-1.3285,-1.2982,-1.2394,-1.2024,-1.1807,-1.11,-1.0825,-1.079,-1.0328,-0.9785,-0.931,-0.8949,-0.8773,-0.8702,-0.8421,-0.8271,-0.8164,-0.7979,-0.7866,-0.7829,-0.7541,-0.7366,-0.7295,-0.7152,-0.6965,-0.6871,-0.6853,-0.6794,-0.6674,-0.6041,-0.5628,-0.5476,-0.5168,-0.5016,-0.4898,-0.4472,-0.4018,-0.3641,-0.3147,-0.265,-0.2075,-0.1671,-0.1373,-0.11,-0.0668,-0.0393,-0.0392,-0.0155,0.0155,0.0546,0.0892,0.1198,0.1591,0.1793,0.1885,0.1946,0.1973,0.2078,0.2189,0.2691,0.3256,0.3896,0.4729,0.5321,0.5653,0.6153,0.651,0.6678,0.7387,0.809,0.8803,0.9554,1.0212,1.0966,1.1927,1.2361,1.2642,1.2963,1.3863,1.4942,1.5721,1.6507,1.7235,1.7691,1.8076,1.8303,1.8798,1.9462,2.0345,2.1423,2.2061,2.2525,2.2739,2.2909,2.318,2.345,2.373,-1.8289,-1.7251,-1.7092,-1.6635,-1.6055,-1.5696,-1.5337,-1.5108,-1.4762,-1.4256,-1.3761,-1.3752,-1.3349,-1.3104,-1.2984,-1.2922,-1.2734,-1.2518,-1.2249,-1.1908,-1.1623,-1.1458,-1.1375,-1.0726,-1.0441,-1.0617,-0.9981,-0.9517,-0.9278,-0.9055,-0.8882,-0.8686,-0.8428,-0.8218,-0.8032,-0.7954,-0.7859,-0.7755,-0.7634,-0.742,-0.7067,-0.6971,-0.6747,-0.6361,-0.6281,-0.6268,-0.6234,-0.5662,-0.5165,-0.4857,-0.4935,-0.4898,-0.4649,-0.4219,-0.3876,-0.3389,-0.2818,-0.2313,-0.1837,-0.1135,-0.0746,-0.0589,-0.0236,0.0,0.0,0.0,0.0234,0.0667,0.1095,0.1488,0.1944,0.2308,0.2435,0.2081,0.2081,0.2169,0.2418,0.2772,0.3368,0.4193,0.4979,0.5444,0.5794,0.6245,0.6617,0.6965,0.7539,0.8219,0.8954,0.9803,1.0441,1.0932,1.1783,1.2486,1.2615,1.284,1.3935,1.4939,1.5631,1.635,1.7123,1.7725,1.8042,1.8337,1.9088,1.9758,2.0518,2.1517,2.2061,2.2463,2.2616,2.2787,2.306,2.336,2.3717,-1.6808,-1.6218,-1.6006,-1.5817,-1.5486,-1.5289,-1.4908,-1.4409,-1.3932,-1.3362,-1.2859,-1.2656,-1.2409,-1.2273,-1.2447,-1.2396,-1.1997,-1.1775,-1.1703,-1.1804,-1.1486,-1.1237,-1.0968,-1.0521,-1.0259,-1.0153,-0.9781,-0.9494,-0.927,-0.9043,-0.8745,-0.8388,-0.8282,-0.8127,-0.7935,-0.78,-0.7743,-0.7791,-0.743,-0.7201,-0.7165,-0.6791,-0.6594,-0.6637,-0.6223,-0.6034,-0.6119,-0.5598,-0.5212,-0.4898,-0.482,-0.4584,-0.4075,-0.353,-0.2997,-0.2533,-0.1984,-0.144,-0.1,-0.0739,-0.0471,0.0,0.0,0.0,0.0,0.0271,0.058,0.1054,0.1588,0.2077,0.2453,0.2753,0.2793,0.2569,0.2525,0.2554,0.2775,0.3375,0.404,0.47,0.5361,0.5855,0.6205,0.664,0.7021,0.7265,0.7811,0.8473,0.9266,0.9952,1.0671,1.1121,1.1908,1.252,1.26,1.2954,1.3864,1.4772,1.5471,1.628,1.7054,1.7716,1.8032,1.8576,1.9332,2.0053,2.0784,2.1428,2.1954,2.2347,2.2586,2.2769,2.2969,2.333,2.376,-1.5873,-1.5547,-1.5245,-1.4914,-1.4532,-1.434,-1.3969,-1.3489,-1.2866,-1.2394,-1.2031,-1.1803,-1.1602,-1.1606,-1.1808,-1.1787,-1.1514,-1.132,-1.1368,-1.1469,-1.1122,-1.0806,-1.0588,-1.0185,-0.9892,-0.9752,-0.9565,-0.9377,-0.912,-0.8901,-0.8592,-0.8237,-0.815,-0.8021,-0.7893,-0.7803,-0.7759,-0.7676,-0.7307,-0.7079,-0.7009,-0.6655,-0.6387,-0.6271,-0.5953,-0.5659,-0.5476,-0.512,-0.4932,-0.4779,-0.4426,-0.3917,-0.3487,-0.2821,-0.222,-0.1892,-0.1398,-0.0897,-0.0578,-0.0429,-0.0275,0.0,0.0,0.0,0.0235,0.0541,0.0966,0.1541,0.2043,0.2459,0.2821,0.3058,0.311,0.3056,0.289,0.2903,0.318,0.3862,0.4534,0.5086,0.574,0.6244,0.663,0.7089,0.7426,0.7649,0.8002,0.8621,0.9388,0.9967,1.0569,1.1251,1.2067,1.2449,1.2515,1.3083,1.3836,1.4601,1.5294,1.621,1.7054,1.7716,1.8202,1.8795,1.9511,2.0051,2.0765,2.1326,2.1831,2.2171,2.2525,2.2739,2.2969,2.3492,2.3907,-1.5406,-1.4998,-1.4673,-1.3985,-1.3147,-1.2905,-1.27,-1.236,-1.1819,-1.1604,-1.1507,-1.1351,-1.117,-1.1175,-1.1302,-1.1288,-1.1179,-1.119,-1.103,-1.0757,-1.0407,-1.0239,-1.0185,-0.9865,-0.9583,-0.9367,-0.9262,-0.906,-0.8703,-0.846,-0.8332,-0.7921,-0.7709,-0.7724,-0.754,-0.7716,-0.7485,-0.7224,-0.7037,-0.6854,-0.6684,-0.6442,-0.6048,-0.551,-0.5335,-0.5076,-0.4671,-0.4402,-0.4399,-0.4467,-0.3682,-0.3171,-0.2898,-0.2116,-0.1567,-0.1484,-0.0903,-0.0628,-0.0471,-0.0235,0.0,0.0,0.0,0.0157,0.0549,0.0861,0.1281,0.1993,0.24,0.2719,0.3022,0.3242,0.3385,0.3484,0.3248,0.3222,0.3542,0.4206,0.4891,0.5433,0.6008,0.658,0.6979,0.748,0.7751,0.7902,0.8106,0.8676,0.9446,1.0071,1.045,1.1219,1.2193,1.2475,1.2607,1.2941,1.3734,1.4644,1.5401,1.628,1.7157,1.7852,1.8405,1.9027,1.9587,2.0144,2.0662,2.1198,2.1708,2.2127,2.242,2.2696,2.306,2.3539,2.3982,-1.4357,-1.3893,-1.343,-1.2964,-1.2527,-1.2127,-1.1883,-1.1736,-1.1247,-1.1002,-1.1002,-1.0949,-1.0904,-1.0904,-1.1096,-1.1096,-1.09,-1.085,-1.0757,-1.0449,-0.9983,-0.9935,-1.0079,-1.0004,-0.9608,-0.9161,-0.8799,-0.8438,-0.7871,-0.7554,-0.7145,-0.6659,-0.6704,-0.6526,-0.6343,-0.6346,-0.6251,-0.6166,-0.6121,-0.6074,-0.5971,-0.5681,-0.5482,-0.5411,-0.4867,-0.4592,-0.4411,-0.3846,-0.3705,-0.3923,-0.3333,-0.2744,-0.2391,-0.1569,-0.102,-0.0825,-0.0471,0.0,0.0,0.0,0.0,0.0,0.0,0.0,0.0786,0.1177,0.172,0.2333,0.2895,0.3283,0.338,0.3569,0.3791,0.4002,0.3807,0.3765,0.4049,0.4694,0.538,0.5706,0.65,0.7041,0.7376,0.7729,0.8056,0.822,0.8453,0.887,0.9679,1.0176,1.0569,1.1405,1.2204,1.2494,1.2748,1.3013,1.3625,1.468,1.5542,1.6464,1.7329,1.8158,1.864,1.91,1.9555,2.0101,2.0574,2.1063,2.1577,2.2113,2.2512,2.2848,2.3138,2.3556,2.4028,-1.3632,-1.3299,-1.2746,-1.2277,-1.1844,-1.1438,-1.1194,-1.1047,-1.0654,-1.0458,-1.0462,-1.0364,-1.0314,-1.0314,-1.0462,-1.0458,-1.0314,-1.0167,-1.0019,-0.9826,-0.9217,-0.8977,-0.9103,-0.9112,-0.878,-0.8182,-0.7916,-0.7487,-0.7005,-0.6681,-0.637,-0.6055,-0.5947,-0.588,-0.5891,-0.5696,-0.5707,-0.5731,-0.5576,-0.5411,-0.5401,-0.5041,-0.4793,-0.4673,-0.4261,-0.4097,-0.388,-0.3249,-0.3013,-0.3115,-0.2627,-0.1999,-0.1648,-0.0942,-0.0471,-0.0354,0.0,0.0,0.0,0.0,0.0,0.0,0.0196,0.0628,0.1177,0.1725,0.2349,0.2821,0.335,0.3661,0.3872,0.4124,0.4351,0.4543,0.4523,0.457,0.4712,0.5353,0.5935,0.6447,0.7029,0.7601,0.7755,0.8043,0.8289,0.8477,0.8579,0.9273,1.007,1.0383,1.0803,1.161,1.2297,1.2637,1.3057,1.3414,1.4033,1.5005,1.5965,1.6811,1.7569,1.8395,1.8697,1.91,1.9544,2.0038,2.0523,2.1046,2.168,2.2183,2.264,2.303,2.3318,2.3704,2.416,-1.322,-1.2926,-1.2405,-1.1784,-1.1161,-1.0887,-1.0636,-1.0364,-1.0117,-0.9969,-0.9974,-0.9727,-0.9723,-0.9575,-0.9673,-0.9525,-0.9476,-0.9179,-0.8985,-0.8684,-0.8226,-0.7819,-0.7628,-0.7862,-0.7574,-0.7026,-0.6726,-0.6467,-0.6195,-0.6072,-0.588,-0.5551,-0.5517,-0.5642,-0.5517,-0.5493,-0.5581,-0.5438,-0.5011,-0.479,-0.4699,-0.4372,-0.403,-0.3834,-0.3587,-0.3347,-0.3025,-0.2484,-0.2255,-0.2525,-0.1689,-0.1216,-0.0864,-0.0314,0.0,0.0,0.0,0.0,0.0,0.0,0.0,0.0196,0.0629,0.1178,0.1686,0.2352,0.2845,0.3262,0.3645,0.3992,0.4378,0.476,0.4991,0.5107,0.524,0.5527,0.5778,0.6057,0.6513,0.7208,0.7574,0.793,0.8107,0.8331,0.8556,0.8723,0.8918,0.9537,1.0183,1.0592,1.1131,1.1808,1.2372,1.286,1.3345,1.3818,1.4593,1.5444,1.6429,1.727,1.792,1.8539,1.8741,1.9056,1.9368,1.989,2.0515,2.1095,2.1651,2.2323,2.2781,2.315,2.348,2.3969,2.4434,-1.2593,-1.1962,-1.1657,-1.1216,-1.0777,-1.0495,-1.0308,-1.0085,-0.983,-0.9743,-0.9677,-0.9628,-0.9579,-0.9525,-0.9076,-0.8878,-0.8577,-0.818,-0.773,-0.7282,-0.7179,-0.6672,-0.6443,-0.6834,-0.7018,-0.6554,-0.6273,-0.5904,-0.5538,-0.5256,-0.4979,-0.4889,-0.4858,-0.4848,-0.485,-0.4684,-0.4451,-0.4414,-0.4123,-0.395,-0.3853,-0.3492,-0.3239,-0.3135,-0.2744,-0.2452,-0.213,-0.1478,-0.1096,-0.1006,-0.0875,-0.0711,-0.059,-0.0236,0.0,0.0,0.0,0.0,0.0,0.0,0.0196,0.0629,0.0943,0.1374,0.2431,0.2707,0.313,0.3581,0.4023,0.4445,0.4812,0.522,0.5452,0.5593,0.5923,0.6359,0.6705,0.6794,0.6923,0.7335,0.7884,0.8282,0.8369,0.8698,0.8885,0.898,0.9296,0.9798,1.0306,1.0816,1.1401,1.2015,1.2637,1.315,1.3567,1.4182,1.5067,1.5806,1.6751,1.7588,1.8236,1.8684,1.8875,1.8998,1.9144,1.9737,2.0474,2.0816,2.1315,2.2113,2.2909,2.3241,2.3616,2.4144,2.4492,-1.1944,-1.1366,-1.1098,-1.0824,-1.048,-1.0251,-1.0091,-1.0058,-0.9828,-0.97,-0.948,-0.9226,-0.8981,-0.8836,-0.8283,-0.7935,-0.7783,-0.7431,-0.6883,-0.6384,-0.6234,-0.5884,-0.5434,-0.5734,-0.5949,-0.5763,-0.5556,-0.5246,-0.4975,-0.472,-0.4504,-0.4389,-0.429,-0.4256,-0.4279,-0.4073,-0.3989,-0.3925,-0.3631,-0.3353,-0.3053,-0.2778,-0.2413,-0.2296,-0.1961,-0.1728,-0.1622,-0.1099,-0.0711,-0.0538,-0.0327,-0.0201,-0.0277,-0.0119,0.0,0.0118,0.0118,0.0157,0.0,0.0432,0.0707,0.0904,0.1413,0.208,0.2785,0.3215,0.3682,0.4073,0.446,0.4851,0.5249,0.5821,0.6026,0.608,0.6371,0.6815,0.727,0.7352,0.7532,0.7965,0.8588,0.8893,0.9092,0.9198,0.9234,0.9334,0.9354,0.982,1.064,1.1137,1.1627,1.2249,1.2918,1.3426,1.381,1.4502,1.5482,1.6228,1.6959,1.7691,1.8313,1.8684,1.8985,1.9098,1.9187,1.9781,2.0442,2.0732,2.1262,2.2334,2.3078,2.3378,2.3704,2.4173,2.4434,-1.1282,-1.0884,-1.0697,-1.0508,-1.0305,-1.0033,-0.9935,-0.99,-0.9788,-0.9341,-0.9099,-0.8517,-0.8175,-0.7842,-0.7385,-0.7086,-0.6836,-0.6584,-0.5982,-0.5584,-0.5534,-0.5286,-0.4985,-0.4983,-0.4981,-0.4786,-0.4784,-0.4734,-0.4646,-0.4379,-0.4268,-0.4149,-0.3996,-0.3988,-0.3913,-0.3821,-0.3687,-0.3532,-0.319,-0.2817,-0.2366,-0.2037,-0.171,-0.142,-0.132,-0.1225,-0.1125,-0.0774,-0.0514,-0.0424,0.0085,0.0248,0.0162,0.012,0.0162,0.0356,0.0355,0.0393,0.0589,0.0943,0.1178,0.1178,0.2158,0.2863,0.3255,0.3899,0.4346,0.4626,0.4951,0.5371,0.5756,0.623,0.6552,0.661,0.6685,0.7168,0.7675,0.7898,0.8426,0.8873,0.9191,0.9429,0.9552,0.9645,0.9679,0.9686,0.9705,0.9965,1.0755,1.1434,1.1928,1.2587,1.3288,1.4021,1.4451,1.4667,1.5692,1.6544,1.7232,1.7904,1.853,1.8965,1.9279,1.9173,1.9396,1.9889,2.0345,2.0667,2.1451,2.2598,2.3168,2.3378,2.3734,2.4173,2.4376,-1.0819,-1.051,-1.0654,-1.0559,-1.0355,-1.0065,-0.9565,-0.9055,-0.8821,-0.8312,-0.7789,-0.7607,-0.7481,-0.7213,-0.6736,-0.6187,-0.5739,-0.5434,-0.5183,-0.4983,-0.4985,-0.4834,-0.4784,-0.4684,-0.4636,-0.4537,-0.4437,-0.4423,-0.4364,-0.4212,-0.404,-0.4038,-0.3934,-0.3897,-0.378,-0.37,-0.3267,-0.2864,-0.2582,-0.2173,-0.1687,-0.1247,-0.0951,-0.0751,-0.0741,-0.0736,-0.065,-0.0343,0.0,0.0216,0.0346,0.0469,0.0585,0.0617,0.0652,0.0647,0.0638,0.0753,0.1109,0.1302,0.1769,0.2354,0.3066,0.3614,0.4101,0.4654,0.4994,0.5248,0.5592,0.6075,0.6504,0.6657,0.6695,0.6826,0.7317,0.7892,0.8346,0.8802,0.9229,0.9555,0.9765,0.9933,1.0059,1.0082,1.0053,1.0023,1.0012,1.0405,1.1127,1.1676,1.2154,1.288,1.3716,1.4489,1.518,1.5278,1.5805,1.6748,1.7488,1.8276,1.8854,1.9379,1.9592,1.9536,1.9421,1.9561,2.0009,2.055,2.1388,2.2408,2.2866,2.33,2.3704,2.4086,2.4334,-1.0621,-1.0337,-1.0035,-0.9803,-0.9631,-0.9076,-0.8662,-0.8335,-0.8165,-0.7781,-0.727,-0.6913,-0.6647,-0.6311,-0.5784,-0.5336,-0.5035,-0.4885,-0.4782,-0.4784,-0.4686,-0.4585,-0.4585,-0.4485,-0.4334,-0.4185,-0.4086,-0.4085,-0.4137,-0.3934,-0.3783,-0.3732,-0.3684,-0.3481,-0.3224,-0.3001,-0.2624,-0.2161,-0.1896,-0.1588,-0.1049,0.0,0.0,0.0,-0.0308,-0.0307,-0.022,0.0044,0.0262,0.0397,0.0619,0.0835,0.1041,0.1195,0.1215,0.1119,0.1145,0.1342,0.183,0.2237,0.2971,0.3288,0.3899,0.4501,0.4866,0.5234,0.5548,0.5891,0.6116,0.6494,0.665,0.6778,0.7048,0.7401,0.787,0.8461,0.9172,0.9686,0.9978,1.0146,1.0305,1.0465,1.0558,1.052,1.0439,1.0394,1.0362,1.0835,1.145,1.2045,1.2543,1.3426,1.4238,1.4776,1.5451,1.5644,1.6015,1.6918,1.7814,1.8602,1.9262,1.9818,1.9988,1.9965,1.9826,1.9573,2.003,2.0685,2.1441,2.2202,2.2948,2.3543,2.3761,2.4011,2.4261,-1.0062,-0.9842,-0.9169,-0.8855,-0.8747,-0.8094,-0.7753,-0.7627,-0.751,-0.7102,-0.6632,-0.6195,-0.5785,-0.5404,-0.5035,-0.4736,-0.4686,-0.4684,-0.4583,-0.4533,-0.4437,-0.4336,-0.4237,-0.4133,-0.3972,-0.3899,-0.3754,-0.3721,-0.3833,-0.3633,-0.3484,-0.3281,-0.313,-0.2775,-0.2369,-0.2315,-0.1846,-0.1539,-0.1333,-0.1076,-0.0576,0.0,0.0,0.0,0.0046,0.009,0.009,0.0313,0.0536,0.0715,0.094,0.1254,0.152,0.181,0.1909,0.1877,0.1945,0.2186,0.285,0.3472,0.4037,0.424,0.4938,0.5372,0.56,0.5822,0.6083,0.6481,0.6668,0.6721,0.6793,0.6873,0.7268,0.7768,0.8177,0.8737,0.9671,1.029,1.061,1.0767,1.0868,1.0916,1.0916,1.0829,1.0701,1.0803,1.0817,1.1218,1.1827,1.2532,1.3188,1.4059,1.4776,1.5133,1.5583,1.5808,1.6376,1.717,1.8114,1.901,1.9664,2.0324,2.037,2.0441,1.9996,1.985,2.0331,2.0764,2.1463,2.2254,2.3187,2.3757,2.3914,2.4024,2.4216,-0.8335,-0.8123,-0.8124,-0.8118,-0.8057,-0.7723,-0.7281,-0.6704,-0.6482,-0.5887,-0.5422,-0.5223,-0.5124,-0.4903,-0.4636,-0.4487,-0.4386,-0.4275,-0.4175,-0.418,-0.4069,-0.4064,-0.4029,-0.4034,-0.368,-0.3454,-0.3446,-0.3581,-0.3459,-0.3221,-0.2977,-0.2623,-0.2472,-0.222,-0.1765,-0.1715,-0.1411,-0.1007,-0.0905,-0.0648,0.0,0.0,0.0,0.0,0.0184,0.0319,0.036,0.0583,0.0897,0.1211,0.1346,0.1615,0.2018,0.2286,0.2768,0.3034,0.3231,0.3357,0.417,0.4646,0.4942,0.5199,0.5696,0.5942,0.6111,0.6383,0.6637,0.6822,0.6829,0.6809,0.6814,0.6803,0.7168,0.7762,0.8359,0.8994,0.9835,1.0571,1.091,1.108,1.1054,1.1118,1.1177,1.1064,1.1003,1.1112,1.1352,1.176,1.2286,1.3078,1.3874,1.4795,1.525,1.5582,1.5914,1.6135,1.6594,1.7388,1.8376,1.9303,1.9927,2.0514,2.0931,2.0866,2.042,2.024,2.0655,2.1107,2.1577,2.2281,2.3198,2.3712,2.404,2.4151,2.4305,-0.7292,-0.7844,-0.7459,-0.7263,-0.7196,-0.6533,-0.6063,-0.5768,-0.5592,-0.5273,-0.4982,-0.4953,-0.4871,-0.4549,-0.4437,-0.4338,-0.4175,-0.3995,-0.3947,-0.3899,-0.3818,-0.3692,-0.3604,-0.329,-0.291,-0.2759,-0.2563,-0.2343,-0.247,-0.2585,-0.2442,-0.2017,-0.1916,-0.1665,-0.1211,-0.1161,-0.0808,-0.0505,-0.0353,-0.0251,0.0,0.0,0.0096,0.0235,0.0368,0.0499,0.0675,0.1076,0.1391,0.1705,0.1928,0.242,0.278,0.3138,0.3669,0.451,0.4757,0.4925,0.5099,0.5472,0.5766,0.5966,0.6315,0.6499,0.6537,0.6641,0.6817,0.6793,0.6712,0.6729,0.6846,0.6861,0.7288,0.7873,0.8487,0.9183,0.9876,1.0523,1.1052,1.1155,1.1262,1.1311,1.1435,1.1551,1.1519,1.159,1.2105,1.2726,1.3231,1.3858,1.4688,1.5527,1.5808,1.5996,1.6317,1.659,1.6787,1.7557,1.8555,1.9448,2.0072,2.0622,2.1118,2.1331,2.1021,2.0958,2.1094,2.1576,2.2173,2.2669,2.3191,2.3615,2.4056,2.4527,2.4685,-0.5932,-0.6835,-0.6491,-0.6215,-0.6021,-0.5291,-0.4891,-0.4706,-0.4652,-0.457,-0.4482,-0.4446,-0.4338,-0.4098,-0.3987,-0.3794,-0.3704,-0.3584,-0.3587,-0.3474,-0.3332,-0.3053,-0.2761,-0.2302,-0.195,-0.1748,-0.1418,-0.1148,-0.1162,-0.1366,-0.1527,-0.1409,-0.1402,-0.1106,-0.0757,-0.0606,0.0,0.0,0.0,0.0,0.0,0.0,0.0241,0.0425,0.0647,0.0857,0.1167,0.1704,0.2063,0.2287,0.2599,0.3002,0.3449,0.3853,0.4476,0.5277,0.5733,0.5913,0.6042,0.6266,0.652,0.6665,0.6755,0.6853,0.6822,0.681,0.6859,0.6995,0.6857,0.6916,0.7003,0.7186,0.7533,0.8101,0.8667,0.9348,1.0018,1.0606,1.1117,1.1338,1.1402,1.1451,1.1602,1.1983,1.212,1.2145,1.2751,1.3581,1.4166,1.4659,1.5309,1.6075,1.6294,1.6419,1.663,1.6922,1.7174,1.7648,1.8693,1.9478,2.0046,2.0823,2.1528,2.158,2.1445,2.1418,2.142,2.2103,2.274,2.2878,2.3123,2.3611,2.4073,2.4598,2.4979,-0.4011,-0.3903,-0.4891,-0.4992,-0.455,-0.4432,-0.4065,-0.3686,-0.3629,-0.3538,-0.3478,-0.3386,-0.3485,-0.3283,-0.3191,-0.3061,-0.2996,-0.264,-0.2633,-0.2563,-0.2422,-0.2087,-0.1684,-0.1287,-0.0988,-0.0464,-0.0232,0.0094,0.0333,-0.0048,-0.0441,-0.0753,-0.065,-0.045,-0.0201,0.005,0.0101,0.0,0.0,0.0,0.0,0.0345,0.0533,0.0857,0.1354,0.1833,0.2114,0.2568,0.2935,0.3117,0.3334,0.3688,0.4232,0.4636,0.531,0.5891,0.6364,0.6591,0.6815,0.6859,0.6962,0.7048,0.7085,0.7071,0.7078,0.7099,0.7197,0.7384,0.7236,0.7462,0.7646,0.7797,0.797,0.8425,0.9027,0.9601,1.021,1.0611,1.1096,1.1472,1.1624,1.1674,1.1897,1.2267,1.2484,1.2534,1.3107,1.3947,1.4819,1.5358,1.5831,1.6388,1.6687,1.6834,1.6889,1.7089,1.7254,1.7772,1.8645,1.9336,1.9904,2.0757,2.1759,2.1776,2.1621,2.1686,2.1791,2.2269,2.2634,2.2756,2.3031,2.3571,2.4059,2.4515,2.4888,-0.3569,-0.3515,-0.3914,-0.3962,-0.3829,-0.3736,-0.3578,-0.3363,-0.3324,-0.3249,-0.318,-0.3177,-0.3095,-0.2978,-0.2916,-0.278,-0.2642,-0.2475,-0.2118,-0.1742,-0.1557,-0.1125,-0.0626,-0.0142,0.0139,0.0458,0.069,0.0934,0.1095,0.1003,0.0986,0.0704,0.0352,0.0302,0.0504,0.0757,0.0853,0.0899,0.0902,0.0954,0.094,0.1024,0.1248,0.1667,0.1822,0.2307,0.2704,0.3239,0.3666,0.4029,0.4267,0.4706,0.5151,0.5609,0.6017,0.6482,0.6846,0.7158,0.7262,0.7258,0.7098,0.7122,0.7173,0.7282,0.7327,0.7417,0.7552,0.764,0.7738,0.7941,0.7896,0.8091,0.8414,0.8888,0.9407,1.0004,1.0452,1.0894,1.1311,1.1754,1.1963,1.2024,1.2288,1.2595,1.2774,1.2948,1.358,1.4289,1.52,1.5913,1.6335,1.6793,1.7136,1.7342,1.7376,1.7385,1.7368,1.7979,1.8615,1.925,1.9923,2.0989,2.1797,2.1807,2.1845,2.1868,2.2014,2.2335,2.2516,2.2544,2.298,2.3545,2.4029,2.443,2.4903,-0.3,-0.287,-0.2841,-0.2987,-0.3139,-0.31,-0.3001,-0.2806,-0.2736,-0.2733,-0.2745,-0.2746,-0.2672,-0.2514,-0.2284,-0.2154,-0.1896,-0.1628,-0.1213,-0.0833,-0.0559,-0.0099,0.0536,0.1005,0.1216,0.1432,0.1716,0.2032,0.2044,0.1882,0.1794,0.1691,0.1542,0.1327,0.1119,0.1364,0.1553,0.1545,0.1539,0.1551,0.1481,0.1644,0.1871,0.2339,0.2581,0.3115,0.3579,0.4115,0.4608,0.4987,0.5347,0.564,0.6097,0.6513,0.6793,0.7058,0.7293,0.76,0.7536,0.7434,0.7278,0.742,0.7517,0.7615,0.7714,0.7901,0.8046,0.8332,0.8341,0.8339,0.8468,0.8997,0.9238,0.97,1.0088,1.0606,1.0972,1.1389,1.1718,1.2099,1.2268,1.2496,1.3083,1.34,1.3405,1.3681,1.4238,1.49,1.5601,1.6261,1.6707,1.7167,1.759,1.7752,1.7906,1.7668,1.7501,1.7914,1.8574,1.9231,2.0019,2.1078,2.1749,2.1807,2.1883,2.2035,2.212,2.225,2.2306,2.2296,2.2737,2.3145,2.3647,2.4071,2.4999,-0.1996,-0.1749,-0.1749,-0.1979,-0.2443,-0.2427,-0.2154,-0.1834,-0.1799,-0.1827,-0.1853,-0.1807,-0.1772,-0.1638,-0.1273,-0.1071,-0.0971,-0.0482,0.0053,0.0319,0.0416,0.1118,0.1693,0.21,0.2153,0.2861,0.2895,0.2812,0.2951,0.2517,0.2434,0.2498,0.2346,0.2174,0.1758,0.1629,0.1615,0.1609,0.1689,0.1803,0.1941,0.2291,0.2719,0.3039,0.3559,0.4188,0.4663,0.4946,0.5397,0.5952,0.6028,0.6344,0.6835,0.6932,0.7167,0.7506,0.757,0.7678,0.7658,0.759,0.7757,0.7859,0.7919,0.8056,0.8294,0.8453,0.86,0.8965,0.9071,0.9428,0.9867,1.0256,1.0265,1.0506,1.0908,1.1227,1.1614,1.1999,1.2374,1.2666,1.2831,1.3065,1.3791,1.4257,1.4241,1.4489,1.4967,1.5538,1.6087,1.6449,1.6847,1.7424,1.7852,1.7871,1.7914,1.7703,1.7661,1.8029,1.8618,1.9393,2.0164,2.1108,2.1593,2.1721,2.1845,2.1959,2.2008,2.2093,2.2101,2.2136,2.2221,2.2601,2.3096,2.3891,2.4944,-0.1795,-0.1785,-0.1691,-0.1779,-0.1932,-0.1964,-0.1782,-0.1653,-0.1596,-0.1615,-0.1603,-0.1299,-0.1101,-0.0904,-0.0539,-0.0218,-0.0218,-0.0166,0.0331,0.1317,0.1337,0.1994,0.2567,0.2804,0.2894,0.3051,0.309,0.3123,0.3065,0.288,0.2941,0.3013,0.3053,0.299,0.2818,0.2747,0.2751,0.275,0.2913,0.3091,0.3033,0.3583,0.4086,0.4219,0.4777,0.5265,0.5686,0.5818,0.6146,0.6661,0.6688,0.6905,0.7337,0.7452,0.7548,0.7815,0.7897,0.8227,0.8324,0.8403,0.8305,0.8368,0.8401,0.8504,0.8556,0.8813,0.9129,0.9498,0.9683,1.0034,1.0449,1.078,1.0975,1.1414,1.1793,1.2078,1.2395,1.2802,1.3168,1.3339,1.3478,1.3823,1.4404,1.4917,1.4987,1.4974,1.5353,1.5792,1.6312,1.6456,1.6765,1.7503,1.794,1.7965,1.7946,1.7811,1.8044,1.8547,1.9129,1.984,2.0625,2.1257,2.1565,2.179,2.1856,2.1901,2.2009,2.2073,2.195,2.192,2.2079,2.2599,2.3359,2.4227,2.5261,-0.1433,-0.1459,-0.1223,-0.1117,-0.1177,-0.1521,-0.1547,-0.1376,-0.131,-0.1278,-0.1052,-0.0688,-0.0427,-0.0271,0.0164,0.0551,0.0607,0.0885,0.1222,0.2161,0.2166,0.2601,0.3076,0.3223,0.3111,0.3151,0.3153,0.3133,0.3168,0.3224,0.3266,0.3427,0.3642,0.3802,0.3793,0.3743,0.3531,0.3634,0.3912,0.4154,0.4344,0.4742,0.5298,0.5447,0.574,0.6144,0.6372,0.6586,0.6766,0.71,0.733,0.7395,0.7761,0.7934,0.7983,0.8122,0.8304,0.8669,0.8859,0.9049,0.8952,0.8906,0.8927,0.9001,0.9121,0.9437,0.9723,1.0002,1.0167,1.0458,1.0895,1.1194,1.1585,1.2073,1.236,1.2592,1.2872,1.3225,1.3513,1.3709,1.4136,1.4527,1.4969,1.5397,1.5711,1.5702,1.5749,1.6162,1.6601,1.687,1.7047,1.7596,1.8025,1.8017,1.8046,1.8037,1.8404,1.9015,1.9661,2.0294,2.0757,2.1344,2.1584,2.189,2.2053,2.2154,2.2115,2.2085,2.1976,2.192,2.1945,2.263,2.359,2.4469,2.5347,-0.0798,-0.0744,-0.0262,0.0,0.0,-0.1113,-0.1254,-0.0782,-0.0781,-0.053,0.0,0.0,0.022,0.0558,0.1064,0.1455,0.1728,0.2207,0.2527,0.2828,0.2724,0.3123,0.3196,0.3242,0.3204,0.3264,0.3259,0.3179,0.3296,0.3455,0.3565,0.3824,0.4199,0.4583,0.4699,0.4608,0.4397,0.4586,0.4874,0.5054,0.5146,0.58,0.6105,0.6247,0.644,0.6767,0.6994,0.7137,0.7407,0.7687,0.7888,0.7958,0.8077,0.8233,0.8329,0.8528,0.8726,0.8977,0.9286,0.9484,0.9665,0.961,0.9681,0.9801,0.9882,1.0017,1.0207,1.0462,1.0609,1.0904,1.1243,1.159,1.198,1.2322,1.2619,1.2856,1.3098,1.3377,1.3624,1.4022,1.4538,1.5007,1.5515,1.5994,1.6156,1.6446,1.6502,1.6907,1.7352,1.7797,1.7913,1.7859,1.8119,1.8051,1.8121,1.8273,1.859,1.9127,1.9977,2.0663,2.1076,2.1528,2.2041,2.2387,2.2416,2.2349,2.2083,2.2067,2.2077,2.2079,2.2356,2.2587,2.3516,2.43,2.5138,-0.0212,-0.0216,-0.0053,0.0,0.0,-0.0329,-0.0384,-0.0219,-0.0217,-0.0055,0.0278,0.0724,0.1115,0.1458,0.2019,0.23,0.2452,0.2596,0.2798,0.2922,0.3027,0.3162,0.3235,0.3304,0.3231,0.3208,0.3195,0.3241,0.34,0.3681,0.4236,0.4529,0.4979,0.5421,0.5668,0.5702,0.5567,0.5571,0.5855,0.5858,0.6017,0.6624,0.6816,0.6939,0.7198,0.7467,0.755,0.7576,0.7778,0.7833,0.7889,0.7961,0.8283,0.8382,0.8482,0.8935,0.9232,0.948,0.9747,1.015,1.0328,1.0288,1.0438,1.0355,1.0307,1.0325,1.0542,1.0725,1.0944,1.1149,1.1585,1.198,1.237,1.2662,1.3001,1.3346,1.3582,1.3871,1.4118,1.4544,1.507,1.5404,1.5933,1.617,1.6426,1.6889,1.7279,1.7682,1.8036,1.8446,1.8591,1.8445,1.8417,1.84,1.8469,1.8597,1.8865,1.9279,2.0198,2.102,2.1541,2.2029,2.2591,2.2841,2.2835,2.2412,2.1844,2.1966,2.2366,2.2845,2.3136,2.3158,2.3423,2.4404,2.53,0.0582,0.0695,0.0907,0.1022,0.104,0.1058,0.1065,0.1007,0.0665,0.0778,0.1345,0.1682,0.2019,0.2354,0.2691,0.2915,0.3078,0.3007,0.3083,0.3119,0.3119,0.3169,0.324,0.3285,0.3263,0.324,0.3281,0.3384,0.3781,0.4533,0.5138,0.5304,0.5846,0.6323,0.6646,0.6813,0.689,0.6898,0.6879,0.6772,0.6921,0.7328,0.756,0.7569,0.7892,0.7878,0.7916,0.7899,0.7951,0.8017,0.808,0.8322,0.8675,0.8779,0.9194,0.9613,0.9824,1.0062,1.0361,1.0617,1.0689,1.0703,1.0924,1.0788,1.0724,1.0687,1.0798,1.0891,1.1102,1.1345,1.1883,1.237,1.2705,1.3039,1.3431,1.3823,1.416,1.4448,1.4783,1.5166,1.5499,1.5838,1.613,1.6319,1.6643,1.7052,1.7645,1.8264,1.8558,1.8894,1.8945,1.8854,1.8861,1.8818,1.8873,1.9011,1.935,1.9811,2.0633,2.1409,2.1979,2.2565,2.3155,2.3284,2.3282,2.2783,2.2323,2.252,2.2886,2.338,2.3898,2.409,2.4384,2.5061,2.5937,0.1474,0.1768,0.2377,0.2472,0.2628,0.2558,0.2575,0.2637,0.1793,0.1907,0.258,0.2693,0.2799,0.2956,0.312,0.3281,0.3302,0.3288,0.3245,0.3402,0.3203,0.32,0.3197,0.3232,0.339,0.3335,0.3533,0.3984,0.4684,0.5384,0.5939,0.61,0.6585,0.7069,0.7449,0.7522,0.7648,0.7841,0.7654,0.7443,0.7539,0.7865,0.8187,0.8019,0.7988,0.7978,0.8031,0.8041,0.8155,0.8403,0.8628,0.8874,0.9191,0.9556,1.0053,1.0283,1.0421,1.0607,1.0842,1.105,1.1025,1.101,1.1079,1.1228,1.1205,1.1189,1.1212,1.1418,1.1693,1.2088,1.261,1.316,1.355,1.3808,1.4091,1.4437,1.4734,1.4936,1.5117,1.5448,1.5671,1.5981,1.6414,1.665,1.6925,1.7301,1.7893,1.8611,1.9066,1.9342,1.9325,1.9281,1.9222,1.9239,1.9339,1.9507,1.9825,2.0395,2.1142,2.1652,2.2119,2.2875,2.37,2.3752,2.3691,2.3367,2.3063,2.322,2.3457,2.3982,2.4484,2.4967,2.5457,2.6086,2.6405,0.2238,0.2335,0.2449,0.2551,0.2622,0.2581,0.2773,0.297,0.2801,0.2801,0.2971,0.3024,0.3116,0.3364,0.3361,0.3455,0.3395,0.3402,0.3353,0.3332,0.3266,0.3238,0.3283,0.3438,0.3684,0.4081,0.4383,0.4839,0.5553,0.625,0.6745,0.6954,0.7386,0.782,0.7948,0.8003,0.8162,0.8397,0.8162,0.7939,0.7908,0.7908,0.8012,0.7995,0.7998,0.8058,0.8135,0.8362,0.8494,0.8696,0.9035,0.9461,0.9892,1.0354,1.0686,1.0867,1.0992,1.1093,1.1206,1.1411,1.1461,1.1453,1.1541,1.1791,1.1836,1.18,1.1884,1.2144,1.2434,1.2888,1.3344,1.3897,1.4369,1.453,1.4686,1.4984,1.524,1.5386,1.5497,1.5658,1.5825,1.6249,1.6704,1.7001,1.7308,1.7761,1.8319,1.8904,1.9409,1.9723,1.9743,1.9692,1.9632,1.9634,1.9783,2.0015,2.0372,2.0841,2.1508,2.1926,2.2353,2.3267,2.4093,2.4148,2.409,2.3804,2.3666,2.3661,2.399,2.4543,2.5158,2.562,2.6697,2.7467,2.7408,0.2833,0.2857,0.2903,0.2952,0.3005,0.3031,0.3169,0.3302,0.3306,0.3306,0.3306,0.3302,0.3386,0.3501,0.3496,0.3461,0.3403,0.335,0.3357,0.3338,0.3281,0.3313,0.3403,0.3653,0.4036,0.4483,0.5386,0.6047,0.6497,0.7137,0.7652,0.776,0.8112,0.8258,0.8326,0.8381,0.8404,0.8469,0.835,0.8265,0.8163,0.8096,0.8049,0.8106,0.8237,0.8284,0.8444,0.8739,0.9013,0.9338,0.9774,1.0286,1.0727,1.0966,1.1186,1.1255,1.1354,1.1409,1.1513,1.1699,1.1909,1.1933,1.2076,1.2355,1.2491,1.2435,1.2694,1.2951,1.3119,1.3565,1.3819,1.4306,1.4718,1.4992,1.5135,1.5322,1.5641,1.5909,1.6048,1.6245,1.6519,1.6966,1.7311,1.7332,1.7654,1.7908,1.8504,1.9036,1.9533,1.9965,2.0011,2.0088,2.003,2.0163,2.0413,2.0624,2.0933,2.141,2.1814,2.263,2.3288,2.3907,2.4469,2.4493,2.4512,2.4401,2.4301,2.4274,2.4594,2.5115,2.5729,2.6322,2.7447,2.8376,2.8306,0.3318,0.3384,0.3428,0.3482,0.3503,0.355,0.3579,0.3586,0.3587,0.3587,0.3587,0.3587,0.3549,0.3504,0.3482,0.3439,0.3386,0.3266,0.3286,0.34,0.3392,0.3708,0.3911,0.3993,0.4618,0.5443,0.6337,0.6867,0.7259,0.7833,0.8203,0.8479,0.8587,0.8669,0.8726,0.8764,0.8733,0.8652,0.857,0.8523,0.8364,0.8214,0.8211,0.8356,0.8544,0.8707,0.8863,0.9216,0.9567,1.0055,1.0514,1.1046,1.1304,1.146,1.1491,1.1581,1.1524,1.1662,1.1798,1.2051,1.2216,1.237,1.2616,1.2858,1.3044,1.3333,1.3594,1.3885,1.4111,1.4231,1.453,1.4811,1.5214,1.5523,1.5599,1.5688,1.6027,1.6326,1.6511,1.6752,1.7169,1.7618,1.7777,1.7855,1.8037,1.8324,1.8667,1.9122,1.962,1.9945,2.0178,2.0324,2.0416,2.0622,2.0872,2.1025,2.1221,2.1603,2.208,2.3217,2.4067,2.4325,2.4562,2.484,2.4819,2.4783,2.4977,2.5082,2.5384,2.561,2.6042,2.6565,2.7345,2.818,2.8743,0.3772,0.3579,0.3451,0.3407,0.3488,0.351,0.3542,0.3583,0.3586,0.3587,0.3587,0.3578,0.3533,0.3429,0.3428,0.3387,0.3315,0.3278,0.3501,0.3672,0.3833,0.4285,0.4769,0.5091,0.5768,0.6536,0.7281,0.7743,0.7914,0.8172,0.8353,0.8513,0.8516,0.8557,0.8554,0.8618,0.8686,0.8679,0.8729,0.8654,0.8769,0.8612,0.848,0.8535,0.8624,0.8862,0.9126,0.9705,1.0068,1.0592,1.116,1.1585,1.1787,1.1889,1.1907,1.1906,1.1841,1.1954,1.2203,1.243,1.2595,1.277,1.3143,1.365,1.3928,1.4393,1.4711,1.5245,1.539,1.5377,1.5576,1.5694,1.6009,1.6134,1.6246,1.6214,1.6375,1.6608,1.6843,1.7197,1.7667,1.8063,1.8417,1.854,1.8851,1.9112,1.9359,1.9807,2.0217,2.031,2.036,2.0568,2.0821,2.0817,2.0979,2.1105,2.1311,2.1758,2.2309,2.3276,2.3927,2.4282,2.4562,2.4787,2.5084,2.5167,2.5396,2.5476,2.5738,2.5892,2.6218,2.6696,2.7389,2.8035,2.8645]},{"header":{"parameterUnit":"m.s-1","parameterCategory":1,"la1":31.0,"la2":29.5877,"lo1":-88.7671,"lo2":-86.6584,"dy":0.0162,"dx":0.0185,"nx":115,"ny":88,"refTime":"2023-09-21T00:00:00:Z","depth":0,"parameterNumber":3,"parameterNumberName":"V-component_of_WINDS"},"data":[0.0,0.0,0.0,0.0,0.0,0.0,0.0,0.0,0.0,0.0,0.0,0.0,0.0,0.0,0.0,0.0,0.0,0.0,0.0,0.0,0.0,0.0,0.0,0.0,0.0,0.0,0.0,0.0,0.0,0.0,0.0,0.0,0.0,0.0,0.0,0.0,0.0,0.0,0.0,0.0,0.0,0.0,0.0,0.0,0.0,0.0,0.0,0.0,0.0,0.0,0.0,0.0,0.0,0.0,0.0,0.0,0.0,0.0,0.0,0.0,0.0,0.0,0.0,0.0,0.0,0.0,0.0,0.0,0.0,0.0,0.0,0.0,0.0,0.0,0.0,0.0,0.0,0.0,0.0,0.0,0.0,0.0,0.0,0.0,0.0,0.0,0.0,0.0,0.0,0.0,0.0,0.0,0.0,0.0,0.0,0.0,0.0,0.0,0.0,0.0,0.0,0.0,0.0,0.0,0.0,0.0,0.0,0.0,0.0,0.0,0.0,0.0,0.0,0.0,0.0,0.0,0.0,0.0,0.0,0.0,0.0,0.0,0.0,0.0,0.0,0.0,0.0,0.0,0.0,0.0,0.0,0.0,0.0,0.0,0.0,0.0,0.0,0.0,0.0,0.0,0.0,0.0,0.0,0.0,0.0,0.0,0.0,0.0,0.0,0.0,0.0,0.0,0.0,0.0,0.0,0.0,0.0,0.0,0.0,0.0,0.0,0.0,0.0,0.0,0.0,0.0,0.0,0.0,0.0,0.0,0.0,0.0,0.0,0.0,0.0,0.0,0.0,0.0,0.0,0.0,0.0,0.0,0.0,0.0,0.0,0.0,0.0,0.0,0.0,0.0,0.0,0.0,0.0,0.0,0.0,0.0,0.0,0.0,0.0,0.0,0.0,0.0,0.0,0.0,0.0,0.0,0.0,0.0,0.0,0.0,0.0,0.0,0.0,0.0,0.0,0.0,0.0,0.0,0.0,0.0,0.0,0.0,0.0,0.0,0.0,0.0,0.0,0.0,0.0,0.0,0.0,0.0,0.0,0.0,0.0,0.0,0.0,0.0,0.0,0.0,0.0,0.0,0.0,0.0,0.0,0.0,0.0,0.0,0.0,0.0,0.0,0.0,0.0,0.0,0.0,0.0,0.0,0.0,0.0,0.0,0.0,0.0,0.0,0.0,0.0,0.0,0.0,0.0,0.0,0.0,0.0,0.0,0.0,0.0,0.0,0.0,0.0,0.0,0.0,0.0,0.0,0.0,0.0,0.0,0.0,0.0,0.0,0.0,0.0,0.0,0.0,0.0,0.0,0.0,0.0,0.0,0.0,0.0,0.0,0.0,0.0,0.0,0.0,0.0,0.0,0.0,0.0,0.0,0.0,0.0,0.0,0.0,0.0,0.0,0.0,0.0,0.0,0.0,0.0,0.0,0.0,0.0,0.0,0.0,0.0,0.0,0.0,0.0,0.0,0.0,0.0,0.0,0.0,0.0,0.0,0.0,0.0,0.0,0.0,0.0,0.0,0.0,0.0,0.0,0.0,0.0,0.0,0.0,0.0,0.0,0.0,0.0,0.0,0.0,0.0,0.0,0.0,0.0,0.0,0.0,0.0,0.0,0.0,0.0,0.0,0.0,0.0,0.0,0.0,0.0,0.0,0.0,0.0,0.0,0.0,0.0,0.0,0.0,0.0,0.0,0.0,0.0,0.0,0.0,0.0,0.0,0.0,0.0,0.0,0.0,0.0,0.0,0.0,0.0,0.0,0.0,0.0,0.0,0.0,0.0,0.0,0.0,0.0,0.0,0.0,0.0,0.0,0.0,0.0,0.0,0.0,0.0,0.0,0.0,0.0,0.0,0.0,0.0,0.0,0.0,0.0,0.0,0.0,0.0,0.0,0.0,0.0,0.0,0.0,0.0,0.0,0.0,0.0,0.0,0.0,0.0,0.0,0.0,0.0,0.0,0.0,0.0,0.0,0.0,0.0,0.0,0.0,0.0,0.0,0.0,0.0,0.0,0.0,0.0,0.0,0.0,0.0,0.0,0.0,0.0,0.0,0.0,0.0,0.0,0.0,0.0,0.0,0.0,0.0,0.0,0.0,0.0,0.0,0.0,0.0,0.0,0.0,0.0,0.0,0.0,0.0,0.0,0.0,0.0,0.0,0.0,0.0,0.0,0.0,0.0,0.0,0.0,0.0,0.0,0.0,0.0,0.0,0.0,0.0,0.0,0.0,0.0,0.0,0.0,0.0,0.0,0.0,0.0,0.0,0.0,0.0,0.0,0.0,0.0,0.0,0.0,0.0,0.0,0.0,0.0,0.0,0.0,0.0,0.0,0.0,0.0,0.0,0.0,0.0,0.0,0.0,0.0,0.0,0.0,0.0,0.0,0.0,0.0,0.0,0.0,0.0,0.0,0.0,0.0,0.0,0.0,0.0,0.0,0.0,0.0,0.0,0.0,0.0,0.0,0.0,0.0,0.0,0.0,0.0,0.0,0.0,0.0,0.0,0.0,0.0,0.0,0.0,0.0,0.0,0.0,0.0,0.0,0.0,0.0,0.0,0.0,0.0,0.0,0.0,0.0,0.0,0.0,0.0,0.0,0.0,0.0,0.0,0.0,0.0,0.0,0.0,0.0,0.0,0.0,0.0,0.0,0.0,0.0,0.0,0.0,0.0,0.0,0.0,0.0,0.0,0.0,0.0,0.0,0.0,0.0,0.0,0.0,0.0,0.0,0.0,0.0,0.0,0.0,0.0,0.0,0.0,0.0,0.0,0.0,0.0,0.0,0.0,0.0,0.0,0.0,0.0,0.0,0.0,0.0,0.0,0.0,0.0,0.0,0.0,0.0,0.0,0.0,0.0,0.0,0.0,0.0,0.0,0.0,0.0,0.0,0.0,0.0,0.0,0.0,0.0,0.0,0.0,0.0,0.0,0.0,0.0,0.0,0.0,0.0,0.0,0.0,0.0,0.0,0.0,0.0,0.0,0.0,0.0,0.0,0.0,0.0,0.0,0.0,0.0,0.0,0.0,0.0,0.0,0.0,0.0,0.0,0.0,0.0,0.0,0.0,0.0,0.0,0.0,0.0,0.0,0.0,0.0,0.0,0.0,0.0,0.0,0.0,0.0,0.0,0.0,0.0,0.0,0.0,0.0,0.0,0.0,0.0,0.0,0.0,0.0,0.0,0.0,0.0,0.0,0.0,0.0,0.0,0.0,0.0,0.0,0.0,0.0,0.0,0.0,0.0,0.0,0.0,0.0,0.0,0.0,0.0,0.0,0.0,0.0,0.0,0.0,0.0,0.0,0.0,0.0,0.0,0.0,0.0,0.0,0.0,0.0,0.0,0.0,0.0,0.0,0.0,0.0,0.0,0.0,0.0,0.0,0.0,0.0,0.0,0.0,0.0,0.0,0.0,0.0,0.0,0.0,0.0,0.0,0.0,0.0,0.0,0.0,0.0,0.0,0.0,0.0,0.0,0.0,0.0,0.0,0.0,0.0,0.0,0.0,0.0,0.0,0.0,0.0,0.0,0.0,0.0,0.0,0.0,0.0,0.0,0.0,0.0,0.0,0.0,0.0,0.0,0.0,0.0,0.0,0.0,0.0,0.0,0.0,0.0,0.0,0.0,0.0,0.0,0.0,0.0,0.0,0.0,0.0,0.0,0.0,0.0,0.0,0.0,0.0,0.0,0.0,0.0,0.0,0.0,0.0,0.0,0.0,0.0,0.0,0.0,0.0,0.0,0.0,0.0,0.0,0.0,0.0,0.0,0.0,0.0,0.0,0.0,0.0,0.0,0.0,0.0,0.0,0.0,0.0,0.0,0.0,0.0,0.0,0.0,0.0,0.0,0.0,0.0,0.0,0.0,0.0,0.0,0.0,0.0,0.0,0.0,0.0,0.0,0.0,0.0,0.0,0.0,0.0,0.0,0.0,0.0,0.0,0.0,0.0,0.0,0.0,0.0,0.0,0.0,0.0,0.0,0.0,0.0,0.0,0.0,0.0,0.0,0.0,0.0,0.0,0.0,0.0,0.0,0.0,0.0,0.0,0.0,0.0,0.0,0.0,0.0,0.0,0.0,0.0,0.0,0.0,0.0,0.0,0.0,0.0,0.0,0.0,0.0,0.0,0.0,0.0,0.0,0.0,0.0,0.0,0.0,0.0,0.0,0.0,0.0,0.0,0.0,0.0,0.0,0.0,0.0,0.0,0.0,0.0,0.0,0.0,0.0,0.0,0.0,0.0,0.0,0.0,0.0,0.0,0.0,0.0,0.0,0.0,0.0,0.0,0.0,1.9891,0.0,0.0,0.0,0.0,0.0,0.0,0.0,0.0,0.0,0.0,0.0,0.0,0.0,0.0,0.0,0.0,0.0,0.0,0.0,0.0,0.0,0.0,0.0,0.0,0.0,0.0,0.0,0.0,0.0,0.0,0.0,0.0,0.0,0.0,0.0,0.0,0.0,0.0,0.0,0.0,0.0,0.0,0.0,0.0,0.0,0.0,0.0,0.0,0.0,0.0,0.0,0.0,0.0,0.0,0.0,0.0,0.0,0.0,0.0,0.0,0.0,0.0,0.0,0.0,0.0,0.0,0.0,0.0,0.0,0.0,0.0,0.0,0.0,0.0,0.0,0.0,0.0,0.0,0.0,0.0,0.0,0.0,0.0,0.0,0.0,0.0,0.0,0.0,0.0,0.0,0.0,0.0,0.0,0.0,0.0,0.0,0.0,0.0,0.0,0.0,0.0,0.0,0.0,0.0,0.0,0.0,0.0,0.0,0.0,0.0,2.292,2.1135,2.2781,2.2543,2.0142,0.0,0.0,0.0,0.0,0.0,0.0,0.0,0.0,0.0,0.0,0.0,0.0,0.0,0.0,0.0,0.0,0.0,0.0,0.0,0.0,0.0,0.0,0.0,0.0,0.0,0.0,0.0,0.0,0.0,0.0,0.0,0.0,0.0,0.0,0.0,0.0,0.0,0.0,0.0,0.0,0.0,0.0,0.0,0.0,0.0,0.0,0.0,0.0,0.0,0.0,0.0,0.0,0.0,0.0,0.0,0.0,0.0,0.0,0.0,0.0,0.0,0.0,0.0,0.0,0.0,0.0,0.0,0.0,0.0,0.0,0.0,0.0,0.0,0.0,0.0,0.0,0.0,0.0,0.0,0.0,0.0,0.0,0.0,0.0,0.0,0.0,0.0,0.0,0.0,0.0,0.0,0.0,0.0,0.0,0.0,0.0,0.0,0.0,0.0,0.0,0.0,0.0,0.0,0.0,0.0,0.0,0.0,0.0,0.0,0.0,0.0,0.0,2.3821,2.3533,2.1459,0.0,0.0,0.0,0.0,0.0,0.0,0.0,0.0,0.0,0.0,0.0,0.0,0.0,0.0,0.0,0.0,0.0,0.0,0.0,0.0,0.0,0.0,0.0,0.0,0.0,0.0,0.0,0.0,0.0,0.0,0.0,0.0,0.0,0.0,0.0,0.0,0.0,0.0,0.0,0.0,0.0,0.0,0.0,0.0,0.0,0.0,0.0,0.0,0.0,0.0,0.0,0.0,0.0,0.0,0.0,0.0,0.0,0.0,0.0,0.0,0.0,0.0,0.0,0.0,0.0,0.0,0.0,0.0,0.0,0.0,0.0,0.0,0.0,0.0,0.0,0.0,0.0,0.0,0.0,0.0,0.0,0.0,0.0,0.0,0.0,0.0,0.0,0.0,0.0,0.0,0.0,0.0,0.0,0.0,0.0,0.0,0.0,0.0,0.0,0.0,0.0,0.0,0.0,0.0,0.0,0.0,0.0,0.0,0.0,0.0,2.4109,2.5983,2.666,0.0,2.4852,0.0,0.0,0.0,0.0,0.0,0.0,0.0,0.0,0.0,0.0,0.0,0.0,0.0,0.0,0.0,0.0,0.0,0.0,0.0,0.0,0.0,0.0,0.0,0.0,0.0,0.0,0.0,0.0,0.0,0.0,0.0,0.0,0.0,0.0,0.0,0.0,0.0,0.0,0.0,0.0,0.0,0.0,0.0,0.0,0.0,0.0,0.0,0.0,0.0,0.0,0.0,0.0,0.0,0.0,0.0,0.0,0.0,0.0,0.0,0.0,0.0,0.0,0.0,0.0,0.0,0.0,0.0,0.0,0.0,0.0,0.0,0.0,0.0,0.0,0.0,0.0,0.0,0.0,0.0,0.0,0.0,0.0,0.0,0.0,0.0,0.0,0.0,0.0,0.0,0.0,0.0,0.0,0.0,0.0,0.0,0.0,0.0,0.0,0.0,0.0,0.0,0.0,0.0,0.0,0.0,0.0,0.0,0.0,0.0,0.0,2.5678,2.7112,2.6604,2.5799,0.0,0.0,0.0,0.0,0.0,0.0,0.0,0.0,0.0,0.0,0.0,0.0,0.0,0.0,0.0,0.0,0.0,0.0,0.0,0.0,0.0,0.0,0.0,0.0,0.0,0.0,0.0,0.0,0.0,0.0,0.0,0.0,0.0,0.0,0.0,0.0,0.0,0.0,0.0,0.0,0.0,0.0,0.0,0.0,0.0,0.0,0.0,0.0,0.0,0.0,0.0,0.0,0.0,0.0,0.0,0.0,0.0,0.0,0.0,0.0,0.0,0.0,0.0,0.0,0.0,0.0,0.0,0.0,0.0,0.0,0.0,0.0,0.0,0.0,0.0,0.0,0.0,0.0,0.0,0.0,0.0,0.0,0.0,0.0,0.0,0.0,0.0,0.0,0.0,0.0,0.0,0.0,0.0,0.0,0.0,0.0,0.0,0.0,0.0,0.0,0.0,0.0,0.0,0.0,0.0,0.0,0.0,0.0,0.0,0.0,2.6525,2.7048,2.8415,2.7047,2.5793,2.4891,0.0,0.0,0.0,0.0,0.0,0.0,0.0,0.0,0.0,0.0,0.0,0.0,0.0,0.0,0.0,0.0,0.0,0.0,0.0,0.0,0.0,0.0,0.0,0.0,0.0,0.0,0.0,0.0,0.0,0.0,0.0,0.0,0.0,0.0,0.0,0.0,0.0,0.0,0.0,0.0,0.0,0.0,0.0,0.0,0.0,0.0,0.0,0.0,0.0,0.0,0.0,0.0,0.0,0.0,0.0,0.0,0.0,0.0,0.0,0.0,0.0,0.0,0.0,0.0,0.0,0.0,0.0,0.0,0.0,0.0,0.0,0.0,0.0,0.0,0.0,0.0,0.0,0.0,0.0,0.0,0.0,0.0,0.0,0.0,0.0,0.0,0.0,0.0,0.0,0.0,0.0,0.0,0.0,0.0,0.0,0.0,0.0,0.0,0.0,0.0,0.0,0.0,0.0,0.0,0.0,0.0,0.0,0.0,3.0698,2.8153,2.8029,3.0844,2.887,2.7402,0.0,0.0,0.0,0.0,0.0,0.0,0.0,0.0,0.0,0.0,0.0,0.0,0.0,0.0,0.0,0.0,0.0,0.0,0.0,0.0,0.0,0.0,0.0,0.0,0.0,0.0,0.0,0.0,0.0,0.0,0.0,0.0,0.0,0.0,0.0,0.0,0.0,0.0,0.0,0.0,0.0,0.0,0.0,0.0,0.0,0.0,0.0,0.0,0.0,0.0,0.0,0.0,0.0,0.0,0.0,0.0,0.0,0.0,0.0,0.0,0.0,0.0,0.0,0.0,0.0,0.0,0.0,0.0,0.0,0.0,0.0,0.0,0.0,0.0,0.0,0.0,0.0,0.0,0.0,0.0,0.0,0.0,0.0,0.0,0.0,0.0,0.0,0.0,0.0,0.0,0.0,0.0,0.0,0.0,0.0,0.0,0.0,0.0,0.0,0.0,0.0,0.0,0.0,0.0,0.0,0.0,0.0,0.0,0.0,2.8077,2.8564,2.9809,3.1834,2.9455,2.8229,0.0,0.0,0.0,0.0,0.0,0.0,0.0,0.0,0.0,0.0,0.0,0.0,0.0,0.0,0.0,0.0,0.0,0.0,0.0,0.0,0.0,0.0,0.0,0.0,0.0,0.0,0.0,0.0,0.0,0.0,0.0,0.0,0.0,0.0,0.0,0.0,0.0,0.0,0.0,0.0,0.0,0.0,0.0,0.0,0.0,0.0,0.0,0.0,0.0,0.0,0.0,0.0,0.0,0.0,0.0,0.0,0.0,0.0,0.0,0.0,0.0,0.0,0.0,0.0,0.0,0.0,0.0,0.0,0.0,0.0,0.0,0.0,0.0,0.0,0.0,0.0,0.0,0.0,0.0,0.0,0.0,0.0,0.0,0.0,0.0,0.0,0.0,0.0,0.0,0.0,0.0,0.0,0.0,0.0,0.0,0.0,0.0,0.0,0.0,0.0,0.0,0.0,0.0,0.0,0.0,0.0,0.0,0.0,0.0,2.7625,0.0,3.1438,3.1653,2.9682,2.8281,0.0,0.0,0.0,0.0,0.0,0.0,0.0,0.0,0.0,0.0,0.0,0.0,0.0,0.0,0.0,0.0,0.0,0.0,0.0,0.0,0.0,0.0,0.0,0.0,0.0,0.0,0.0,0.0,0.0,0.0,0.0,0.0,0.0,0.0,0.0,0.0,0.0,0.0,0.0,0.0,0.0,0.0,0.0,0.0,0.0,0.0,0.0,0.0,0.0,0.0,0.0,0.0,0.0,0.0,0.0,0.0,0.0,0.0,0.0,0.0,0.0,0.0,0.0,0.0,0.0,0.0,0.0,0.0,0.0,0.0,0.0,0.0,0.0,0.0,0.0,0.0,0.0,0.0,0.0,0.0,0.0,0.0,0.0,0.0,0.0,0.0,0.0,0.0,0.0,0.0,0.0,0.0,0.0,0.0,0.0,0.0,0.0,0.0,0.0,0.0,0.0,0.0,0.0,0.0,0.0,0.0,0.0,0.0,2.6367,3.0101,3.2478,3.2613,3.0374,2.9642,2.7597,0.0,0.0,0.0,0.0,0.0,0.0,0.0,0.0,0.0,0.0,0.0,0.0,0.0,0.0,0.0,0.0,0.0,0.0,0.0,0.0,0.0,0.0,0.0,0.0,0.0,0.0,0.0,0.0,0.0,0.0,0.0,0.0,0.0,0.0,0.0,0.0,0.0,0.0,0.0,0.0,0.0,0.0,0.0,0.0,0.0,0.0,0.0,0.0,0.0,0.0,0.0,0.0,0.0,0.0,0.0,0.0,0.0,0.0,0.0,0.0,0.0,0.0,0.0,0.0,0.0,0.0,0.0,0.0,0.0,0.0,0.0,0.0,0.0,0.0,0.0,0.0,0.0,0.0,0.0,0.0,0.0,0.0,0.0,0.0,0.0,0.0,0.0,0.0,0.0,0.0,0.0,0.0,0.0,0.0,0.0,0.0,0.0,0.0,0.0,0.0,0.0,0.0,0.0,0.0,0.0,0.0,0.0,0.0,0.0,2.8396,3.0806,3.2325,3.2634,3.0057,2.8919,0.0,0.0,0.0,0.0,0.0,0.0,0.0,0.0,0.0,0.0,0.0,0.0,0.0,0.0,0.0,0.0,0.0,0.0,0.0,0.0,0.0,0.0,0.0,0.0,0.0,0.0,0.0,0.0,0.0,0.0,0.0,0.0,0.0,0.0,0.0,0.0,0.0,0.0,0.0,0.0,0.0,0.0,0.0,0.0,0.0,0.0,0.0,0.0,0.0,0.0,0.0,0.0,0.0,0.0,0.0,0.0,0.0,0.0,0.0,0.0,0.0,0.0,0.0,0.0,0.0,0.0,0.0,0.0,0.0,0.0,0.0,0.0,0.0,0.0,0.0,0.0,0.0,0.0,0.0,0.0,0.0,0.0,0.0,0.0,0.0,0.0,0.0,0.0,0.0,0.0,0.0,0.0,0.0,0.0,0.0,0.0,0.0,0.0,0.0,0.0,0.0,0.0,0.0,0.0,0.0,0.0,0.0,0.0,0.0,2.9777,3.1736,3.2884,3.3019,3.0657,2.9562,2.9904,0.0,0.0,0.0,0.0,0.0,0.0,0.0,0.0,0.0,0.0,0.0,0.0,0.0,0.0,0.0,0.0,0.0,0.0,0.0,0.0,0.0,0.0,0.0,0.0,0.0,0.0,0.0,0.0,0.0,0.0,0.0,0.0,0.0,0.0,0.0,0.0,0.0,0.0,0.0,0.0,0.0,0.0,0.0,0.0,0.0,0.0,0.0,0.0,0.0,0.0,0.0,0.0,0.0,0.0,0.0,0.0,0.0,0.0,0.0,0.0,0.0,0.0,0.0,0.0,0.0,0.0,0.0,0.0,0.0,0.0,0.0,0.0,0.0,0.0,0.0,0.0,0.0,0.0,0.0,0.0,0.0,0.0,0.0,0.0,0.0,0.0,0.0,0.0,0.0,0.0,0.0,0.0,0.0,0.0,0.0,0.0,0.0,0.0,0.0,0.0,0.0,0.0,0.0,0.0,0.0,0.0,0.0,0.0,3.349,3.4853,3.4409,3.2068,3.1559,2.9851,0.0,0.0,0.0,0.0,0.0,0.0,0.0,0.0,0.0,0.0,0.0,0.0,0.0,0.0,0.0,0.0,0.0,0.0,0.0,0.0,0.0,0.0,0.0,0.0,0.0,0.0,0.0,0.0,0.0,0.0,0.0,0.0,0.0,0.0,0.0,0.0,0.0,0.0,0.0,0.0,0.0,0.0,0.0,0.0,0.0,0.0,0.0,0.0,0.0,0.0,0.0,0.0,0.0,0.0,0.0,0.0,0.0,0.0,0.0,0.0,0.0,0.0,0.0,0.0,0.0,0.0,0.0,0.0,0.0,0.0,0.0,0.0,0.0,0.0,0.0,0.0,0.0,0.0,0.0,0.0,0.0,0.0,0.0,0.0,0.0,0.0,0.0,0.0,0.0,0.0,0.0,0.0,0.0,0.0,0.0,0.0,0.0,0.0,0.0,0.0,0.0,0.0,0.0,0.0,0.0,0.0,0.0,0.0,0.0,3.5962,3.6985,3.6913,3.5741,3.3708,3.2204,0.0,0.0,0.0,0.0,0.0,0.0,0.0,0.0,0.0,0.0,0.0,0.0,0.0,0.0,0.0,0.0,0.0,0.0,0.0,0.0,0.0,0.0,0.0,0.0,0.0,0.0,0.0,0.0,0.0,0.0,0.0,0.0,0.0,0.0,0.0,0.0,0.0,0.0,0.0,0.0,0.0,0.0,0.0,0.0,0.0,0.0,0.0,0.0,0.0,0.0,0.0,0.0,0.0,0.0,0.0,0.0,0.0,0.0,0.0,0.0,0.0,0.0,0.0,0.0,0.0,0.0,0.0,0.0,0.0,0.0,0.0,0.0,0.0,0.0,0.0,0.0,0.0,0.0,0.0,0.0,0.0,0.0,0.0,0.0,0.0,0.0,0.0,0.0,0.0,0.0,0.0,0.0,0.0,0.0,0.0,0.0,0.0,0.0,0.0,0.0,0.0,0.0,0.0,0.0,0.0,0.0,0.0,0.0,3.4714,3.6874,3.8449,3.8909,3.8174,3.5953,3.4057,0.0,0.0,0.0,0.0,0.0,0.0,0.0,0.0,0.0,0.0,0.0,0.0,0.0,0.0,0.0,0.0,0.0,0.0,0.0,0.0,0.0,0.0,0.0,0.0,0.0,0.0,0.0,0.0,0.0,0.0,0.0,0.0,0.0,0.0,0.0,0.0,0.0,0.0,0.0,0.0,0.0,0.0,0.0,0.0,0.0,0.0,0.0,0.0,0.0,0.0,0.0,0.0,0.0,0.0,0.0,0.0,0.0,0.0,0.0,0.0,0.0,0.0,0.0,0.0,0.0,0.0,0.0,0.0,0.0,0.0,0.0,0.0,0.0,0.0,0.0,0.0,0.0,0.0,0.0,0.0,0.0,0.0,0.0,0.0,0.0,0.0,0.0,0.0,0.0,0.0,0.0,0.0,0.0,0.0,0.0,0.0,0.0,0.0,0.0,0.0,0.0,0.0,0.0,0.0,0.0,0.0,0.0,0.0,3.5192,3.7118,3.9236,4.0122,3.9659,3.7848,3.5388,0.0,0.0,0.0,0.0,0.0,0.0,0.0,0.0,0.0,0.0,0.0,0.0,0.0,0.0,0.0,0.0,0.0,0.0,0.0,0.0,0.0,0.0,0.0,0.0,0.0,0.0,0.0,0.0,0.0,0.0,0.0,0.0,0.0,0.0,0.0,0.0,0.0,0.0,0.0,0.0,0.0,0.0,0.0,0.0,0.0,0.0,0.0,0.0,0.0,0.0,0.0,0.0,0.0,0.0,0.0,0.0,0.0,0.0,0.0,0.0,0.0,0.0,0.0,0.0,0.0,0.0,0.0,0.0,0.0,0.0,0.0,0.0,0.0,0.0,0.0,0.0,0.0,0.0,0.0,0.0,0.0,0.0,0.0,0.0,0.0,0.0,0.0,0.0,0.0,0.0,0.0,0.0,0.0,0.0,0.0,0.0,0.0,0.0,0.0,0.0,0.0,0.0,0.0,0.0,0.0,0.0,0.0,0.0,3.5684,3.9273,3.845,3.8909,4.0849,3.7709,3.533,0.0,0.0,0.0,0.0,0.0,0.0,0.0,0.0,0.0,0.0,0.0,0.0,0.0,0.0,0.0,0.0,0.0,0.0,0.0,0.0,0.0,0.0,0.0,0.0,0.0,0.0,0.0,0.0,0.0,0.0,0.0,0.0,0.0,0.0,0.0,0.0,0.0,0.0,0.0,0.0,0.0,0.0,0.0,0.0,0.0,0.0,0.0,0.0,2.2796,0.0,0.0,0.0,0.0,0.0,0.0,0.0,0.0,0.0,0.0,0.0,0.0,0.0,0.0,0.0,0.0,0.0,0.0,0.0,0.0,0.0,0.0,0.0,0.0,0.0,0.0,0.0,0.0,0.0,0.0,0.0,0.0,0.0,0.0,0.0,0.0,0.0,0.0,0.0,0.0,0.0,0.0,0.0,0.0,0.0,0.0,0.0,0.0,0.0,0.0,0.0,0.0,0.0,0.0,0.0,0.0,0.0,0.0,0.0,3.5115,3.7984,3.7446,3.7802,3.9159,3.6738,3.5258,0.0,0.0,0.0,0.0,0.0,0.0,0.0,0.0,0.0,0.0,0.0,0.0,0.0,0.0,0.0,0.0,0.0,0.0,0.0,0.0,0.0,0.0,0.0,0.0,0.0,0.0,0.0,0.0,0.0,0.0,0.0,0.0,0.0,0.0,0.0,0.0,0.0,0.0,0.0,0.0,0.0,0.0,0.0,0.0,0.0,0.0,0.0,0.0,0.0,0.0,0.0,0.0,0.0,0.0,0.0,0.0,0.0,0.0,0.0,0.0,0.0,0.0,0.0,0.0,0.0,0.0,0.0,0.0,0.0,0.0,0.0,0.0,0.0,0.0,0.0,0.0,0.0,0.0,0.0,0.0,0.0,0.0,0.0,0.0,0.0,0.0,0.0,0.0,0.0,0.0,0.0,0.0,0.0,0.0,0.0,0.0,0.0,0.0,0.0,0.0,0.0,0.0,0.0,0.0,0.0,0.0,0.0,3.2637,3.4114,3.5897,3.6244,3.6562,3.6927,3.5504,3.4887,3.5223,0.0,0.0,0.0,0.0,0.0,0.0,0.0,0.0,0.0,0.0,0.0,0.0,0.0,0.0,0.0,0.0,0.0,0.0,0.0,0.0,0.0,0.0,0.0,0.0,0.0,0.0,0.0,0.0,0.0,0.0,0.0,0.0,0.0,0.0,0.0,0.0,0.0,0.0,2.5161,2.4947,0.0,0.0,0.0,0.0,0.0,0.0,0.0,0.0,2.3622,0.0,0.0,0.0,0.0,0.0,0.0,0.0,0.0,0.0,0.0,0.0,0.0,0.0,0.0,0.0,0.0,0.0,0.0,0.0,0.0,0.0,0.0,0.0,0.0,0.0,0.0,0.0,0.0,0.0,0.0,0.0,0.0,0.0,0.0,0.0,0.0,0.0,0.0,0.0,0.0,0.0,0.0,0.0,0.0,0.0,0.0,0.0,0.0,0.0,0.0,0.0,0.0,0.0,0.0,0.0,0.0,3.3847,3.2597,3.3295,3.6115,3.4862,3.488,3.6313,3.4475,3.3541,3.3724,0.0,0.0,0.0,0.0,0.0,0.0,0.0,0.0,0.0,0.0,0.0,0.0,0.0,0.0,0.0,0.0,0.0,0.0,0.0,0.0,0.0,0.0,0.0,0.0,0.0,0.0,0.0,0.0,0.0,0.0,0.0,0.0,0.0,0.0,0.0,0.0,0.0,0.0,0.0,2.7409,2.7751,0.0,0.0,0.0,0.0,0.0,0.0,0.0,0.0,2.3212,0.0,0.0,0.0,0.0,0.0,0.0,0.0,0.0,0.0,0.0,0.0,0.0,0.0,0.0,0.0,0.0,0.0,0.0,0.0,0.0,0.0,0.0,0.0,0.0,0.0,0.0,0.0,0.0,0.0,0.0,0.0,0.0,0.0,0.0,0.0,0.0,0.0,0.0,0.0,0.0,0.0,0.0,0.0,0.0,0.0,0.0,0.0,0.0,0.0,0.0,0.0,0.0,0.0,0.0,0.0,3.2739,3.1987,3.2625,3.4921,3.3941,3.3637,3.4183,3.3383,3.2232,0.0,0.0,0.0,0.0,0.0,0.0,0.0,0.0,0.0,0.0,0.0,0.0,0.0,0.0,0.0,0.0,0.0,0.0,0.0,0.0,0.0,0.0,0.0,0.0,0.0,0.0,0.0,0.0,0.0,0.0,0.0,0.0,0.0,0.0,0.0,0.0,0.0,0.0,0.0,0.0,2.7892,2.8303,2.8761,0.0,0.0,0.0,0.0,0.0,0.0,2.3952,2.3817,0.0,0.0,0.0,0.0,0.0,0.0,0.0,0.0,0.0,0.0,0.0,0.0,0.0,0.0,0.0,0.0,0.0,0.0,0.0,0.0,0.0,0.0,0.0,0.0,0.0,0.0,0.0,0.0,0.0,0.0,0.0,0.0,0.0,0.0,0.0,0.0,0.0,0.0,0.0,0.0,0.0,0.0,0.0,0.0,0.0,0.0,0.0,0.0,0.0,0.0,0.0,0.0,0.0,0.0,0.0,3.1466,3.1385,3.21,3.3702,3.3353,3.2862,3.2286,3.2406,3.1164,0.0,0.0,0.0,0.0,0.0,0.0,0.0,0.0,0.0,0.0,0.0,0.0,0.0,0.0,0.0,0.0,0.0,0.0,0.0,0.0,0.0,0.0,0.0,0.0,0.0,0.0,0.0,0.0,0.0,0.0,0.0,0.0,0.0,0.0,0.0,0.0,0.0,0.0,0.0,0.0,0.0,2.8944,2.9718,2.86,0.0,0.0,0.0,0.0,2.4513,2.5048,0.0,0.0,0.0,0.0,0.0,0.0,0.0,0.0,0.0,0.0,0.0,0.0,0.0,0.0,0.0,0.0,0.0,0.0,0.0,0.0,0.0,0.0,0.0,0.0,0.0,0.0,0.0,0.0,0.0,0.0,0.0,0.0,0.0,0.0,0.0,0.0,0.0,0.0,0.0,0.0,0.0,0.0,0.0,0.0,0.0,0.0,0.0,0.0,0.0,0.0,0.0,0.0,0.0,0.0,0.0,0.0,3.1187,3.1247,3.1928,3.3375,3.3334,3.2913,3.213,3.17,3.0674,0.0,0.0,0.0,0.0,0.0,0.0,0.0,0.0,0.0,0.0,0.0,0.0,0.0,0.0,0.0,0.0,0.0,0.0,0.0,0.0,0.0,0.0,0.0,0.0,0.0,0.0,0.0,0.0,0.0,0.0,0.0,0.0,0.0,0.0,0.0,0.0,0.0,0.0,0.0,0.0,0.0,3.1528,3.0384,3.0087,2.9618,0.0,0.0,0.0,2.6076,2.7229,0.0,0.0,0.0,0.0,0.0,0.0,0.0,0.0,0.0,0.0,0.0,0.0,0.0,0.0,0.0,0.0,0.0,0.0,0.0,0.0,0.0,0.0,0.0,0.0,0.0,0.0,0.0,0.0,0.0,0.0,0.0,0.0,0.0,0.0,0.0,0.0,0.0,0.0,0.0,0.0,0.0,0.0,0.0,0.0,0.0,0.0,0.0,0.0,0.0,0.0,0.0,0.0,0.0,0.0,0.0,2.8526,3.1205,3.1709,3.2487,3.3542,3.2998,3.2314,3.1546,3.0974,2.9727,0.0,0.0,0.0,0.0,0.0,0.0,0.0,0.0,0.0,0.0,0.0,0.0,0.0,0.0,0.0,0.0,0.0,0.0,0.0,0.0,0.0,0.0,0.0,0.0,0.0,0.0,0.0,0.0,0.0,0.0,0.0,0.0,0.0,0.0,0.0,0.0,0.0,0.0,0.0,0.0,0.0,0.0,3.2039,3.1435,0.0,0.0,0.0,2.7944,2.801,0.0,0.0,0.0,0.0,0.0,0.0,0.0,0.0,0.0,0.0,0.0,0.0,0.0,0.0,0.0,0.0,0.0,0.0,0.0,0.0,0.0,0.0,0.0,0.0,0.0,0.0,0.0,0.0,0.0,0.0,0.0,0.0,0.0,0.0,0.0,0.0,0.0,0.0,0.0,0.0,0.0,0.0,0.0,0.0,0.0,0.0,0.0,0.0,0.0,0.0,0.0,0.0,0.0,0.0,0.0,0.0,0.0,3.0917,3.1607,3.2316,3.3106,3.2365,3.1551,3.0825,3.016,0.0,0.0,0.0,0.0,0.0,0.0,0.0,0.0,0.0,0.0,0.0,0.0,0.0,0.0,0.0,0.0,0.0,0.0,0.0,0.0,0.0,0.0,0.0,0.0,0.0,0.0,0.0,2.6002,0.0,0.0,0.0,0.0,0.0,0.0,0.0,0.0,0.0,0.0,0.0,0.0,0.0,0.0,3.1968,3.3121,3.2676,3.2359,0.0,0.0,2.9359,2.9597,2.9093,2.813,0.0,0.0,0.0,0.0,0.0,0.0,0.0,0.0,0.0,0.0,0.0,0.0,0.0,0.0,0.0,0.0,0.0,0.0,0.0,0.0,0.0,0.0,0.0,0.0,0.0,0.0,0.0,0.0,0.0,0.0,0.0,0.0,0.0,0.0,0.0,0.0,0.0,0.0,0.0,0.0,0.0,0.0,0.0,0.0,0.0,0.0,0.0,0.0,0.0,0.0,0.0,0.0,0.0,0.0,0.0,3.0002,3.0265,3.076,3.1411,3.1286,3.0807,2.9989,2.9233,2.8122,0.0,0.0,0.0,0.0,0.0,0.0,0.0,0.0,0.0,0.0,0.0,0.0,0.0,0.0,0.0,0.0,0.0,0.0,0.0,0.0,0.0,0.0,0.0,0.0,0.0,0.0,0.0,0.0,0.0,0.0,0.0,0.0,0.0,0.0,0.0,0.0,0.0,0.0,0.0,0.0,0.0,3.2227,3.2931,3.3755,3.4226,0.0,0.0,3.1535,3.0426,3.0963,3.0256,2.663,0.0,0.0,0.0,0.0,0.0,0.0,0.0,0.0,0.0,0.0,0.0,0.0,0.0,0.0,0.0,0.0,0.0,0.0,0.0,0.0,0.0,0.0,0.0,0.0,0.0,0.0,0.0,0.0,0.0,0.0,0.0,0.0,0.0,0.0,0.0,0.0,0.0,0.0,0.0,0.0,0.0,0.0,0.0,0.0,0.0,0.0,0.0,0.0,0.0,0.0,0.0,0.0,0.0,2.9065,2.9977,3.1132,3.1574,3.1278,3.0641,3.0097,2.971,2.8951,2.7858,0.0,0.0,0.0,0.0,0.0,0.0,0.0,0.0,0.0,0.0,0.0,0.0,0.0,0.0,0.0,0.0,0.0,0.0,0.0,0.0,0.0,0.0,0.0,0.0,0.0,0.0,0.0,0.0,2.8842,2.8931,2.9246,0.0,0.0,0.0,0.0,0.0,0.0,0.0,0.0,0.0,0.0,3.3389,3.398,3.412,0.0,0.0,3.3744,3.2333,3.2383,3.1914,3.0744,2.8396,2.8426,0.0,0.0,0.0,0.0,0.0,0.0,0.0,0.0,0.0,0.0,0.0,0.0,0.0,0.0,0.0,0.0,0.0,0.0,0.0,0.0,0.0,0.0,0.0,0.0,0.0,0.0,0.0,0.0,0.0,0.0,0.0,0.0,0.0,0.0,0.0,0.0,0.0,0.0,0.0,0.0,0.0,0.0,0.0,0.0,0.0,0.0,0.0,0.0,0.0,0.0,0.0,0.0,2.9751,2.9957,3.1422,3.185,3.1245,3.0209,2.9638,2.9507,2.847,2.7441,0.0,0.0,0.0,0.0,0.0,0.0,0.0,0.0,0.0,0.0,0.0,0.0,0.0,0.0,0.0,0.0,0.0,0.0,0.0,0.0,0.0,0.0,0.0,0.0,0.0,0.0,0.0,0.0,3.0125,3.0117,3.0102,0.0,0.0,0.0,0.0,0.0,0.0,0.0,0.0,0.0,0.0,3.3955,3.4482,3.4403,3.4681,3.5731,3.3935,3.2651,3.3129,3.1984,3.0635,2.9432,0.0,0.0,0.0,0.0,0.0,0.0,0.0,0.0,0.0,0.0,0.0,0.0,0.0,0.0,0.0,0.0,0.0,0.0,0.0,0.0,0.0,0.0,0.0,0.0,0.0,0.0,0.0,0.0,0.0,0.0,2.7009,0.0,0.0,0.0,0.0,0.0,0.0,0.0,0.0,0.0,0.0,0.0,0.0,0.0,0.0,0.0,0.0,0.0,0.0,0.0,0.0,0.0,0.0,0.0,2.988,3.0752,3.1134,3.1061,2.9994,2.941,2.9361,2.769,2.6819,2.6982,0.0,0.0,0.0,0.0,0.0,0.0,0.0,0.0,0.0,0.0,0.0,0.0,0.0,0.0,0.0,0.0,0.0,0.0,0.0,0.0,0.0,0.0,0.0,0.0,0.0,0.0,3.0457,3.0392,3.04,0.0,0.0,0.0,0.0,0.0,0.0,0.0,0.0,0.0,0.0,3.3099,3.3694,3.4171,3.4654,3.4835,3.4552,3.3436,3.2491,3.2218,3.1115,2.9976,0.0,0.0,0.0,0.0,0.0,0.0,0.0,0.0,0.0,0.0,0.0,0.0,0.0,0.0,0.0,0.0,0.0,0.0,0.0,0.0,0.0,0.0,0.0,0.0,0.0,0.0,0.0,2.9607,2.9495,0.0,0.0,0.0,0.0,0.0,0.0,0.0,0.0,0.0,0.0,0.0,2.9268,2.9178,0.0,0.0,0.0,0.0,0.0,0.0,0.0,0.0,0.0,0.0,0.0,0.0,3.0106,2.984,3.1125,3.126,3.0139,2.9519,2.9204,2.9186,2.7959,2.725,2.713,0.0,0.0,0.0,0.0,0.0,0.0,0.0,0.0,0.0,0.0,0.0,0.0,0.0,0.0,0.0,0.0,0.0,0.0,0.0,0.0,0.0,0.0,0.0,0.0,0.0,3.0902,0.0,0.0,0.0,0.0,0.0,0.0,0.0,0.0,0.0,0.0,0.0,3.2606,3.2948,3.3906,3.4576,3.4596,3.4535,3.4582,0.0,0.0,0.0,0.0,0.0,0.0,0.0,0.0,0.0,0.0,0.0,0.0,0.0,0.0,3.1073,2.8772,2.7716,2.7401,2.7921,0.0,0.0,0.0,0.0,0.0,0.0,0.0,0.0,0.0,0.0,0.0,0.0,0.0,0.0,0.0,0.0,3.0549,0.0,0.0,0.0,0.0,0.0,0.0,0.0,0.0,2.9262,2.9707,3.0078,2.9974,3.0324,0.0,3.0647,3.0259,0.0,0.0,0.0,0.0,0.0,0.0,0.0,0.0,3.0745,3.0198,3.1454,3.1564,3.037,2.9506,2.9198,2.9463,2.8528,2.7715,2.7082,2.7319,2.7516,0.0,0.0,0.0,0.0,0.0,0.0,0.0,0.0,0.0,0.0,0.0,0.0,0.0,0.0,0.0,0.0,0.0,0.0,0.0,0.0,0.0,0.0,0.0,3.0843,0.0,0.0,0.0,0.0,0.0,0.0,0.0,0.0,0.0,3.2275,3.3026,3.3611,3.3744,3.4386,3.4747,3.4426,0.0,0.0,0.0,0.0,0.0,0.0,0.0,3.1651,3.0942,3.1112,3.1279,3.116,3.1889,3.2522,3.2606,0.0,0.0,3.0845,2.9707,2.919,2.961,2.9141,2.8699,2.887,2.8707,2.8586,0.0,0.0,0.0,0.0,0.0,0.0,0.0,0.0,3.2106,3.2571,0.0,3.1687,0.0,0.0,0.0,0.0,0.0,2.9424,0.0,0.0,3.0808,3.1314,3.1297,3.1475,3.1687,3.1929,3.2037,3.1864,3.1457,3.0198,0.0,0.0,0.0,0.0,0.0,0.0,3.0998,3.0835,3.161,3.1894,3.1525,2.9946,2.9402,3.0145,2.9351,2.8305,2.7023,2.8016,2.8063,2.6959,2.783,0.0,0.0,0.0,0.0,0.0,0.0,0.0,0.0,0.0,0.0,0.0,0.0,0.0,0.0,0.0,0.0,0.0,0.0,0.0,0.0,3.087,0.0,0.0,0.0,0.0,0.0,0.0,0.0,0.0,0.0,0.0,3.4186,3.4071,3.4156,3.4708,0.0,0.0,0.0,0.0,3.3198,3.2677,3.2404,3.2232,3.1966,3.169,3.1498,3.146,0.0,0.0,3.1629,3.2172,3.2722,3.3175,3.3161,3.3303,3.4037,3.2385,3.1399,3.2421,3.1156,3.0192,3.0483,3.0555,3.0757,3.2905,0.0,0.0,0.0,0.0,3.2749,3.359,3.4622,3.4915,3.4894,3.4633,3.3501,0.0,0.0,0.0,0.0,0.0,0.0,3.1849,3.2,3.2928,3.333,3.333,3.2912,3.2765,3.2892,3.2388,3.2179,3.217,3.14,3.0425,2.9329,0.0,0.0,0.0,0.0,3.0133,3.0107,3.0834,3.0908,3.0223,3.0036,3.0011,3.0194,3.0637,3.019,2.8768,2.9809,2.9758,2.8385,2.8847,0.0,0.0,0.0,0.0,0.0,0.0,0.0,0.0,0.0,0.0,0.0,0.0,0.0,0.0,0.0,0.0,0.0,0.0,0.0,3.1678,3.2303,3.2747,0.0,0.0,0.0,0.0,0.0,0.0,0.0,0.0,0.0,3.5058,3.4988,3.489,0.0,0.0,3.4293,3.3986,3.3643,3.3319,3.3091,0.0,0.0,0.0,3.1876,3.1635,3.1213,3.1449,3.2098,3.3195,3.3326,3.3484,3.4014,3.3941,3.3829,3.3776,3.3049,3.2338,3.2203,3.1493,3.0939,3.1073,3.1248,3.1431,3.5972,3.477,3.3524,3.3461,3.4249,3.4848,3.5389,3.5918,3.6389,3.6395,3.6,3.4825,3.3816,3.2954,3.1854,0.0,0.0,0.0,3.3094,3.3114,3.3859,3.4144,3.4051,3.3478,3.328,3.3388,3.2617,3.237,3.2657,3.2367,3.144,2.9912,0.0,0.0,2.9011,2.9562,2.981,2.9723,3.0247,3.0328,2.998,3.0508,3.0637,3.0258,3.1173,3.1102,2.993,3.0356,3.0236,2.9351,2.9402,2.9258,0.0,0.0,0.0,0.0,0.0,0.0,0.0,0.0,0.0,0.0,0.0,3.0604,0.0,0.0,0.0,0.0,3.1098,3.1656,3.2528,3.3085,0.0,0.0,0.0,0.0,0.0,0.0,0.0,3.5755,3.531,3.5083,3.5519,3.5416,3.5237,3.5056,3.4722,3.4401,3.4154,0.0,3.3437,3.3307,3.3028,3.2688,3.23,3.2038,3.171,3.1114,3.1365,3.2165,3.3416,3.3256,3.3211,3.3855,3.3721,3.3185,3.2736,3.2362,3.2226,3.2235,3.1881,3.1582,3.1511,3.1768,3.2075,3.7894,3.8014,3.5967,3.5209,3.5463,3.6328,3.6577,3.6489,3.7219,3.7427,3.7168,3.5915,3.5588,3.5976,3.4902,0.0,3.3372,3.3758,3.3837,3.3654,3.4182,3.4302,3.4096,3.3674,3.3546,3.3652,3.286,3.2642,3.2932,3.306,3.2328,3.083,3.0157,2.9855,2.9891,2.9971,2.9877,2.9644,2.9932,3.0273,3.0612,3.1286,3.1264,3.0548,3.13,3.1311,3.0451,3.0174,2.995,2.9836,2.9636,2.9501,2.9476,0.0,0.0,0.0,0.0,0.0,0.0,0.0,0.0,0.0,0.0,0.0,0.0,0.0,0.0,0.0,3.1679,0.0,3.3317,3.3466,0.0,0.0,0.0,3.4795,3.4799,3.5456,3.5921,3.5976,0.0,0.0,3.5679,0.0,3.5253,3.511,3.4821,3.4516,3.4233,3.3855,3.353,3.3225,3.3037,3.2834,3.2397,3.2039,3.1637,3.1137,3.1131,3.1648,3.2689,3.2383,3.2331,3.3297,3.277,3.1981,3.1182,3.1227,3.1435,3.2195,3.2093,3.1834,3.1707,3.2163,3.2647,4.0564,4.0682,4.0355,3.9597,3.8669,3.9607,4.0072,4.015,4.0326,3.9796,3.8735,3.7849,3.6429,3.4672,3.4653,3.4333,3.388,3.4723,3.5201,3.5411,3.6183,3.6262,3.5736,3.583,3.5255,3.4178,3.4074,3.379,3.3289,3.2701,3.2284,3.1933,3.0633,2.9628,2.9058,2.9722,2.9747,2.9107,3.0281,3.1157,3.1628,3.1832,3.2028,3.2282,3.2493,3.2,3.0779,3.1361,3.0956,2.9414,3.0047,2.9915,2.8661,2.9244,0.0,0.0,0.0,0.0,0.0,0.0,0.0,0.0,0.0,3.1288,3.0586,0.0,3.2363,0.0,3.2564,3.3165,3.3398,3.3994,0.0,0.0,3.5565,3.57,3.5698,3.5861,3.5958,3.5921,3.5836,3.5708,3.5568,3.5444,3.5297,3.5119,3.486,3.4537,3.4185,3.3959,3.3506,3.273,3.2817,3.2666,3.1716,3.1459,3.1393,3.1257,3.1213,3.1452,3.2152,3.1919,3.1891,3.2508,3.2353,3.183,3.1209,3.1182,3.1087,3.1,3.1075,3.1238,3.1197,3.1906,3.2527,4.1081,4.1295,4.2048,4.1849,4.1127,4.158,4.1638,4.1425,4.1521,4.0789,3.9418,3.8891,3.7446,3.5498,3.6144,3.6114,3.5618,3.6013,3.6437,3.6867,3.73,3.7235,3.679,3.677,3.6276,3.5411,3.518,3.4684,3.3873,3.3107,3.2389,3.1751,3.062,2.9618,2.8846,2.9332,2.9545,2.9448,3.0226,3.0965,3.1622,3.1867,3.234,3.3055,3.2729,3.2226,3.151,3.1404,3.084,2.9817,3.0402,3.0206,2.898,2.9535,2.9464,0.0,0.0,0.0,0.0,0.0,0.0,0.0,0.0,0.0,0.0,0.0,3.2822,0.0,3.3292,3.3723,3.4489,3.4985,3.5482,3.5957,3.6014,3.6012,3.6011,3.5977,3.5956,3.5899,3.5783,3.5684,3.5552,3.5424,3.53,3.5164,3.4974,3.4682,3.4298,3.4074,3.3663,3.2984,3.2719,3.2317,3.1244,3.1338,3.1449,3.1298,3.0963,3.0979,3.18,3.1195,3.0858,3.1664,3.145,3.0879,3.0386,3.0267,3.0082,2.9722,2.9878,3.0361,3.0888,3.1545,3.2093,4.0951,4.1256,4.2472,4.2996,4.2967,4.2841,4.2351,4.167,4.1833,4.1194,3.9933,3.9544,3.8615,3.7359,3.8344,3.835,3.7598,3.7351,3.749,3.7845,3.7752,3.7613,3.7468,3.7143,3.6951,3.6824,3.6098,3.5336,3.4555,3.3589,3.2426,3.1048,3.0421,2.9814,2.9246,2.9275,2.9605,3.0247,3.0159,3.049,3.1349,3.1932,3.2553,3.3117,3.2524,3.2147,3.205,3.0889,3.0297,3.0392,3.0569,3.0358,2.9701,2.992,3.0383,0.0,3.0625,0.0,0.0,0.0,0.0,0.0,0.0,0.0,0.0,3.1755,3.2969,3.4484,3.4063,3.4296,3.5716,3.5934,3.6003,3.6015,3.6014,3.601,3.6009,3.5949,3.5884,3.5882,3.5741,3.5625,3.5571,3.5411,3.5285,3.5198,3.5103,3.486,3.4517,3.4209,3.391,3.3533,3.2651,3.1875,3.1487,3.162,3.1638,3.124,3.0745,3.0591,3.1444,3.0489,2.9877,3.0806,3.0527,2.9806,2.9206,2.9161,2.8983,2.8601,2.8801,2.9408,3.0361,3.1033,3.1482,4.2807,4.2993,4.3709,4.3966,4.3851,4.4046,4.371,4.3025,4.2786,4.2139,4.1206,4.0595,3.9971,3.9392,3.9666,3.9229,3.8151,3.8155,3.7993,3.7719,3.7721,3.7739,3.781,3.7942,3.7677,3.7039,3.6346,3.5634,3.4869,3.2675,3.1495,3.1219,3.0478,3.0344,3.0826,0.0,0.0,0.0,3.1127,3.1466,3.2169,3.3053,3.3231,3.2607,3.258,0.0,3.0902,3.0576,3.0251,2.988,2.9935,0.0,0.0,0.0,0.0,0.0,0.0,0.0,0.0,0.0,0.0,0.0,3.2783,3.2563,3.2643,3.353,3.4251,3.4592,3.5107,3.5288,3.4976,3.5602,3.6003,3.6015,3.6014,3.6009,3.6005,3.5941,3.5885,3.588,3.5819,3.5708,3.5556,3.5451,3.5319,3.5215,3.5138,3.4974,3.4668,3.4379,3.3858,3.2811,3.2126,3.1842,3.2271,3.2004,3.1488,3.0893,3.0906,3.0704,3.0242,3.0273,3.0128,3.0353,3.0098,2.9798,2.9213,2.9114,2.8936,2.8477,2.8324,2.843,2.9104,3.0018,3.062,4.3549,0.0,4.435,4.4592,0.0,4.4835,4.4597,4.4,4.3212,4.2381,4.1471,4.1151,4.07,4.0206,4.0381,3.9922,3.9016,3.8838,3.8615,3.842,3.8113,3.7985,3.8038,3.8238,3.8136,3.7733,3.7424,3.6707,3.5536,3.3863,3.266,3.1933,3.1127,3.0943,3.1328,3.1048,3.0858,3.0797,3.0483,3.087,3.1953,3.2539,3.276,3.2624,0.0,0.0,0.0,0.0,0.0,0.0,0.0,0.0,0.0,0.0,0.0,3.2699,3.3058,3.3524,3.4035,3.4126,3.4153,3.4238,3.4297,3.4176,3.3824,3.3899,3.4312,3.5145,3.5257,3.5288,3.5345,3.5762,3.6009,3.6015,3.6009,3.6021,3.5992,3.594,3.5886,3.5882,3.5775,3.5629,3.5513,3.5405,3.5304,3.5212,3.511,3.485,3.4299,3.4244,3.3839,3.2588,3.2379,3.2224,3.2035,3.174,3.1288,3.0712,3.0047,2.9736,2.9733,2.9533,2.9547,2.9981,3.006,2.9738,2.9312,2.9098,2.8865,2.8493,2.8226,2.8105,2.8324,2.885,2.9502,4.4018,4.4076,4.4824,4.5113,4.5086,4.5363,4.519,4.4677,0.0,0.0,0.0,4.1448,4.1227,4.0778,4.0834,4.0501,3.9838,3.9335,3.9085,3.9012,3.8448,3.8209,3.8209,3.819,3.8198,3.8214,3.8146,3.7399,3.6038,3.5141,3.3945,3.2531,3.1906,3.174,3.1851,3.1216,3.084,3.0696,2.988,3.0146,3.1582,3.1726,3.208,3.2746,3.2061,3.1345,3.0668,3.0198,3.0326,3.1157,3.1982,3.2444,3.253,3.3361,3.3884,3.4029,3.4163,3.4565,3.5292,3.5441,3.5515,3.5534,3.5629,3.5432,3.479,3.4135,3.4345,3.5791,3.5251,3.5151,3.5911,3.6019,3.6012,3.6012,3.6021,3.6009,3.5978,3.5941,3.5888,3.5872,3.573,3.5577,3.5507,3.5411,3.5274,3.5198,3.5127,3.4756,3.4007,3.3911,3.3648,3.2871,3.2878,3.2717,3.1823,3.136,3.0939,3.0249,2.9265,2.883,2.9316,2.9201,2.9251,3.014,3.0087,2.9744,2.938,2.9106,2.8803,2.8468,2.8275,2.8088,2.7886,2.788,2.8373,4.4838,4.4818,4.5424,4.5563,4.5363,4.5641,4.5478,4.4903,4.3342,4.2178,4.1426,4.1648,4.1749,4.175,4.1289,4.0722,4.0125,3.9482,3.8885,0.0,3.8228,3.8209,3.8172,3.7628,3.7411,3.74,3.6886,3.6213,3.5408,3.4512,3.3287,3.2076,3.236,3.3037,3.3757,3.3064,3.2678,3.2732,3.1173,3.0802,3.1752,3.1896,3.2029,3.2183,3.1562,3.0836,3.0074,3.0589,3.0984,3.1204,3.1979,3.2448,3.261,3.3489,3.401,3.4112,3.4781,3.529,3.5441,3.556,3.5608,3.5664,3.5689,3.5689,3.5707,3.5613,3.5642,3.588,3.5752,3.5795,3.5988,3.6021,3.6013,3.6012,3.6021,3.5967,3.5912,3.5916,3.5882,3.5885,3.5767,3.5634,3.5513,3.5425,3.5333,3.5223,3.5075,3.4944,3.4415,3.3611,3.3253,3.3436,3.3368,3.2817,3.1941,3.1448,3.0598,2.9033,2.9575,2.9602,2.9222,2.9755,3.0188,3.0246,3.0167,2.9908,2.9441,2.919,2.8905,2.8493,2.8226,2.798,2.7815,2.7673,2.7687,4.5222,4.5222,4.5632,4.5709,4.5632,4.598,4.5782,4.5182,4.4535,4.3553,4.2476,4.255,4.2505,4.2225,4.1542,4.0876,4.0274,3.9571,3.9151,3.8976,3.9026,3.9094,3.9106,3.885,3.8508,3.8098,3.74,3.6676,3.5959,3.4746,3.3753,3.3169,3.3454,3.3849,3.4218,3.3526,3.3201,3.3222,3.2016,3.1779,3.2644,3.276,3.2851,3.2901,3.2204,3.1427,3.0654,3.0961,3.1386,3.1891,3.2722,3.3418,3.3993,3.4453,3.476,3.4848,3.5235,3.5481,3.556,3.5628,3.5702,3.5739,3.5788,3.5826,3.5878,3.5894,3.5894,3.5889,3.5887,3.5933,3.5998,3.6011,3.6015,3.6005,3.6009,3.5974,3.5919,3.5889,3.5882,3.5878,3.5778,3.5658,3.5575,3.5438,3.5338,3.5231,3.4871,3.4489,3.4576,3.3354,3.2715,3.3529,3.3222,3.2582,3.1879,3.0823,2.9982,2.933,2.9246,2.9401,2.9405,3.0131,3.0272,3.0423,3.0274,2.9951,2.9515,2.9198,2.8865,2.8517,2.8192,2.798,2.779,2.7539,2.7417,4.5555,4.5598,4.5803,4.5887,4.593,4.6284,4.6135,4.567,4.5671,4.4822,4.3529,4.3383,4.3057,4.247,4.174,4.1155,4.0673,3.9966,3.9632,3.9619,3.9939,3.9894,3.9609,3.9682,3.9322,3.8542,3.7806,3.7077,3.6287,3.5151,3.4498,3.434,3.4206,3.421,3.439,3.3907,3.3644,3.3631,3.3047,3.298,3.3395,3.3315,3.3336,3.3535,3.2817,3.2098,3.1507,3.1631,3.2074,3.2779,3.3621,3.4459,3.5171,3.5293,3.5369,3.5514,3.5515,3.556,3.5626,3.5687,3.5732,3.5822,3.5866,3.5888,3.5894,3.5904,3.5924,3.5904,3.5912,3.5955,3.6007,3.6015,3.6011,3.6014,3.6017,3.5981,3.5909,3.5883,3.5775,3.5654,3.5469,3.5347,3.5249,3.4962,3.4764,3.4799,3.4309,3.409,3.4382,3.3185,3.2583,3.305,3.2805,3.1983,3.1473,3.0277,2.9515,2.9702,2.9104,2.9214,2.9873,3.0051,3.0148,3.0534,3.0359,3.0017,2.9694,2.9312,2.8889,2.8493,2.8177,2.797,2.7765,2.7423,2.7246,4.6122,4.6122,4.6147,4.6189,4.6196,4.6435,4.6554,4.6529,4.6168,4.514,4.3753,4.3637,4.3171,4.2555,4.1917,4.1687,4.1651,4.0993,4.0279,3.982,4.0505,4.0097,3.892,3.8912,3.8523,3.7876,3.7165,3.653,3.5833,3.5541,3.5128,3.4476,3.3884,3.4012,3.4645,3.4674,3.4686,3.4766,3.4689,3.4252,3.3477,3.2789,3.2798,3.3583,3.277,3.2316,3.2303,3.2977,3.3468,3.3729,3.4485,3.5066,3.5258,3.5354,3.5448,3.556,3.5596,3.564,3.5752,3.5732,3.576,3.5872,3.5897,3.5897,3.5901,3.5958,3.5962,3.5935,3.5952,3.5987,3.6013,3.6015,3.6011,3.6014,3.6017,3.5981,3.5909,3.5894,3.5603,3.4715,3.4709,3.4483,3.4403,3.382,3.3523,3.419,3.4069,3.402,3.43,3.3105,3.2176,3.2616,3.2176,3.1205,3.0346,2.9705,2.939,2.9092,2.9208,2.9644,3.0196,3.0596,3.0828,3.0551,3.0443,3.0167,2.9814,2.9457,2.9068,2.8517,2.8177,2.7905,2.7625,2.731,2.717,4.6214,4.6214,4.6214,4.6295,4.6382,4.58,4.5833,4.6226,4.5285,4.4241,4.329,4.2843,4.2427,4.2045,4.1886,4.1869,4.1903,4.1242,4.1069,4.126,4.179,4.1662,4.1144,4.0711,4.0155,3.9342,3.8143,3.7163,3.639,3.5525,3.4695,3.4105,3.4148,3.4471,3.4831,3.4898,3.4946,3.503,3.5039,3.4822,3.4462,3.4046,3.4008,3.4254,3.3601,3.3192,3.3247,3.3584,3.3815,3.3961,3.4791,3.5078,3.4681,3.5199,3.529,3.4927,3.5356,3.5694,3.5797,3.5807,3.5845,3.5885,3.5897,3.5899,3.5908,3.5953,3.6003,3.598,3.5988,3.6013,3.6016,3.6013,3.6006,3.6013,3.6017,3.5984,3.596,3.5443,3.5097,3.5169,3.4794,3.4381,3.4245,3.3859,3.371,3.3968,3.3925,3.3933,3.3894,3.2504,3.1728,3.1834,3.1329,3.0864,3.047,2.9886,2.9758,3.0092,3.0143,3.0276,3.0796,3.0847,3.0855,3.0651,3.0506,3.0274,2.9826,2.9486,2.9121,2.8565,2.8014,2.7675,2.7423,2.7233,2.7161,4.6319,4.6284,4.6163,4.6077,4.5962,4.5172,4.5182,4.5566,4.4612,4.3609,4.2649,4.2231,4.1721,4.1287,4.1504,4.1683,4.1731,4.1505,4.1638,4.2186,4.2529,4.2649,4.2522,4.1824,4.1193,4.0403,3.8727,3.7359,3.637,3.5332,3.4439,3.4083,3.4528,3.486,3.4927,3.5001,3.5038,3.5092,3.5092,3.5101,3.5073,3.501,3.4945,3.4898,3.4459,3.4189,3.4189,3.4249,3.4313,3.4385,3.504,3.5154,3.4635,3.5213,3.5319,3.4839,3.533,3.5758,3.5819,3.5866,3.5894,3.5889,3.5925,3.5924,3.5929,3.5966,3.5993,3.6014,3.6015,3.6015,3.6014,3.6008,3.5921,3.5697,3.5644,3.5596,3.526,3.463,3.4354,3.4641,3.3917,3.3698,3.3633,3.3596,3.3647,3.3608,3.3551,3.3458,3.3101,3.206,3.1277,3.1209,3.082,3.0827,3.1026,3.0409,3.0362,3.0774,3.082,3.0634,3.1312,3.1137,3.0912,3.0773,3.0605,3.0295,2.9826,2.947,2.9075,2.8453,2.794,2.7549,2.7361,2.7207,2.7067,4.659,4.6472,4.6006,4.5383,4.4692,4.4785,4.4952,4.5019,4.4426,4.3396,4.2103,4.208,4.1342,4.0107,4.0683,4.1062,4.1337,4.1924,4.1981,4.1711,4.2377,4.243,4.1721,4.1062,4.075,4.0532,3.8551,3.6637,3.512,3.4881,3.4781,3.4774,3.4965,3.5012,3.5115,3.5189,3.5131,3.5292,3.5167,3.5119,3.5153,3.5134,3.5147,3.5167,3.5113,3.5078,3.5114,3.5185,3.5246,3.5302,3.5362,3.5397,3.5406,3.5502,3.5571,3.5645,3.5756,3.5822,3.5824,3.586,3.5901,3.591,3.5956,3.5989,3.5988,3.5897,3.5918,3.6015,3.5935,3.5914,3.599,3.5884,3.562,3.5027,3.4802,3.4402,3.373,3.3704,3.2969,3.2598,3.2516,3.2454,3.21,3.2475,3.2978,3.2991,3.2806,3.268,3.244,3.2067,3.1552,3.1013,3.1004,3.1359,3.1084,3.08,3.0802,3.115,3.122,3.0698,3.1028,3.1266,3.1072,3.0875,3.0712,3.0363,2.9832,2.9341,2.8912,2.8405,2.794,2.7575,2.7361,2.7159,2.7029,4.5792,4.5281,4.4732,4.4605,4.4716,4.3969,4.3711,4.3699,4.2649,4.1655,4.0891,4.0953,4.0418,3.9412,4.023,4.0834,4.1264,4.1625,4.1699,4.1616,4.2037,4.2095,4.1841,4.1217,4.0885,4.0672,3.947,3.801,3.6513,3.5996,3.5751,3.5894,3.6388,3.6709,3.6632,3.6221,3.6228,3.6599,3.5804,3.5458,3.596,3.6023,3.605,3.6034,3.5537,3.5258,3.5281,3.5374,3.543,3.5469,3.5547,3.5333,3.4805,3.4823,3.4909,3.5016,3.5535,3.5616,3.521,3.5585,3.5912,3.5946,3.5984,3.6011,3.5914,3.5527,3.539,3.5779,3.5443,3.5379,3.5762,3.5521,3.5279,3.5367,3.454,3.3986,3.4072,3.3724,3.3342,3.3491,3.3476,3.3211,3.2722,3.3186,3.3405,3.2953,3.3096,3.2923,3.2364,3.2064,3.1752,3.1369,3.1629,3.2022,3.186,3.1632,3.1565,3.1793,3.1812,3.1438,3.1506,3.1308,3.1112,3.0935,3.0794,3.0363,2.9804,2.9121,2.8692,2.8308,2.784,2.7665,2.7437,2.7248,2.7081,4.514,4.453,4.4151,4.4162,4.4313,4.3523,4.3178,4.3194,4.2321,4.1549,4.1031,4.1104,4.0713,4.0128,4.0556,4.1033,4.1371,4.1245,4.1192,4.1329,4.1509,4.176,4.1863,4.1065,4.0755,4.0804,3.9936,3.8704,3.7514,3.6919,3.672,3.6777,3.7404,3.7697,3.76,3.7141,3.7205,3.7432,3.6654,3.6411,3.6883,3.701,3.6907,3.6627,3.6093,3.5786,3.5789,3.5624,3.5534,3.5577,3.5643,3.5408,3.4853,3.4851,3.4926,3.5006,3.5525,3.5663,3.5193,3.5605,3.595,3.5999,3.6009,3.6013,3.5974,3.5468,3.5488,3.5718,3.5536,3.5409,3.555,3.4934,3.4519,3.4946,3.4084,3.3373,3.3405,3.2819,3.269,3.2915,3.3121,3.313,3.3115,3.3403,3.3295,3.2824,3.3152,3.2907,3.2015,3.2125,3.1901,3.1402,3.2114,3.2306,3.2197,3.1985,3.2074,3.2319,3.2143,3.1878,3.1579,3.1349,3.1151,3.0995,3.0675,3.0258,2.9671,2.8951,2.8493,2.8128,2.7955,2.779,2.7564,2.7335,2.7119,4.4704,4.4361,4.4381,4.4053,4.3665,4.3567,4.3612,4.3568,4.3645,4.3073,4.2352,4.2642,4.2176,4.1721,4.1656,4.1777,4.1651,4.1105,4.086,4.1021,4.1042,4.1494,4.2084,4.074,4.0371,4.087,3.948,3.8348,3.7562,3.7536,3.7538,3.7624,3.7822,3.8048,3.7789,3.7825,3.7785,3.7906,3.7732,3.7734,3.7901,3.784,3.7543,3.7016,3.6792,3.6715,3.676,3.6003,3.5623,3.5687,3.5676,3.5701,3.5616,3.565,3.5747,3.5601,3.5807,3.5883,3.5793,3.588,3.5988,3.6011,3.6015,3.6016,3.5996,3.584,3.5819,3.5951,3.5843,3.5868,3.5611,3.463,3.376,3.3431,3.3431,3.2545,3.1607,3.0911,3.0754,3.1066,3.1662,3.21,3.2654,3.3088,3.3075,3.2944,3.2817,3.2512,3.175,3.2315,3.2135,3.1414,3.1939,3.2634,3.2438,3.2286,3.2532,3.2685,3.2317,3.2003,3.1618,3.1329,3.1171,3.0975,3.0472,3.0065,2.9576,2.8881,2.8493,2.8177,2.8054,2.789,2.7665,2.7412,2.7104,4.4364,4.3813,4.3829,4.3752,4.358,4.3629,4.3451,4.3063,4.3199,4.2868,4.2389,4.2898,4.2747,4.2278,4.2532,4.2527,4.2012,4.175,4.1669,4.1681,4.177,4.1938,4.203,4.1238,4.0579,4.0162,3.9229,3.8616,3.8429,3.8403,3.8452,3.8631,3.9173,3.9505,3.9444,3.8993,3.8925,3.9393,3.8449,3.8154,3.8658,3.8269,3.8125,3.8375,3.7435,3.7051,3.7571,3.6369,3.5676,3.5701,3.5711,3.5723,3.5765,3.5842,3.5597,3.5124,3.5628,3.5654,3.524,3.5656,3.6012,3.6016,3.6016,3.6016,3.5918,3.5468,3.5444,3.5785,3.5472,3.5212,3.5638,3.5479,3.5006,3.5082,3.3009,3.2008,3.2126,3.1774,3.148,3.1448,3.2035,3.2583,3.2877,3.319,3.357,3.3459,3.3335,3.2911,3.2717,3.2678,3.2964,3.2299,3.2829,3.283,3.2507,3.2367,3.2562,3.2697,3.2437,3.2038,3.1656,3.1312,3.1154,3.0764,3.0272,2.9799,2.9341,2.8826,2.8354,2.822,2.8079,2.793,2.774,2.7437,2.7093,4.4209,4.4056,4.381,4.3779,4.3908,4.3971,4.3803,4.3442,4.361,4.3402,4.32,4.3667,4.3681,4.3316,4.3686,4.3611,4.3158,4.3189,4.3177,4.2989,4.2434,4.2354,4.2268,4.1623,4.081,4.004,3.9463,3.9247,3.9307,3.9337,3.9366,3.9602,4.0058,4.0323,4.0368,3.9908,3.9917,4.0191,3.9426,3.915,3.95,3.9244,3.8952,3.8773,3.7855,3.7308,3.7197,3.6143,3.5657,3.5697,3.5723,3.5763,3.5807,3.5846,3.5654,3.536,3.5578,3.575,3.5308,3.574,3.6014,3.6016,3.6016,3.6016,3.5917,3.5406,3.5397,3.5298,3.5292,3.5168,3.5356,3.5395,3.5548,3.5827,3.345,3.1978,3.2285,3.1738,3.1511,3.1664,3.2346,3.2889,3.3331,3.3895,3.4203,3.3974,3.3491,3.3337,3.3149,3.2857,3.2771,3.2791,3.3041,3.2858,3.2498,3.2484,3.2595,3.2602,3.252,3.2074,3.1656,3.1312,3.1055,3.0447,2.9901,2.9518,2.9044,2.8365,2.788,2.7935,2.8128,2.7955,2.774,2.7325,2.6963,4.4271,4.4988,4.4334,4.4187,4.4383,4.4454,4.4472,4.4568,4.4694,4.467,4.4695,4.4694,4.48,4.4819,4.4707,4.465,4.4838,4.4674,4.4654,4.4379,4.3559,4.2856,4.2628,4.2102,4.1305,4.0373,4.0317,4.0243,4.0082,4.0233,4.028,4.0283,4.0364,4.0441,4.0436,4.0402,4.0386,4.0454,4.0427,4.0419,4.0487,4.0388,3.9876,3.8593,3.8263,3.7608,3.6716,3.6178,3.5825,3.5737,3.5788,3.5797,3.582,3.5875,3.5884,3.5789,3.5965,3.5991,3.5973,3.5956,3.6016,3.6016,3.6016,3.6015,3.5972,3.5868,3.5582,3.51,3.5427,3.5541,3.4987,3.4869,3.515,3.5376,3.4123,3.2713,3.1088,3.0906,3.132,3.1825,3.2417,3.3082,3.3739,3.4451,3.4431,3.4056,3.3285,3.3101,3.3214,3.3071,3.2523,3.2699,3.3161,3.3036,3.2734,3.2436,3.2553,3.2604,3.247,3.2038,3.16,3.1235,3.0935,3.0303,2.9663,2.9241,2.8901,2.8388,2.8099,2.8194,2.8186,2.7965,2.7665,2.7258,2.687,4.5708,4.5443,4.5338,4.5026,4.4602,4.4672,4.4738,4.4776,4.4902,4.4962,4.4962,4.4955,4.4986,4.4986,4.4919,4.4919,4.4967,4.4979,4.5022,4.5034,4.4799,4.413,4.3656,4.3333,4.2462,4.1321,4.1619,4.1474,4.0492,4.1009,4.1043,4.061,4.0603,4.0631,4.0621,4.064,4.0615,4.0648,4.0655,4.0642,4.0559,4.0107,3.9958,4.0086,3.8935,3.8438,3.8341,3.7381,3.6394,3.5821,3.5841,3.5872,3.5877,3.5942,3.5962,3.5987,3.5993,3.6016,3.6016,3.6016,3.6016,3.6016,3.6016,3.6016,3.6007,3.5957,3.5798,3.5588,3.5781,3.5728,3.5503,3.5446,3.5324,3.479,3.4419,3.3697,3.268,3.2376,3.2368,3.257,3.268,3.3127,3.3794,3.4156,3.4381,3.4403,3.3903,3.3393,3.3615,3.3284,3.2771,3.3007,3.3303,3.3195,3.2994,3.2617,3.2493,3.2588,3.2403,3.1966,3.1506,3.1058,3.0794,3.0418,2.9755,2.9247,2.9179,2.8925,2.8764,2.8304,2.8113,2.784,2.7575,2.7218,2.6803,4.6581,4.619,4.5961,4.5421,4.4788,4.4833,4.4895,4.4931,4.5026,4.5072,4.5091,4.5114,4.5125,4.5125,4.5091,4.5072,4.5125,4.5159,4.5192,4.5254,4.5302,4.4873,4.4249,4.4048,4.3398,4.2342,4.271,4.2192,4.1305,4.1596,4.1388,4.0823,4.0701,4.0868,4.1261,4.0855,4.0932,4.1106,4.097,4.0756,4.0678,4.0331,4.0125,4.0237,3.9301,3.8984,3.8536,3.7614,3.6752,3.6057,3.588,3.5901,3.5939,3.5984,3.6012,3.6014,3.6016,3.6016,3.6016,3.6016,3.6016,3.6016,3.6015,3.5991,3.5957,3.5916,3.5841,3.5356,3.5604,3.5574,3.5355,3.5503,3.5437,3.5098,3.4943,3.4424,3.3262,3.2868,3.3026,3.3168,3.3249,3.3424,3.427,3.4324,3.4527,3.4642,3.4093,3.4012,3.4131,3.3568,3.3127,3.3246,3.3331,3.3246,3.3041,3.2687,3.2468,3.2548,3.2197,3.1785,3.1372,3.0918,3.0736,3.0418,2.9809,2.9361,2.931,2.9034,2.8318,2.795,2.7834,2.769,2.7423,2.7089,2.6657,4.7268,4.7208,4.6499,4.5773,4.5185,4.5131,4.5171,4.5114,4.517,4.5203,4.5222,4.5275,4.5256,4.5288,4.5267,4.5298,4.5309,4.537,4.5429,4.5467,4.5493,4.5208,4.4686,4.4586,4.408,4.3439,4.3388,4.2953,4.2401,4.2202,4.1835,4.1466,4.1214,4.1454,4.1904,4.1375,4.1344,4.1658,4.1181,4.0853,4.0844,4.0743,4.0464,3.9816,3.9505,3.8742,3.7907,3.7281,3.6865,3.6103,3.5976,3.5956,3.5986,3.6014,3.6016,3.6016,3.6016,3.6016,3.6016,3.6016,3.6016,3.6015,3.601,3.5977,3.5917,3.588,3.5648,3.5083,3.5418,3.5381,3.502,3.5266,3.551,3.5494,3.5593,3.4897,3.3628,3.3083,3.3314,3.391,3.399,3.435,3.477,3.5039,3.4964,3.4823,3.4329,3.4244,3.424,3.385,3.3389,3.3114,3.3199,3.3285,3.3031,3.2751,3.2585,3.2471,3.1984,3.156,3.1196,3.0855,3.0733,3.0423,3.0039,2.9697,2.9435,2.8902,2.8217,2.7814,2.782,2.759,2.731,2.6855,2.6433,4.8913,4.8427,4.8321,4.7402,4.6221,4.6146,4.5787,4.5257,4.5273,4.5352,4.5286,4.5297,4.5307,4.5298,4.537,4.541,4.5448,4.5521,4.558,4.5653,4.565,4.5667,4.5483,4.5387,4.4944,4.452,4.4994,4.4473,4.3536,4.359,4.3702,4.2906,4.2634,4.2969,4.2989,4.2339,4.1913,4.1995,4.1397,4.1021,4.0952,4.0945,4.0594,3.9838,3.924,3.8711,3.8241,3.7608,3.7191,3.6881,3.6435,3.6184,3.605,3.6054,3.6055,3.6016,3.6016,3.6016,3.6016,3.6016,3.6015,3.601,3.6003,3.597,3.5894,3.5894,3.5781,3.5562,3.5653,3.5563,3.5358,3.5458,3.568,3.5816,3.6119,3.6065,3.5108,3.4752,3.4806,3.4882,3.4842,3.483,3.503,3.505,3.4983,3.4878,3.4694,3.4454,3.4244,3.4046,3.3586,3.3123,3.3246,3.3277,3.2856,3.2616,3.2497,3.2318,3.1839,3.1406,3.1035,3.079,3.0651,3.0551,3.0414,3.0032,2.9582,2.9319,2.874,2.8304,2.779,2.7514,2.7167,2.6698,2.6379,4.9276,4.827,4.8312,4.7593,4.655,4.6481,4.6476,4.6323,4.5993,4.588,4.5827,4.5599,4.5409,4.5458,4.5522,4.5584,4.559,4.5629,4.5715,4.5787,4.5808,4.5854,4.591,4.5873,4.557,4.5299,4.5659,4.5165,4.4528,4.4437,4.4244,4.3588,4.3559,4.3699,4.3933,4.3285,4.2901,4.2711,4.2031,4.1447,4.1078,4.1019,4.0925,4.0443,3.9913,3.9572,3.9107,3.8754,3.8314,3.7906,3.7459,3.6796,3.6249,3.6367,3.6426,3.6074,3.6015,3.6015,3.6016,3.6013,3.6009,3.6004,3.5968,3.5936,3.5888,3.5852,3.5788,3.5745,3.5679,3.5648,3.5651,3.6492,3.6498,3.6331,3.6836,3.6995,3.6549,3.6135,3.5818,3.5744,3.56,3.5505,3.5474,3.5407,3.5074,3.4987,3.4759,3.4529,3.4265,3.4024,3.3529,3.3203,3.3326,3.323,3.2733,3.2476,3.2367,3.2109,3.1728,3.1349,3.1012,3.079,3.0605,3.0489,3.041,3.0027,2.9605,2.9403,2.8997,2.8204,2.7625,2.7372,2.7089,2.6671,2.6433,4.9111,4.786,4.8002,4.7644,4.6969,4.6948,4.7248,4.7595,4.7059,4.6692,4.6541,4.5956,4.578,4.564,4.5657,4.5704,4.5742,4.5759,4.5822,4.5892,4.5898,4.5947,4.598,4.5961,4.5942,4.6021,4.6002,4.5516,4.5152,4.4963,4.4836,4.4102,4.4018,4.447,4.4731,4.423,4.379,4.3666,4.2928,4.2269,4.1671,4.1473,4.1234,4.0659,4.033,4.0098,3.9652,3.9426,3.9235,3.8845,3.8808,3.7929,3.705,3.6797,3.705,3.6248,3.6151,3.6013,3.6011,3.6003,3.5977,3.5977,3.5931,3.5882,3.5849,3.5961,3.6047,3.6052,3.6088,3.6205,3.6087,3.6979,3.7399,3.725,3.7673,3.7982,3.7723,3.7158,3.6862,3.6435,3.6356,3.6295,3.6122,3.5996,3.5501,3.5074,3.4846,3.461,3.4372,3.4049,3.3569,3.3223,3.3306,3.3132,3.2648,3.2465,3.2352,3.2123,3.1737,3.1565,3.1224,3.1099,3.0928,3.0534,3.03,2.9979,2.9671,2.9448,2.8858,2.7968,2.7549,2.7372,2.7063,2.6671,2.6486,4.9055,4.8923,4.9591,4.9412,4.8716,4.8657,4.836,4.7981,4.7886,4.7441,4.6857,4.6709,4.6254,4.5862,4.5757,4.5834,4.5912,4.591,4.5939,4.5961,4.598,4.5997,4.6002,4.6012,4.6037,4.6066,4.6076,4.594,4.5847,4.5842,4.5603,4.5583,4.5533,4.5693,4.5488,4.5122,4.4627,4.4439,4.3791,4.3266,4.2936,4.2325,4.1512,4.0501,3.9954,3.97,3.9721,3.9256,3.9062,3.9609,3.9666,3.9118,3.8316,3.7729,3.7358,3.7045,3.6557,3.634,3.6292,3.6148,3.6011,3.5919,3.5944,3.5893,3.5997,3.6265,3.6397,3.6756,3.714,3.7559,3.7606,3.7995,3.7969,3.7985,3.8311,3.8576,3.804,3.7937,3.7896,3.7453,3.7257,3.7071,3.6895,3.6666,3.6249,3.5689,3.5206,3.4847,3.45,3.4153,3.3737,3.3445,3.3217,3.293,3.2553,3.2485,3.2406,3.2259,3.2042,3.2139,3.1849,3.1624,3.1355,3.1113,3.0632,3.0194,2.9875,2.9554,2.8904,2.8171,2.78,2.7463,2.7089,2.675,2.6498,4.9438,4.9159,4.96,4.9567,4.9262,4.9269,4.9125,4.8825,4.8794,4.8105,4.7237,4.6955,4.6559,4.5995,4.5867,4.5941,4.5975,4.5991,4.5982,4.6002,4.6032,4.6042,4.6042,4.6052,4.6066,4.6099,4.6128,4.6108,4.6123,4.6122,4.6134,4.6138,4.6162,4.6158,4.6098,4.5781,4.5334,4.4987,4.4549,4.4092,4.3698,4.2891,4.1894,4.1211,4.0389,4.0214,4.0312,4.0215,4.0097,4.0428,4.0523,4.0265,3.9752,3.9103,3.8399,3.7972,3.7482,3.7261,3.726,3.7237,3.7225,3.712,3.6708,3.6658,3.6651,3.6659,3.6574,3.6935,3.7552,3.8043,3.7957,3.8688,3.8977,3.8753,3.9118,3.9175,3.8954,3.9031,3.8756,3.8368,3.8124,3.7898,3.7751,3.7457,3.7013,3.6397,3.5694,3.5165,3.4723,3.4252,3.3886,3.3335,3.3039,3.2802,3.2576,3.2614,3.2564,3.2413,3.2554,3.2629,3.2538,3.234,3.2144,3.1951,3.1346,3.065,3.012,2.9817,2.9108,2.8482,2.8213,2.7872,2.7273,2.6843,2.6592,4.9734,4.9201,4.947,4.9587,4.9606,4.9697,4.9652,4.9553,4.9512,4.8605,4.7192,4.7055,4.6694,4.609,4.5975,4.6026,4.6032,4.6012,4.6022,4.6027,4.6076,4.6085,4.6114,4.6084,4.5981,4.5713,4.5784,4.6002,4.613,4.6166,4.6197,4.6192,4.6203,4.6206,4.617,4.6094,4.5724,4.5501,4.5234,4.4811,4.3981,4.332,4.2676,4.2422,4.1777,4.1328,4.1054,4.0936,4.0914,4.099,4.1044,4.1055,4.0968,4.0448,3.9739,3.9076,3.8721,3.8493,3.8351,3.8241,3.8009,3.7947,3.7508,3.7626,3.7751,3.7283,3.6845,3.7233,3.7815,3.8361,3.8527,3.9227,3.9453,3.9278,3.9315,3.9614,3.9336,3.926,3.9255,3.899,3.886,3.8705,3.8543,3.808,3.7629,3.7214,3.6517,3.5578,3.5092,3.4431,3.3913,3.3222,3.2802,3.2639,3.2578,3.2773,3.2756,3.2722,3.3102,3.343,3.3299,3.3084,3.2918,3.2713,3.2,3.1308,3.0717,3.0071,2.9406,2.8936,2.8698,2.8125,2.7269,2.6858,2.6659,4.9478,4.9534,5.0226,5.0543,5.0514,5.0546,5.0217,4.9667,4.9657,4.8826,4.713,4.7212,4.679,4.6166,4.6037,4.6071,4.6081,4.5973,4.5983,4.6041,4.5933,4.5875,4.6054,4.6113,4.5496,4.5141,4.5044,4.5504,4.5866,4.6059,4.6193,4.6195,4.6203,4.6216,4.6216,4.6218,4.6189,4.6141,4.6104,4.5679,4.4941,4.4609,4.3691,4.2812,4.2167,4.1776,4.1209,4.1109,4.1103,4.1115,4.1111,4.1101,4.1083,4.105,4.0863,4.0237,3.9399,3.8369,3.8466,3.8529,3.8512,3.8518,3.8112,3.8054,3.8047,3.8399,3.8375,3.8938,3.8977,3.8861,3.8642,3.8584,3.8677,3.8582,3.8497,3.8575,3.855,3.8942,3.9011,3.9288,3.9031,3.9257,3.9301,3.8744,3.8213,3.7815,3.7275,3.6328,3.5306,3.452,3.4018,3.3328,3.308,3.2946,3.3178,3.3266,3.3192,3.3137,3.3582,3.4117,3.3915,3.3723,3.3742,3.3392,3.268,3.2078,3.1579,3.0854,2.9903,2.9235,2.884,2.801,2.7053,2.6823,2.6816,5.0294,5.0231,5.0665,5.0871,5.0801,5.0477,4.9828,4.9194,4.9077,4.8149,4.6904,4.7123,4.6837,4.6183,4.6076,4.6105,4.5983,4.5665,4.5689,4.5713,4.5347,4.5025,4.5169,4.4938,4.4397,4.4309,4.4281,4.4704,4.5245,4.5532,4.5638,4.6186,4.6191,4.622,4.6254,4.6255,4.6282,4.6267,4.6249,4.6093,4.5586,4.4805,4.3926,4.3124,4.2225,4.1579,4.1244,4.1099,4.1109,4.1097,4.1068,4.1042,4.1039,4.1013,4.091,4.0767,4.0188,3.9755,3.9733,3.9565,3.9464,3.9335,3.9043,3.8577,3.8294,3.8395,3.8661,3.8527,3.8065,3.8161,3.8577,3.8177,3.8158,3.8061,3.7889,3.7887,3.8015,3.8267,3.8544,3.8901,3.9276,3.9445,3.9552,3.9152,3.8733,3.8508,3.7817,3.6828,3.5505,3.4193,3.3781,3.3489,3.3423,3.3442,3.3829,3.4109,3.3947,3.3908,3.4085,3.4461,3.4418,3.432,3.4293,3.4137,3.364,3.3057,3.2482,3.1763,3.0942,2.9946,2.8895,2.8143,2.743,2.73,2.7236,5.0591,5.0221,5.0581,5.0616,5.0403,4.9817,4.9112,4.8326,4.8312,4.7456,4.6542,4.6703,4.6654,4.6264,4.6156,4.627,4.6415,4.5543,4.5582,4.5414,4.4837,4.4348,4.4348,4.3924,4.357,4.3285,4.3317,4.3833,4.4379,4.4725,4.515,4.6131,4.5877,4.6061,4.6244,4.6285,4.6289,4.6289,4.6289,4.6269,4.5996,4.4844,4.412,4.3299,4.2358,4.1339,4.1136,4.1078,4.1081,4.1069,4.1031,4.1003,4.0968,4.0952,4.0869,4.0773,4.0475,4.0469,4.043,4.0416,4.0593,4.0371,4.0099,3.9369,3.8938,3.8623,3.8654,3.8927,3.8158,3.8247,3.8489,3.8535,3.8309,3.8113,3.7728,3.7666,3.7716,3.8082,3.877,3.9539,3.9765,3.9446,3.9483,3.9349,3.9184,3.9115,3.8387,3.7312,3.5963,3.4431,3.4083,3.3988,3.397,3.404,3.4285,3.4599,3.454,3.4542,3.4699,3.4691,3.4547,3.4655,3.4705,3.4535,3.4319,3.3782,3.3062,3.2539,3.1953,3.0498,2.92,2.8579,2.8062,2.7864,2.7681,4.9584,4.8907,4.9662,4.9573,4.8929,4.8823,4.8286,4.7494,4.7439,4.6917,4.6119,4.6243,4.6216,4.6231,4.6355,4.6697,4.7288,4.6488,4.6371,4.6022,4.5267,4.4463,4.4089,4.3672,4.3114,4.2517,4.2597,4.3066,4.3573,4.3984,4.4881,4.599,4.5816,4.5838,4.6054,4.6289,4.6172,4.6172,4.6191,4.6211,4.5957,4.5174,4.4391,4.3624,4.2791,4.1972,4.1196,4.1248,4.1322,4.1328,4.1213,4.1124,4.113,4.1087,4.1025,4.0945,4.1052,4.1036,4.1,4.0715,4.0519,4.0485,4.0439,4.0362,4.0142,4.0258,4.03,4.0087,3.928,3.9536,3.9799,3.9651,3.8959,3.8803,3.8527,3.8328,3.8271,3.8101,3.8857,4.0009,4.0372,4.0215,3.9844,3.9813,3.9295,3.9156,3.8473,3.7427,3.6564,3.5321,3.494,3.4747,3.4692,3.4707,3.4724,3.4844,3.4893,3.4785,3.4791,3.4703,3.4561,3.4717,3.4906,3.4849,3.4601,3.4122,3.3636,3.3016,3.21,3.0613,2.9545,2.8914,2.8356,2.8015,2.7946,4.9481,4.874,4.9043,4.898,4.8658,4.8136,4.7443,4.6637,4.6091,4.5744,4.5475,4.5436,4.5696,4.6213,4.6843,4.7145,4.7446,4.722,4.7316,4.694,4.6028,4.4849,4.4175,4.3359,4.2402,4.197,4.2143,4.2822,4.3619,4.3777,4.5184,4.6088,4.6151,4.6073,4.6247,4.6263,4.6008,4.5772,4.5929,4.6045,4.5361,4.4695,4.4006,4.364,4.2793,4.2261,4.1964,4.2337,4.2439,4.2328,4.1912,4.1708,4.1577,4.1557,4.15,4.1509,4.1747,4.1932,4.1716,4.1162,4.0516,4.065,4.0939,4.1296,4.1288,4.1272,4.1248,4.0973,4.0518,4.0618,4.0388,3.999,3.9584,3.9681,3.9561,3.9213,3.9177,3.9117,3.9445,4.0822,4.1209,4.1252,4.0828,4.0407,3.9756,3.9124,3.835,3.7591,3.6809,3.6165,3.5741,3.5506,3.5429,3.5655,3.5725,3.5547,3.5316,3.5096,3.4918,3.4728,3.4595,3.476,3.4883,3.4899,3.4875,3.4492,3.398,3.3348,3.2231,3.0746,2.9881,2.9337,2.8764,2.8166,2.8272,4.9049,4.8665,4.8178,4.7973,4.7885,4.7301,4.6563,4.5871,4.5543,4.5504,4.5699,4.5718,4.6173,4.6983,4.7543,4.8135,4.8244,4.8117,4.8325,4.7707,4.6579,4.5469,4.4704,4.3856,4.2873,4.2319,4.2485,4.3292,4.4582,4.4218,4.5668,4.6942,4.7104,4.6778,4.6608,4.6288,4.5911,4.5657,4.5501,4.5853,4.523,4.4305,4.3964,4.3726,4.2969,4.2542,4.2506,4.2732,4.2937,4.2934,4.2773,4.2479,4.2376,4.2314,4.229,4.2464,4.2722,4.3104,4.2739,4.2162,4.1277,4.155,4.183,4.211,4.2132,4.2117,4.2129,4.2372,4.1693,4.1216,4.1389,4.1437,4.1244,4.1398,4.046,4.0106,4.0594,4.0722,4.1035,4.1678,4.175,4.1683,4.1338,4.0785,4.0063,3.9453,3.8985,3.8192,3.7319,3.6738,3.6344,3.6194,3.6164,3.6498,3.6814,3.6126,3.5489,3.5349,3.5117,3.4784,3.4675,3.4821,3.489,3.4899,3.4851,3.4756,3.4307,3.3616,3.2305,3.0829,2.9968,2.9032,2.8878,2.8371,2.8758,4.8123,4.8562,4.7135,4.6501,4.6616,4.6304,4.5887,4.5412,4.5785,4.6507,4.7171,4.7309,4.776,4.841,4.8616,4.907,4.9463,4.9119,4.9023,4.8671,4.7635,4.6588,4.5633,4.4736,4.3834,4.44,4.4163,4.4384,4.5784,4.5203,4.644,4.7669,4.7755,4.7411,4.737,4.6651,4.6261,4.6085,4.5515,4.5882,4.5603,4.4648,4.4448,4.4153,4.3409,4.3,4.301,4.2998,4.3179,4.3383,4.3234,4.309,4.3153,4.3158,4.3119,4.3121,4.3209,4.3269,4.3154,4.3047,4.2898,4.2661,4.2729,4.2942,4.2917,4.2985,4.3235,4.3579,4.3139,4.3422,4.3605,4.3555,4.3171,4.2731,4.1803,4.1537,4.2059,4.2194,4.2452,4.259,4.2132,4.1754,4.1519,4.1114,4.0354,3.9808,3.9506,3.8822,3.7899,3.7274,3.686,3.6634,3.6601,3.6744,3.6831,3.6196,3.5715,3.5575,3.5293,3.4895,3.4749,3.4871,3.4894,3.493,3.4875,3.4804,3.4379,3.3859,3.2233,3.0608,2.9354,2.8541,2.8521,2.8726,2.9141,4.8385,4.9558,4.8427,4.7955,4.7852,4.7342,4.6646,4.5888,4.5695,4.6261,4.7395,4.7619,4.8054,4.8722,4.9431,4.9863,5.0038,5.0722,5.0526,5.0276,4.9005,4.8084,4.702,4.5852,4.4907,4.4329,4.4189,4.4656,4.5248,4.5456,4.643,4.7561,4.8185,4.8032,4.7788,4.746,4.7538,4.6638,4.6784,4.7164,4.6268,4.5523,4.501,4.4841,4.4058,4.3668,4.3556,4.346,4.373,4.3912,4.3769,4.3597,4.3843,4.3943,4.3926,4.4038,4.4222,4.4659,4.4641,4.4526,4.4008,4.3559,4.3473,4.3751,4.3761,4.4308,4.4622,4.4685,4.4366,4.4568,4.4593,4.4474,4.4225,4.4134,4.363,4.3551,4.3767,4.3568,4.3581,4.3631,4.3405,4.2701,4.2282,4.2124,4.1456,4.0588,4.0258,3.9457,3.8546,3.7847,3.7326,3.7007,3.6884,3.6937,3.6794,3.6317,3.6092,3.6012,3.5507,3.489,3.4841,3.5031,3.4934,3.4956,3.4892,3.4794,3.4216,3.3428,3.1863,3.0378,2.9168,2.8667,2.891,2.926,2.9642,4.8651,4.951,4.8735,4.8757,4.9029,4.8062,4.726,4.6698,4.6192,4.6857,4.8231,4.8511,4.8982,4.9706,5.0234,5.0544,5.0582,5.0715,5.0923,5.0774,4.9621,4.8622,4.7733,4.6823,4.593,4.5066,4.5085,4.5517,4.6024,4.6098,4.6702,4.7513,4.83,4.8308,4.8191,4.8234,4.823,4.7498,4.7711,4.7475,4.6712,4.6085,4.5611,4.518,4.4731,4.4421,4.429,4.4397,4.4607,4.4515,4.4399,4.419,4.4583,4.4712,4.4703,4.4916,4.5081,4.539,4.5314,4.5236,4.4499,4.3532,4.4125,4.4489,4.4584,4.4878,4.5017,4.5115,4.5159,4.5072,4.4948,4.4895,4.4796,4.4667,4.4568,4.4462,4.4341,4.4115,4.4027,4.4151,4.3996,4.3415,4.3017,4.3031,4.273,4.1859,4.1026,4.0129,3.9229,3.8454,3.7734,3.7309,3.706,3.7042,3.6898,3.6576,3.6414,3.643,3.593,3.5328,3.5239,3.5435,3.5221,3.5032,3.5206,3.5027,3.4055,3.2975,3.1678,3.0378,2.9122,2.8965,2.9327,2.9618,2.9876,4.8782,4.8725,4.7968,4.8613,4.9648,4.8561,4.7874,4.7767,4.7708,4.8591,5.0078,5.0039,5.037,5.111,5.1337,5.1288,5.1084,5.0557,5.0327,4.9802,4.8908,4.8454,4.796,4.7095,4.655,4.6683,4.6605,4.618,4.7131,4.6493,4.6602,4.7267,4.8,4.8142,4.8248,4.8414,4.8434,4.8181,4.7877,4.7584,4.6985,4.6397,4.5983,4.553,4.5109,4.4943,4.4789,4.4747,4.4861,4.5032,4.5315,4.5421,4.5519,4.5531,4.5494,4.5457,4.5419,4.539,4.5388,4.5347,4.4989,4.4262,4.4826,4.514,4.5042,4.4952,4.5109,4.5091,4.5057,4.4986,4.4883,4.4815,4.4712,4.4619,4.4556,4.4468,4.4397,4.4273,4.4218,4.4135,4.3926,4.3582,4.3362,4.3355,4.3211,4.2704,4.176,4.0817,3.9906,3.8938,3.8196,3.7443,3.7253,3.7112,3.6948,3.6851,3.6583,3.6547,3.6602,3.6152,3.6049,3.5917,3.588,3.5827,3.5786,3.525,3.4005,3.287,3.175,3.0529,2.9668,2.8975,2.9235,2.9478,2.9694,4.8632,4.9609,4.8808,4.9101,5.0039,5.0233,5.0291,5.0253,4.9706,5.0039,5.1034,5.103,5.1121,5.1385,5.1386,5.1394,5.1054,5.0597,5.0235,4.9543,4.8617,4.8236,4.7762,4.7248,4.694,4.6608,4.6414,4.6352,4.6438,4.6123,4.6095,4.6499,4.7376,4.7583,4.7888,4.8179,4.8392,4.843,4.8122,4.7708,4.7295,4.676,4.6298,4.5746,4.5449,4.5227,4.4818,4.4675,4.468,4.471,4.4739,4.4865,4.5522,4.5504,4.5485,4.5438,4.5379,4.5328,4.5371,4.5783,4.5643,4.5011,4.5438,4.5076,4.4866,4.4722,4.4992,4.4889,4.4936,4.4926,4.4796,4.4712,4.4605,4.4524,4.4426,4.4344,4.4252,4.4162,4.4104,4.3945,4.3767,4.3651,4.3481,4.3394,4.3214,4.3014,4.25,4.1529,4.063,3.9671,3.876,3.8028,3.776,3.7725,3.7451,3.73,3.6925,3.6644,3.6816,3.687,3.6569,3.6482,3.6596,3.6464,3.6191,3.5095,3.3718,3.2796,3.224,3.1661,3.0842,2.9842,2.9185,2.9671,3.0018,4.8473,4.9018,4.8898,4.9306,5.0165,5.1024,5.1395,5.1279,5.0835,5.0951,5.1349,5.1379,5.1386,5.1352,5.1355,5.1343,5.1236,5.0066,4.9513,4.9237,4.8396,4.7551,4.7076,4.6975,4.6663,4.6332,4.6192,4.6224,4.6115,4.6027,4.5983,4.6102,4.6765,4.7235,4.7664,4.8094,4.8261,4.8319,4.8183,4.7804,4.7368,4.6931,4.642,4.5844,4.5631,4.5257,4.4893,4.4797,4.4808,4.4895,4.4963,4.5455,4.5966,4.5966,4.6223,4.6218,4.5974,4.6102,4.6256,4.6218,4.5841,4.5456,4.5504,4.4934,4.4668,4.4516,4.455,4.4507,4.4737,4.4877,4.4738,4.4605,4.4491,4.4374,4.4277,4.4177,4.407,4.3976,4.3865,4.3734,4.3617,4.3516,4.3429,4.3359,4.3215,4.3013,4.2731,4.2129,4.1317,4.0518,3.9608,3.8763,3.8564,3.8477,3.8167,3.7923,3.7773,3.7556,3.7512,3.7458,3.7127,3.7185,3.7419,3.6993,3.637,3.5251,3.4129,3.3624,3.3067,3.2552,3.2149,3.1466,3.0792,3.0673,3.0911,4.8239,4.7643,4.8379,4.9215,5.0146,5.0932,5.1283,5.1397,5.1336,5.139,5.138,5.1394,5.1271,5.1067,5.1018,5.091,5.038,4.9344,4.87,4.8651,4.7294,4.6491,4.6452,4.6215,4.6302,4.6247,4.6174,4.6117,4.6012,4.5916,4.5887,4.5944,4.6489,4.6951,4.7367,4.7494,4.7612,4.7818,4.7651,4.7328,4.6937,4.6686,4.6432,4.5768,4.5594,4.5537,4.5547,4.5605,4.5664,4.5897,4.6273,4.6743,4.6741,4.6708,4.7043,4.7113,4.6763,4.6641,4.6727,4.6699,4.5922,4.5423,4.5064,4.4826,4.4731,4.4876,4.4971,4.4959,4.5212,4.5512,4.5471,4.5335,4.52,4.4815,4.4522,4.4432,4.4355,4.3999,4.3441,4.3324,4.3203,4.3172,4.3323,4.3233,4.3105,4.2955,4.267,4.2297,4.1837,4.1128,4.0401,3.9533,3.941,3.9228,3.8895,3.8701,3.8803,3.8661,3.8436,3.8173,3.7928,3.807,3.8299,3.7645,3.692,3.5896,3.4928,3.4424,3.405,3.3778,3.3392,3.3057,3.2656,3.2357,3.1819,4.7682,4.7521,4.773,4.8683,5.0029,5.0305,5.0784,5.132,5.131,5.131,5.134,5.1278,5.094,5.0474,5.0435,5.0194,4.9317,4.8651,4.7949,4.7657,4.6702,4.6313,4.6231,4.6259,4.6162,4.6069,4.6042,4.6035,4.6053,4.5924,4.5815,4.5843,4.6309,4.6733,4.687,4.688,4.719,4.7625,4.719,4.6812,4.6322,4.6025,4.5729,4.5633,4.5652,4.5701,4.5846,4.6242,4.6397,4.6637,4.7309,4.7564,4.7556,4.7438,4.7464,4.7543,4.7374,4.711,4.6902,4.6853,4.6398,4.5937,4.5653,4.5388,4.5356,4.5628,4.5747,4.5719,4.5803,4.6083,4.6157,4.5993,4.5746,4.5223,4.47,4.4621,4.4576,4.3905,4.3162,4.302,4.2896,4.303,4.3233,4.3159,4.2973,4.2746,4.251,4.221,4.198,4.1466,4.1045,4.0375,4.0253,4.0034,3.9678,3.9495,3.9554,3.9508,3.9305,3.9051,3.8717,3.8723,3.8745,3.818,3.7452,3.6568,3.5841,3.5328,3.4987,3.4888,3.4786,3.4544,3.4635,3.4454,3.3472,4.7161,4.757,4.8331,4.915,5.0027,5.0456,5.0897,5.1241,5.13,5.13,5.13,5.1241,5.0805,5.0073,4.9995,4.9488,4.867,4.791,4.8008,4.7735,4.6917,4.664,4.6477,4.6419,4.6132,4.6032,4.5935,4.5932,4.6225,4.6368,4.6345,4.6684,4.6901,4.7134,4.7221,4.7528,4.7663,4.8029,4.7355,4.6874,4.6297,4.5913,4.5941,4.597,4.6126,4.6097,4.6406,4.6868,4.7194,4.7489,4.8039,4.8651,4.8636,4.8462,4.8211,4.8035,4.7751,4.7296,4.7049,4.6923,4.689,4.6561,4.6484,4.631,4.6415,4.6612,4.636,4.6309,4.6323,4.654,4.6282,4.6072,4.5635,4.5134,4.4426,4.4031,4.4168,4.4009,4.3793,4.3887,4.3889,4.4053,4.4086,4.3721,4.3423,4.2706,4.243,4.2258,4.2009,4.174,4.1372,4.1073,4.0841,4.0775,4.0498,4.0369,4.0319,4.0267,4.0072,3.9595,3.9143,3.9204,3.9063,3.8539,3.8017,3.7484,3.6802,3.6328,3.6206,3.6204,3.6154,3.6064,3.6176,3.6076,3.5033,4.6718,4.7653,4.9021,4.98,5.0092,5.0774,5.1183,5.1281,5.13,5.13,5.13,5.13,5.0755,5.0112,4.98,4.9177,4.8417,4.7446,4.7738,4.7868,4.7026,4.712,4.7064,4.6822,4.6372,4.5987,4.5814,4.629,4.6823,4.681,4.7123,4.8086,4.8702,4.9163,4.949,4.9702,4.9529,4.9067,4.8606,4.8336,4.7432,4.6288,4.6269,4.6501,4.6666,4.6695,4.6964,4.7413,4.7822,4.834,4.8682,4.9065,4.9207,4.891,4.8561,4.8239,4.777,4.7435,4.7321,4.7237,4.7235,4.7195,4.7291,4.7368,4.7438,4.7277,4.702,4.6873,4.6887,4.6912,4.6616,4.6097,4.5636,4.5243,4.4514,4.3695,4.3884,4.4106,4.4309,4.451,4.4728,4.4868,4.47,4.4332,4.3815,4.3039,4.255,4.2326,4.2076,4.1815,4.1486,4.1327,4.1173,4.1136,4.1075,4.0932,4.0764,4.0629,4.035,3.991,3.9563,3.9405,3.9212,3.8897,3.84,3.7981,3.7737,3.7361,3.7369,3.7263,3.7105,3.6901,3.662,3.6477,3.6134,4.6625,4.7463,4.7844,4.8729,4.9878,5.019,5.0657,5.1242,5.1281,5.13,5.13,5.1164,5.0521,4.904,4.9021,4.8436,4.7404,4.6878,4.7116,4.7319,4.7384,4.7777,4.7888,4.7442,4.6558,4.6141,4.597,4.6271,4.7292,4.7248,4.7375,4.8279,4.8298,4.8529,4.8509,4.8875,4.926,4.9221,4.9192,4.8769,4.9106,4.7924,4.632,4.6052,4.5697,4.6129,4.6675,4.7435,4.8138,4.8785,4.9319,4.9442,4.9334,4.9048,4.8662,4.82,4.7713,4.7503,4.74,4.7421,4.7418,4.7452,4.7594,4.7999,4.798,4.7822,4.7562,4.727,4.7367,4.7679,4.7409,4.6567,4.6005,4.5879,4.5404,4.4397,4.3943,4.4126,4.4309,4.4654,4.4995,4.5133,4.5158,4.4897,4.4682,4.3954,4.3354,4.3087,4.2745,4.2225,4.1745,4.1708,4.1648,4.13,4.1174,4.1088,4.0938,4.0813,4.0558,4.0011,3.9625,3.9432,3.9212,3.9001,3.881,3.8477,3.8279,3.8038,3.7979,3.785,3.7792,3.76,3.7268,3.6784,3.6336]}]]